[[{"header":{"parameterUnit":"m.s-1","parameterCategory":1,"la1":30.6,"la2":28.766,"lo1":-90.7593,"lo2":-88.6598,"dx":0.0162,"dy":0.0183,"nx":116,"ny":114,"refTime":"2023-01-31T18:00:00:Z","depth":0,"parameterNumber":2,"parameterNumberName":"U-component_of_WINDS"},"data":[0.0,0.0,0.0,0.0,0.0,0.0,0.0,0.0,0.0,0.0,0.0,0.0,0.0,0.0,0.0,0.0,0.0,0.0,0.0,0.0,0.0,0.0,0.0,0.0,0.0,0.0,0.0,0.0,0.0,0.0,0.0,0.0,0.0,0.0,0.0,0.0,0.0,0.0,0.0,0.0,0.0,0.0,0.0,0.0,0.0,0.0,0.0,0.0,0.0,0.0,0.0,0.0,0.0,0.0,0.0,0.0,0.0,0.0,0.0,0.0,0.0,0.0,0.0,0.0,0.0,0.0,0.0,0.0,0.0,0.0,0.0,0.0,0.0,0.0,0.0,0.0,0.0,0.0,0.0,0.0,0.0,0.0,0.0,0.0,0.0,0.0,0.0,0.0,0.0,0.0,0.0,0.0,0.0,0.0,0.0,0.0,0.0,0.0,0.0,0.0,0.0,0.0,0.0,0.0,0.0,0.0,0.0,0.0,0.0,0.0,0.0,0.0,0.0,0.0,0.0,0.0,0.0,0.0,0.0,0.0,0.0,0.0,0.0,0.0,0.0,0.0,0.0,0.0,0.0,0.0,0.0,0.0,0.0,0.0,0.0,0.0,0.0,0.0,0.0,0.0,0.0,0.0,0.0,0.0,0.0,0.0,0.0,0.0,0.0,0.0,0.0,0.0,0.0,0.0,0.0,0.0,0.0,0.0,0.0,0.0,0.0,0.0,0.0,0.0,0.0,0.0,0.0,0.0,0.0,0.0,0.0,0.0,0.0,0.0,0.0,0.0,0.0,0.0,0.0,0.0,0.0,0.0,0.0,0.0,0.0,0.0,0.0,0.0,0.0,0.0,0.0,0.0,0.0,0.0,0.0,0.0,0.0,0.0,0.0,0.0,0.0,0.0,0.0,0.0,0.0,0.0,0.0,0.0,0.0,0.0,0.0,0.0,0.0,0.0,0.0,0.0,0.0,0.0,0.0,0.0,0.0,0.0,0.0,0.0,0.0,0.0,0.0,0.0,0.0,0.0,0.0,0.0,0.0,0.0,0.0,0.0,0.0,0.0,0.0,0.0,0.0,0.0,0.0,0.0,0.0,0.0,0.0,0.0,0.0,0.0,0.0,0.0,0.0,0.0,0.0,0.0,0.0,0.0,0.0,0.0,0.0,0.0,0.0,0.0,0.0,0.0,0.0,0.0,0.0,0.0,0.0,0.0,0.0,0.0,0.0,0.0,0.0,0.0,0.0,0.0,0.0,0.0,0.0,0.0,0.0,0.0,0.0,0.0,0.0,0.0,0.0,0.0,0.0,0.0,0.0,0.0,0.0,0.0,0.0,0.0,0.0,0.0,0.0,0.0,0.0,0.0,0.0,0.0,0.0,0.0,0.0,0.0,0.0,0.0,0.0,0.0,0.0,0.0,0.0,0.0,0.0,0.0,0.0,0.0,0.0,0.0,0.0,0.0,0.0,0.0,0.0,0.0,0.0,0.0,0.0,0.0,0.0,0.0,0.0,0.0,0.0,0.0,0.0,0.0,0.0,0.0,0.0,0.0,0.0,0.0,0.0,0.0,0.0,0.0,0.0,0.0,0.0,0.0,0.0,0.0,0.0,0.0,0.0,0.0,0.0,0.0,0.0,0.0,0.0,0.0,0.0,0.0,0.0,0.0,0.0,0.0,0.0,0.0,0.0,0.0,0.0,0.0,0.0,0.0,0.0,0.0,0.0,0.0,0.0,0.0,0.0,0.0,0.0,0.0,0.0,0.0,0.0,0.0,0.0,0.0,0.0,0.0,0.0,0.0,0.0,0.0,0.0,0.0,0.0,0.0,0.0,0.0,0.0,0.0,0.0,0.0,0.0,0.0,0.0,0.0,0.0,0.0,0.0,0.0,0.0,0.0,0.0,0.0,0.0,0.0,0.0,0.0,0.0,0.0,0.0,0.0,0.0,0.0,0.0,0.0,0.0,0.0,0.0,0.0,0.0,0.0,0.0,0.0,0.0,0.0,0.0,0.0,0.0,0.0,0.0,0.0,0.0,0.0,0.0,0.0,0.0,0.0,0.0,0.0,0.0,0.0,0.0,0.0,0.0,0.0,0.0,0.0,0.0,0.0,0.0,0.0,0.0,0.0,0.0,0.0,0.0,0.0,0.0,0.0,0.0,0.0,0.0,0.0,0.0,0.0,0.0,0.0,0.0,0.0,0.0,0.0,0.0,0.0,0.0,0.0,0.0,0.0,0.0,0.0,0.0,0.0,0.0,0.0,0.0,0.0,0.0,0.0,0.0,0.0,0.0,0.0,0.0,0.0,0.0,0.0,0.0,0.0,0.0,0.0,0.0,0.0,0.0,0.0,0.0,0.0,0.0,0.0,0.0,0.0,0.0,0.0,0.0,0.0,0.0,0.0,0.0,0.0,0.0,0.0,0.0,0.0,0.0,0.0,0.0,0.0,0.0,0.0,0.0,0.0,0.0,0.0,0.0,0.0,0.0,0.0,0.0,0.0,0.0,0.0,0.0,0.0,0.0,0.0,0.0,0.0,0.0,0.0,0.0,0.0,0.0,0.0,0.0,0.0,0.0,0.0,0.0,0.0,0.0,0.0,0.0,0.0,0.0,0.0,0.0,0.0,0.0,0.0,0.0,0.0,0.0,0.0,0.0,0.0,0.0,0.0,0.0,0.0,0.0,0.0,0.0,0.0,0.0,0.0,0.0,0.0,0.0,0.0,0.0,0.0,0.0,0.0,0.0,0.0,0.0,0.0,0.0,0.0,0.0,0.0,0.0,0.0,0.0,0.0,0.0,0.0,0.0,0.0,0.0,0.0,0.0,0.0,0.0,0.0,0.0,0.0,0.0,0.0,0.0,0.0,0.0,0.0,0.0,0.0,0.0,0.0,0.0,0.0,0.0,0.0,0.0,0.0,0.0,0.0,0.0,0.0,0.0,0.0,0.0,0.0,0.0,0.0,0.0,0.0,0.0,0.0,0.0,0.0,0.0,0.0,0.0,0.0,0.0,0.0,0.0,0.0,0.0,0.0,0.0,0.0,0.0,0.0,0.0,0.0,0.0,0.0,0.0,0.0,0.0,0.0,0.0,0.0,0.0,0.0,0.0,0.0,0.0,0.0,0.0,0.0,0.0,0.0,0.0,0.0,0.0,0.0,0.0,0.0,0.0,0.0,0.0,0.0,0.0,0.0,0.0,0.0,0.0,0.0,0.0,0.0,0.0,0.0,0.0,0.0,0.0,0.0,0.0,0.0,0.0,0.0,0.0,0.0,0.0,0.0,0.0,0.0,0.0,0.0,0.0,0.0,0.0,0.0,0.0,0.0,0.0,0.0,0.0,0.0,0.0,0.0,0.0,0.0,0.0,0.0,0.0,0.0,0.0,0.0,0.0,0.0,0.0,0.0,0.0,0.0,0.0,0.0,0.0,0.0,0.0,0.0,0.0,0.0,0.0,0.0,0.0,0.0,0.0,0.0,0.0,0.0,0.0,0.0,0.0,0.0,0.0,0.0,0.0,0.0,0.0,0.0,0.0,0.0,0.0,0.0,0.0,0.0,0.0,0.0,0.0,0.0,0.0,0.0,0.0,0.0,0.0,0.0,0.0,0.0,0.0,0.0,0.0,0.0,0.0,0.0,0.0,0.0,0.0,0.0,0.0,0.0,0.0,0.0,0.0,0.0,0.0,0.0,0.0,0.0,0.0,0.0,0.0,0.0,0.0,0.0,0.0,0.0,0.0,0.0,0.0,0.0,0.0,0.0,0.0,0.0,0.0,0.0,0.0,0.0,0.0,0.0,0.0,0.0,0.0,0.0,0.0,0.0,0.0,0.0,0.0,0.0,0.0,0.0,0.0,0.0,0.0,0.0,0.0,0.0,0.0,0.0,0.0,0.0,0.0,0.0,0.0,0.0,0.0,0.0,0.0,0.0,0.0,0.0,0.0,0.0,0.0,0.0,0.0,0.0,0.0,0.0,0.0,0.0,0.0,0.0,0.0,0.0,0.0,0.0,0.0,0.0,0.0,0.0,0.0,0.0,0.0,0.0,0.0,0.0,0.0,0.0,0.0,0.0,0.0,0.0,0.0,0.0,0.0,0.0,0.0,0.0,0.0,0.0,0.0,0.0,0.0,0.0,0.0,0.0,0.0,0.0,0.0,0.0,0.0,0.0,0.0,0.0,0.0,0.0,0.0,0.0,0.0,0.0,0.0,0.0,0.0,0.0,0.0,0.0,0.0,0.0,0.0,0.0,0.0,0.0,0.0,0.0,0.0,0.0,0.0,0.0,0.0,0.0,0.0,0.0,0.0,0.0,0.0,0.0,0.0,0.0,0.0,0.0,0.0,0.0,0.0,0.0,0.0,0.0,0.0,0.0,0.0,0.0,0.0,0.0,0.0,0.0,0.0,0.0,0.0,0.0,0.0,0.0,0.0,0.0,0.0,0.0,0.0,0.0,0.0,0.0,0.0,0.0,0.0,0.0,0.0,0.0,0.0,0.0,0.0,0.0,0.0,0.0,0.0,0.0,0.0,0.0,0.0,0.0,0.0,0.0,0.0,0.0,0.0,0.0,0.0,0.0,0.0,0.0,0.0,0.0,0.0,0.0,0.0,0.0,0.0,0.0,0.0,0.0,0.0,0.0,0.0,0.0,0.0,0.0,0.0,0.0,0.0,0.0,0.0,0.0,0.0,0.0,0.0,0.0,0.0,0.0,0.0,0.0,0.0,0.0,0.0,0.0,0.0,0.0,0.0,0.0,0.0,0.0,0.0,0.0,0.0,0.0,0.0,0.0,0.0,0.0,0.0,0.0,0.0,0.0,0.0,0.0,0.0,0.0,0.0,0.0,0.0,0.0,0.0,0.0,0.0,0.0,0.0,0.0,0.0,0.0,0.0,0.0,0.0,0.0,0.0,0.0,0.0,0.0,0.0,0.0,0.0,0.0,0.0,0.0,0.0,0.0,0.0,0.0,0.0,0.0,0.0,0.0,0.0,0.0,0.0,0.0,0.0,0.0,0.0,0.0,0.0,0.0,0.0,0.0,0.0,0.0,0.0,0.0,0.0,0.0,0.0,0.0,0.0,0.0,0.0,0.0,0.0,0.0,0.0,0.0,0.0,0.0,0.0,0.0,0.0,0.0,0.0,0.0,0.0,0.0,0.0,0.0,0.0,0.0,0.0,0.0,0.0,0.0,0.0,0.0,0.0,0.0,0.0,0.0,0.0,0.0,0.0,0.0,0.0,0.0,0.0,0.0,0.0,0.0,0.0,0.0,0.0,0.0,0.0,0.0,0.0,0.0,0.0,0.0,0.0,0.0,0.0,0.0,0.0,0.0,0.0,0.0,0.0,0.0,0.0,0.0,0.0,0.0,0.0,0.0,0.0,0.0,0.0,0.0,0.0,0.0,0.0,0.0,0.0,0.0,0.0,0.0,0.0,0.0,0.0,0.0,0.0,0.0,0.0,0.0,0.0,0.0,0.0,0.0,0.0,0.0,0.0,0.0,0.0,0.0,0.0,0.0,0.0,0.0,0.0,0.0,0.0,0.0,0.0,0.0,0.0,0.0,0.0,0.0,0.0,0.0,0.0,0.0,0.0,0.0,0.0,0.0,0.0,0.0,0.0,0.0,0.0,0.0,0.0,0.0,0.0,0.0,0.0,0.0,0.0,0.0,0.0,0.0,0.0,0.0,0.0,0.0,0.0,0.0,0.0,0.0,0.0,0.0,0.0,0.0,0.0,0.0,0.0,0.0,0.0,0.0,0.0,0.0,0.0,0.0,0.0,0.0,0.0,0.0,0.0,0.0,0.0,0.0,0.0,0.0,0.0,0.0,0.0,0.0,0.0,0.0,0.0,0.0,0.0,0.0,0.0,0.0,0.0,0.0,0.0,0.0,0.0,0.0,0.0,0.0,0.0,0.0,0.0,0.0,0.0,0.0,0.0,0.0,0.0,0.0,0.0,0.0,0.0,0.0,0.0,0.0,0.0,0.0,0.0,0.0,0.0,0.0,0.0,0.0,0.0,0.0,0.0,0.0,0.0,0.0,0.0,0.0,0.0,0.0,0.0,0.0,0.0,0.0,0.0,0.0,0.0,0.0,0.0,0.0,0.0,0.0,0.0,0.0,0.0,0.0,3.1612,0.0,0.0,0.0,0.0,0.0,0.0,0.0,0.0,0.0,0.0,0.0,0.0,0.0,0.0,0.0,0.0,0.0,0.0,0.0,0.0,0.0,0.0,0.0,0.0,0.0,0.0,0.0,0.0,0.0,0.0,0.0,0.0,0.0,0.0,0.0,0.0,0.0,0.0,0.0,0.0,0.0,0.0,0.0,0.0,0.0,0.0,0.0,0.0,0.0,0.0,0.0,0.0,0.0,0.0,0.0,0.0,0.0,0.0,0.0,0.0,0.0,0.0,0.0,0.0,0.0,0.0,0.0,0.0,0.0,0.0,0.0,0.0,0.0,0.0,0.0,0.0,0.0,0.0,0.0,0.0,0.0,0.0,0.0,0.0,0.0,0.0,0.0,0.0,0.0,0.0,0.0,0.0,0.0,0.0,0.0,0.0,0.0,0.0,0.0,0.0,0.0,0.0,0.0,0.0,0.0,0.0,0.0,0.0,0.0,0.0,0.0,0.0,0.0,0.0,0.0,0.0,3.2115,0.0,0.0,0.0,0.0,0.0,0.0,0.0,0.0,0.0,0.0,0.0,0.0,0.0,0.0,0.0,0.0,0.0,0.0,0.0,0.0,0.0,0.0,0.0,0.0,0.0,0.0,0.0,0.0,0.0,0.0,0.0,0.0,0.0,0.0,0.0,0.0,0.0,0.0,0.0,0.0,0.0,0.0,0.0,0.0,0.0,0.0,0.0,0.0,0.0,0.0,0.0,0.0,0.0,0.0,0.0,0.0,0.0,0.0,0.0,0.0,0.0,0.0,0.0,0.0,0.0,0.0,0.0,0.0,0.0,0.0,0.0,0.0,0.0,0.0,0.0,0.0,0.0,0.0,0.0,0.0,0.0,0.0,0.0,0.0,0.0,0.0,0.0,0.0,0.0,0.0,0.0,0.0,0.0,0.0,0.0,0.0,0.0,0.0,0.0,0.0,0.0,0.0,0.0,0.0,0.0,0.0,0.0,0.0,2.8917,2.9325,2.9374,3.016,3.0984,3.1806,3.1815,3.2423,3.3438,3.3591,0.0,0.0,0.0,0.0,0.0,0.0,0.0,0.0,0.0,0.0,0.0,0.0,0.0,0.0,0.0,0.0,0.0,0.0,0.0,0.0,0.0,0.0,0.0,0.0,0.0,0.0,0.0,0.0,0.0,0.0,0.0,0.0,0.0,0.0,0.0,0.0,0.0,0.0,2.3406,2.2875,2.2572,2.237,0.0,0.0,0.0,0.0,0.0,0.0,0.0,0.0,0.0,0.0,0.0,0.0,0.0,0.0,0.0,0.0,0.0,0.0,0.0,0.0,0.0,0.0,0.0,0.0,0.0,0.0,0.0,0.0,0.0,0.0,0.0,0.0,0.0,0.0,0.0,0.0,0.0,0.0,0.0,0.0,0.0,0.0,0.0,0.0,3.0138,3.0158,0.0,0.0,0.0,0.0,0.0,0.0,0.0,0.0,0.0,0.0,0.0,0.0,0.0,2.7814,2.7984,2.861,2.8933,2.8937,2.9817,3.0254,3.0325,3.0442,3.0975,3.1797,3.1863,0.0,3.4387,3.5146,0.0,0.0,0.0,0.0,0.0,0.0,0.0,0.0,0.0,0.0,0.0,0.0,0.0,0.0,0.0,0.0,0.0,0.0,0.0,0.0,0.0,0.0,0.0,0.0,0.0,0.0,0.0,0.0,0.0,0.0,0.0,0.0,0.0,0.0,0.0,0.0,2.3391,2.3391,2.3948,2.3231,2.2799,2.2586,2.2249,2.1609,2.072,2.0144,0.0,0.0,0.0,0.0,0.0,0.0,0.0,0.0,0.0,0.0,0.0,0.0,0.0,0.0,0.0,0.0,0.0,0.0,0.0,0.0,0.0,0.0,0.0,0.0,0.0,0.0,0.0,0.0,0.0,0.0,0.0,0.0,0.0,0.0,0.0,0.0,0.0,0.0,0.0,3.0259,3.0239,3.0301,2.9079,2.8401,0.0,0.0,0.0,0.0,0.0,0.0,0.0,0.0,0.0,2.7005,2.7005,2.7266,2.7781,2.8653,2.9091,2.9113,3.0015,3.0492,3.0554,3.0552,3.1052,3.1929,3.2466,3.3394,3.4581,3.4977,3.512,3.5178,0.0,0.0,0.0,0.0,3.6445,3.7201,0.0,0.0,0.0,0.0,0.0,0.0,0.0,0.0,0.0,0.0,0.0,0.0,0.0,0.0,0.0,2.5603,0.0,0.0,0.0,0.0,0.0,0.0,0.0,0.0,0.0,0.0,0.0,0.0,2.3822,2.3694,2.4184,2.3406,2.2889,2.2572,2.2328,2.1657,2.0683,2.0308,1.9734,0.0,0.0,0.0,0.0,0.0,0.0,0.0,0.0,0.0,0.0,0.0,0.0,0.0,0.0,0.0,0.0,0.0,0.0,0.0,0.0,0.0,0.0,0.0,0.0,0.0,0.0,0.0,0.0,0.0,0.0,0.0,0.0,0.0,0.0,0.0,0.0,0.0,0.0,3.0395,3.0289,3.0153,2.8984,2.8222,0.0,0.0,0.0,0.0,0.0,0.0,2.6541,2.65,2.6581,2.6833,2.7025,2.7473,2.8182,2.9042,2.9487,2.9516,3.0219,3.0583,3.0625,3.0625,3.1008,3.1687,3.2346,3.3122,3.3955,3.4637,3.4911,3.497,3.5645,3.5892,3.5878,3.5891,3.6455,3.7203,0.0,0.0,0.0,0.0,0.0,0.0,0.0,0.0,0.0,0.0,0.0,0.0,0.0,0.0,2.6052,2.6052,2.6419,2.6539,0.0,0.0,0.0,0.0,0.0,0.0,0.0,0.0,0.0,2.4863,2.4354,2.3964,2.3721,2.3187,2.2678,2.2217,2.1712,2.1471,2.1506,2.1131,2.0623,2.0131,0.0,0.0,0.0,0.0,0.0,0.0,0.0,0.0,0.0,0.0,0.0,0.0,0.0,0.0,0.0,0.0,0.0,0.0,0.0,0.0,0.0,0.0,0.0,0.0,0.0,0.0,0.0,0.0,0.0,0.0,0.0,0.0,0.0,0.0,0.0,0.0,0.0,0.0,0.0,2.955,2.9324,0.0,0.0,0.0,0.0,2.5573,2.5523,2.5891,2.6718,2.6717,2.7083,2.7997,2.8769,2.9175,2.9226,3.0095,3.0568,3.0613,3.0672,3.0689,3.069,3.068,3.0696,3.0675,3.0774,3.1288,3.2233,3.4724,3.5732,3.5763,3.5864,3.5852,3.5799,3.5872,3.645,3.72,0.0,0.0,0.0,0.0,0.0,0.0,0.0,0.0,0.0,0.0,0.0,0.0,0.0,2.6691,2.6875,2.6875,2.699,2.699,2.6792,0.0,0.0,0.0,0.0,0.0,0.0,0.0,2.5362,2.5052,2.4623,2.4395,2.4271,2.3937,2.3551,2.3083,2.3066,2.2684,2.2142,2.1643,2.1287,2.1069,2.1145,2.0668,0.0,0.0,0.0,0.0,0.0,0.0,0.0,0.0,0.0,0.0,0.0,0.0,0.0,0.0,0.0,0.0,0.0,0.0,0.0,0.0,0.0,0.0,0.0,0.0,0.0,0.0,0.0,0.0,0.0,0.0,0.0,0.0,0.0,0.0,0.0,0.0,0.0,2.9499,2.8877,0.0,2.7686,2.711,2.6868,2.7125,2.7133,2.7013,2.6752,2.7245,2.7437,2.7213,2.8027,2.8461,2.8456,2.9367,2.9835,2.9871,3.0427,3.0716,3.0758,3.0757,3.074,3.0781,3.1893,3.2538,3.2969,3.5018,3.5522,3.5089,3.5664,3.589,3.5864,3.5899,3.6472,3.7255,0.0,0.0,0.0,0.0,0.0,0.0,0.0,0.0,0.0,0.0,0.0,2.6824,2.7072,2.7341,2.7496,2.739,2.7465,2.7434,2.7293,0.0,0.0,0.0,0.0,0.0,0.0,2.5828,2.5642,2.5146,2.4974,2.4719,2.4508,2.4245,2.3994,2.3668,2.3538,2.3355,2.3159,2.2654,2.2047,2.1485,2.157,2.1053,2.0118,0.0,0.0,0.0,0.0,0.0,0.0,0.0,0.0,0.0,0.0,0.0,0.0,0.0,0.0,0.0,0.0,0.0,0.0,0.0,0.0,0.0,0.0,0.0,0.0,0.0,0.0,0.0,0.0,0.0,0.0,0.0,0.0,0.0,0.0,0.0,3.0283,2.9096,2.8718,2.8345,2.7741,2.7179,2.7204,2.8104,2.7908,2.7582,2.7256,2.7795,2.7832,2.7261,2.8084,2.8548,2.8548,2.9459,2.9881,2.988,3.0464,3.0761,3.0816,3.111,3.1221,3.1284,3.2719,3.3465,3.3799,3.4975,3.5274,3.5065,3.5663,3.5894,3.5908,3.5894,3.6285,3.6811,0.0,0.0,0.0,0.0,0.0,0.0,0.0,0.0,0.0,0.0,2.7369,2.7382,2.7345,2.773,2.7886,2.763,2.78,2.7869,2.7811,2.7382,0.0,0.0,0.0,0.0,2.5738,2.6043,2.5897,2.5294,2.5355,2.5029,2.4317,2.4063,2.3894,2.3797,2.3083,2.3414,2.4447,2.4025,2.2978,2.159,2.1694,2.1017,2.0042,0.0,0.0,0.0,0.0,0.0,0.0,0.0,0.0,0.0,0.0,0.0,0.0,0.0,0.0,0.0,0.0,0.0,0.0,0.0,0.0,0.0,0.0,0.0,0.0,0.0,0.0,0.0,0.0,0.0,0.0,0.0,0.0,0.0,3.0703,3.0767,3.0126,2.831,2.893,2.8838,2.7105,2.6948,2.7336,2.8261,2.7524,2.7407,2.8257,2.8336,2.8336,2.8336,2.9196,2.9645,2.9643,3.0474,3.088,3.0841,3.0836,3.0846,3.0915,3.1763,3.2109,3.2102,3.3035,3.3848,3.4518,3.4608,3.5093,3.5803,3.5868,3.5891,3.591,3.5896,3.589,3.5898,0.0,0.0,0.0,0.0,0.0,0.0,0.0,0.0,0.0,0.0,2.7612,2.7742,2.7869,2.801,2.8047,2.7982,2.7954,2.7897,2.7742,0.0,0.0,0.0,0.0,0.0,2.6079,2.6079,2.5844,2.5378,2.5378,2.5185,2.4806,2.4775,2.4614,2.4307,2.4351,2.4357,2.4341,2.4481,2.3944,2.2902,2.263,2.1629,2.036,0.0,0.0,0.0,0.0,0.0,0.0,0.0,0.0,0.0,0.0,0.0,0.0,0.0,0.0,0.0,0.0,0.0,0.0,0.0,0.0,0.0,0.0,0.0,0.0,0.0,0.0,0.0,0.0,0.0,0.0,0.0,0.0,3.0774,3.0774,3.0793,3.0167,2.8444,2.8995,2.9079,2.8026,2.7929,2.8281,2.9174,2.8442,2.8051,2.8297,2.8896,2.9248,2.9233,3.0087,3.0533,3.0533,3.0782,3.1172,3.1738,3.1738,3.2062,3.2693,3.2927,3.3021,3.3052,3.3901,3.4408,3.469,3.5279,3.5671,3.5866,3.589,3.5869,3.5834,3.5888,3.5877,3.5825,0.0,0.0,0.0,0.0,0.0,0.0,0.0,0.0,0.0,0.0,2.7811,2.8037,2.8166,2.8316,2.8394,2.8316,2.8281,2.8219,2.8219,0.0,0.0,0.0,0.0,2.6906,2.633,2.6367,2.6085,2.553,2.553,2.5416,2.5162,2.5052,2.4934,2.4742,2.4802,2.468,2.4507,2.4617,2.4269,2.3626,2.3344,2.2469,2.1315,2.098,2.1126,2.1583,2.1636,2.2335,2.3274,2.3288,0.0,0.0,0.0,0.0,0.0,0.0,0.0,0.0,0.0,0.0,0.0,0.0,0.0,0.0,0.0,0.0,0.0,0.0,0.0,0.0,0.0,0.0,0.0,0.0,3.0762,3.0915,3.1257,3.1013,3.0448,2.9462,2.9763,2.9859,2.9386,2.9016,2.9166,3.0038,2.9308,2.8957,2.9322,2.9821,3.0091,3.0099,3.0955,3.1401,3.1401,3.1404,3.1814,3.2631,3.228,3.2563,3.3403,3.3778,3.3921,3.394,3.4783,3.5148,3.521,3.5678,3.5833,0.0,0.0,0.0,0.0,0.0,3.587,3.5845,0.0,0.0,0.0,0.0,0.0,0.0,0.0,0.0,0.0,0.0,0.0,2.8264,2.8376,2.8707,2.8845,2.867,2.8651,2.8712,0.0,0.0,0.0,2.7439,2.7624,2.7396,2.6623,2.6855,2.659,2.5868,2.5832,2.5721,2.5551,2.5214,2.5098,2.513,2.4791,2.4709,2.4758,2.4627,2.4294,2.3898,2.3797,2.3286,2.2551,2.204,2.2145,2.2526,2.2566,2.2995,2.3537,2.3375,0.0,0.0,0.0,0.0,0.0,0.0,0.0,0.0,0.0,0.0,0.0,0.0,0.0,0.0,0.0,0.0,0.0,0.0,0.0,0.0,0.0,0.0,0.0,0.0,3.0914,3.123,3.2035,3.1527,3.1047,3.0948,3.1016,3.1044,3.0942,3.0311,3.0239,3.1024,3.0377,3.0279,3.1047,0.0,0.0,0.0,0.0,3.2251,3.2251,3.2241,3.269,3.3539,3.2752,3.2838,3.3717,3.4477,3.4783,3.4787,3.5543,3.5852,3.5791,3.5811,3.5754,3.5698,3.5826,3.5879,3.588,3.5869,3.5873,3.5884,0.0,0.0,0.0,0.0,0.0,0.0,0.0,0.0,0.0,2.7833,2.8066,2.8402,2.8962,2.9112,2.9134,2.9093,2.8934,2.8858,0.0,0.0,2.8352,2.8112,2.8029,2.7776,2.7255,2.733,2.7189,2.6757,2.669,2.6573,2.6352,2.623,2.598,2.5572,2.5572,2.5217,2.4642,2.4696,2.4582,2.4334,2.3817,2.3287,2.2765,2.2616,2.2904,2.3378,2.3565,2.4368,2.5321,2.4786,2.5449,2.6385,2.5724,0.0,0.0,0.0,0.0,0.0,0.0,0.0,0.0,0.0,0.0,0.0,0.0,0.0,0.0,0.0,0.0,0.0,0.0,0.0,0.0,3.1718,3.1848,3.2133,3.2942,3.2869,3.25,3.1857,3.238,3.2536,3.1845,3.2252,3.2625,3.2795,3.2669,3.2659,3.2888,3.2907,3.2892,3.29,3.306,3.3158,3.3158,3.3142,3.359,3.4449,0.0,0.0,3.5424,3.5535,3.5573,3.5589,3.5741,3.5813,3.5794,3.5799,3.5728,3.5618,3.5708,3.5747,3.5735,3.5732,3.5732,3.5724,0.0,0.0,0.0,0.0,0.0,0.0,0.0,0.0,0.0,0.0,2.8228,2.8646,2.9222,2.924,2.92,2.92,2.9044,0.0,0.0,2.8834,2.89,2.9196,2.9137,2.9062,2.8995,2.8594,2.8205,2.7837,2.7365,2.6985,2.6788,2.6723,2.642,2.5888,2.5815,2.5422,2.4782,2.4724,2.462,2.4477,2.428,2.4259,2.4323,2.3543,2.3688,2.4306,2.4446,2.5108,2.585,2.5512,2.6102,2.6925,2.6572,2.6723,2.7095,0.0,0.0,0.0,0.0,0.0,0.0,0.0,0.0,0.0,0.0,0.0,0.0,0.0,0.0,3.1334,0.0,0.0,3.2184,3.2628,3.2693,3.2989,3.3841,3.3926,3.3731,3.3303,3.364,3.3738,3.3296,3.3686,3.3768,3.3334,3.3301,3.3307,3.3356,3.3345,3.337,3.3395,3.3784,3.3994,3.4009,3.4004,3.4637,3.5897,3.5424,3.5869,3.7102,3.7067,3.7033,3.6997,3.7007,3.6949,3.689,3.6895,3.688,3.6856,3.6887,3.6411,3.5747,3.6193,3.6337,3.6355,0.0,0.0,0.0,0.0,0.0,0.0,0.0,0.0,0.0,0.0,2.8314,2.8761,2.9326,2.9283,2.9218,0.0,0.0,0.0,0.0,2.9407,2.9774,3.0369,3.0363,3.0462,3.0692,3.0024,2.9515,2.9165,2.8198,2.7648,2.7508,2.7244,2.6855,2.6386,2.6212,2.5799,2.5169,2.4958,2.4772,2.4594,2.477,2.5297,2.5874,2.4575,2.4614,2.5366,2.5449,2.5788,2.6201,2.6013,2.664,2.748,2.7573,2.7864,2.8191,2.8396,2.8533,0.0,0.0,0.0,0.0,0.0,0.0,0.0,0.0,0.0,3.0675,3.0826,3.161,3.2257,3.2243,3.2827,3.336,3.354,3.3568,3.3854,3.4718,3.4847,3.4807,3.475,3.4758,3.4738,3.4746,3.4802,3.4542,3.3842,3.3784,3.3784,3.379,3.379,3.3816,3.3866,3.4639,3.5055,3.5042,3.5196,3.5951,3.7286,3.6581,3.6929,3.8229,3.8239,3.8208,3.8164,3.8175,3.8129,3.8015,3.8007,3.8122,3.8309,3.8309,3.763,3.6679,3.7251,3.7402,3.7436,0.0,0.0,0.0,0.0,0.0,0.0,0.0,0.0,0.0,0.0,0.0,0.0,0.0,0.0,0.0,0.0,0.0,0.0,3.0249,3.0914,3.1357,3.1431,3.1311,3.1224,3.1136,3.1097,3.099,3.0849,2.9836,2.9358,2.9395,2.8411,2.7771,2.7417,2.7417,2.6836,2.5895,2.5859,2.5497,2.4957,2.4957,2.5406,2.5983,2.5612,2.5972,2.6704,2.67,2.7007,2.731,2.6776,2.7429,2.8464,2.8662,2.9023,2.9449,2.9583,0.0,2.9855,2.9304,2.9476,2.9861,3.0075,3.0251,3.0384,0.0,0.0,3.1792,3.1755,3.2499,3.3151,3.3159,3.3238,3.3565,3.4406,3.4491,3.475,3.5632,3.5696,3.5655,3.5667,3.5648,3.564,3.5643,3.5671,3.5624,3.553,3.5521,3.551,3.5516,3.5516,3.5516,3.5535,3.625,3.6639,3.6629,3.7353,3.7804,3.7998,3.7829,3.7848,3.8035,3.8026,3.8036,3.8036,3.8086,3.8099,3.8086,3.8007,3.8426,3.9077,3.908,3.9388,3.9804,3.9264,3.8965,3.8885,0.0,0.0,0.0,0.0,0.0,0.0,0.0,0.0,0.0,0.0,0.0,0.0,0.0,0.0,0.0,0.0,0.0,0.0,3.1306,3.1641,3.2032,3.2451,3.2423,3.2526,3.2812,3.2353,3.2089,3.203,3.1052,3.0566,3.0495,3.0026,2.9551,2.9147,2.8611,2.7935,2.7182,2.6902,2.6419,2.5911,2.6188,2.666,2.7098,2.7159,2.747,2.7828,2.6971,2.7046,0.0,0.0,2.7679,2.8382,2.8507,2.8793,2.908,2.913,2.9444,0.0,2.9681,2.9893,0.0,0.0,3.073,3.1263,3.1255,3.2027,3.2753,3.2726,3.3422,3.4062,3.4062,3.4443,3.4878,0.0,3.5327,3.5422,3.5784,3.5815,3.5807,3.5807,3.5807,3.5807,3.5795,3.5795,3.5807,3.5803,3.5803,3.5784,3.5736,3.6193,3.6444,3.6445,3.7188,3.7588,3.7544,3.7868,3.8273,3.8733,3.8705,3.896,3.9456,3.9446,3.9435,3.9423,3.9925,4.0156,4.0226,4.0619,4.1025,4.1353,4.1353,4.1529,4.1703,4.0965,4.0655,4.0622,0.0,0.0,0.0,0.0,0.0,0.0,0.0,0.0,0.0,0.0,0.0,0.0,0.0,0.0,0.0,0.0,0.0,0.0,0.0,3.2561,3.2954,3.3489,3.3508,3.3697,3.408,3.3457,3.3112,3.3061,3.2125,3.162,3.155,3.1253,3.093,3.055,2.9883,2.929,2.8731,2.8339,2.7879,2.7434,2.7809,2.827,2.8716,2.8758,2.8914,2.8952,2.7583,2.7362,0.0,0.0,2.7971,2.8398,2.8719,2.8966,2.9195,2.9242,2.9384,2.9606,2.9984,0.0,0.0,3.0648,3.1467,3.2264,3.2161,3.2924,3.3653,3.3665,3.4344,3.4936,3.4959,3.5398,3.5788,3.5795,3.5799,3.5879,3.6066,3.59,3.5851,3.6047,3.5872,3.5745,3.5735,3.5743,3.5823,3.6028,3.6047,3.6133,3.6325,3.6887,3.7204,3.7197,3.7964,3.8353,3.8291,3.8493,3.8888,3.9438,3.9438,3.978,4.0411,4.0641,4.0852,4.1085,4.1665,4.1971,4.2083,4.2584,4.2967,4.3216,4.3197,4.3312,4.3425,4.2891,4.2391,4.1971,0.0,0.0,0.0,0.0,0.0,0.0,0.0,0.0,0.0,0.0,0.0,0.0,0.0,0.0,0.0,0.0,0.0,0.0,0.0,3.4011,3.4526,3.4545,3.4545,3.4476,3.4293,3.4274,3.416,3.3961,3.3022,3.2617,3.2724,3.1814,3.1391,3.1366,3.1329,3.0992,3.0415,3.0415,3.0074,2.9595,2.9612,3.0051,3.0677,3.0366,3.0206,3.0034,2.9,0.0,0.0,0.0,2.8507,2.8828,2.9752,3.024,0.0,3.0592,3.0264,0.0,0.0,0.0,3.1671,3.1745,3.2513,3.3259,3.3245,3.3935,3.4564,3.4564,3.5194,3.5784,3.5857,3.5772,3.5726,3.5787,3.5807,3.6047,3.6775,3.6193,3.5979,3.669,3.6091,3.5607,0.0,3.5615,3.5902,3.6633,3.6677,3.7043,3.7896,3.7954,3.7978,3.7954,3.8684,3.904,3.8967,3.9738,4.01,4.0059,4.0059,4.0078,4.0136,4.0996,4.1857,4.2718,4.2757,4.2795,4.2851,4.2814,4.3293,4.4077,4.3999,4.4475,4.522,4.5182,4.4111,4.2676,0.0,0.0,0.0,0.0,0.0,0.0,0.0,0.0,0.0,0.0,0.0,0.0,0.0,0.0,0.0,0.0,0.0,0.0,0.0,3.4411,3.4645,3.4727,3.4812,3.4753,3.4495,3.4659,3.4639,3.4404,3.4139,3.3967,3.3929,3.3515,3.3314,3.3295,3.2667,3.2287,3.2049,3.1608,3.1217,3.0849,3.0969,3.1041,3.1042,3.0938,3.0885,3.0758,0.0,0.0,0.0,0.0,0.0,0.0,2.9511,0.0,0.0,3.0369,0.0,0.0,0.0,0.0,3.2609,3.2817,3.3531,3.4335,3.4956,3.5321,3.5681,3.6274,3.6109,3.5864,3.5899,3.5787,3.5708,3.5736,3.6144,3.6361,3.6071,3.6226,3.6267,3.5977,3.6119,0.0,0.0,0.0,0.0,3.6754,3.7252,3.7647,3.7855,3.8361,3.8637,3.8607,3.9356,3.9738,3.9719,4.0004,4.0137,4.0117,4.0689,4.1282,4.1894,4.2202,4.2489,4.2833,4.3407,4.3675,4.3752,4.4248,4.4609,4.4836,4.4815,4.4965,4.5235,4.5235,4.4529,4.3576,0.0,0.0,0.0,0.0,0.0,0.0,0.0,0.0,0.0,0.0,0.0,0.0,0.0,0.0,0.0,0.0,0.0,0.0,0.0,0.0,3.487,3.5,3.5102,3.5049,3.4813,3.4971,3.4971,3.4736,3.4756,3.4696,3.463,3.4498,3.4427,3.4367,3.3757,3.3464,3.3375,3.29,3.258,3.2416,3.2511,3.2447,3.2243,3.1973,3.1679,0.0,0.0,0.0,0.0,0.0,0.0,0.0,0.0,0.0,0.0,0.0,0.0,0.0,0.0,3.3431,3.4151,3.4672,3.5186,3.5724,3.6333,3.6223,3.6169,3.6717,3.6316,3.5851,3.5852,3.5735,3.5723,3.601,3.6207,3.635,3.6388,3.6551,3.6565,3.6285,3.6664,3.6941,0.0,0.0,0.0,3.7498,3.7983,3.8391,3.8607,3.9107,3.9357,3.9337,3.9831,4.0096,4.0057,4.0361,4.0665,4.0929,4.1525,4.2271,4.3191,4.3174,4.3348,4.3713,4.4166,4.4435,4.4554,4.4985,4.517,4.517,4.5125,4.5122,4.5122,4.5167,4.5094,4.4906,0.0,0.0,0.0,0.0,0.0,0.0,0.0,0.0,0.0,0.0,0.0,0.0,0.0,0.0,0.0,0.0,0.0,0.0,0.0,0.0,0.0,3.5378,3.5405,3.5359,3.5215,3.523,3.5181,3.5015,3.4884,3.4869,3.4925,3.4772,3.4687,3.4626,3.4539,3.445,3.4293,3.4173,3.4148,3.4197,3.4124,3.4148,3.4128,3.3444,0.0,0.0,0.0,0.0,0.0,0.0,0.0,0.0,0.0,0.0,0.0,0.0,0.0,3.2323,3.4225,3.5369,3.6226,3.7086,3.7295,3.7309,3.7301,3.666,3.6074,3.6074,3.5962,3.586,0.0,0.0,3.5753,3.651,3.6042,3.6065,3.7546,3.7108,3.6903,0.0,0.0,0.0,0.0,0.0,0.0,3.886,0.0,3.9221,4.0039,4.0077,4.0077,4.0057,4.0152,4.0169,4.0108,4.0962,4.1794,4.2526,4.2534,4.3038,4.3961,4.3893,4.4379,4.5275,4.4991,4.5057,4.5256,4.4991,4.4986,4.508,4.5,4.5009,4.5071,4.5171,4.5917,4.6578,0.0,0.0,0.0,0.0,0.0,0.0,0.0,0.0,0.0,0.0,0.0,0.0,0.0,0.0,0.0,0.0,0.0,0.0,0.0,0.0,0.0,0.0,0.0,0.0,0.0,0.0,0.0,0.0,0.0,3.5348,3.5273,3.5086,3.4982,3.4963,3.481,3.4645,3.4517,3.4363,3.4269,3.4197,0.0,3.4203,3.4334,0.0,0.0,0.0,0.0,0.0,0.0,0.0,0.0,0.0,0.0,0.0,3.1718,0.0,0.0,3.4958,3.6255,3.717,3.7689,3.7379,3.73,3.7303,3.7304,3.7127,3.6964,3.696,3.6821,3.6506,0.0,0.0,0.0,3.5772,3.6089,0.0,3.6846,3.7156,0.0,0.0,0.0,3.8478,3.8498,3.9096,0.0,0.0,3.9652,3.9808,3.987,3.9889,3.9804,3.9647,4.092,4.158,4.1561,4.2497,4.3353,4.4178,4.3615,4.3772,4.464,4.4616,4.4754,4.501,4.4919,4.4967,4.508,4.4991,4.4986,4.5019,4.5689,4.593,4.5981,4.6643,4.7091,4.7267,0.0,0.0,0.0,0.0,0.0,0.0,0.0,0.0,0.0,0.0,0.0,0.0,0.0,0.0,0.0,0.0,0.0,0.0,0.0,0.0,0.0,0.0,0.0,0.0,0.0,0.0,0.0,0.0,0.0,0.0,0.0,3.5302,3.5203,3.5141,3.5001,3.4869,3.4708,0.0,0.0,0.0,0.0,0.0,0.0,0.0,0.0,0.0,0.0,0.0,0.0,0.0,0.0,3.1071,3.2017,3.2339,3.2665,3.416,0.0,3.5522,3.6916,3.7601,3.7903,3.7883,3.7576,3.7309,3.7294,3.6994,3.6729,3.6726,3.6829,0.0,0.0,0.0,0.0,0.0,0.0,0.0,3.7519,3.7889,3.808,0.0,3.8698,0.0,3.9123,3.9406,3.9623,0.0,3.9781,3.9781,3.967,4.0071,4.0382,4.0622,4.1989,4.2888,4.3246,4.3359,4.3856,4.4745,4.4291,4.4336,4.4865,4.484,4.4846,4.4919,0.0,4.5098,4.5627,4.5488,4.5647,4.6013,4.6234,4.6606,4.708,4.758,4.8099,4.8504,0.0,0.0,0.0,0.0,0.0,0.0,0.0,0.0,0.0,0.0,0.0,0.0,0.0,0.0,0.0,0.0,0.0,0.0,0.0,0.0,0.0,0.0,0.0,0.0,0.0,0.0,0.0,0.0,0.0,0.0,0.0,0.0,0.0,0.0,0.0,0.0,0.0,0.0,0.0,0.0,0.0,0.0,0.0,0.0,0.0,0.0,0.0,0.0,0.0,0.0,3.2582,3.2044,3.2986,3.3277,3.3538,3.4759,3.5119,3.5525,3.7323,3.7791,3.7922,3.8457,3.8024,3.7405,3.7171,3.6703,3.6289,3.6143,0.0,3.7076,3.6948,0.0,3.7832,3.8518,0.0,3.7871,3.8687,3.8782,3.876,3.8659,3.9278,3.9647,3.9551,3.9714,3.9865,3.9914,4.0052,4.0065,3.984,4.0722,4.1625,4.2547,4.3258,4.4056,4.4979,4.4078,4.3995,4.481,4.4716,4.4712,4.477,4.4719,4.4871,4.5114,4.4881,0.0,4.6502,4.6278,4.6641,4.7333,4.6795,4.7221,4.8153,4.828,4.8988,4.9776,0.0,0.0,0.0,0.0,0.0,0.0,0.0,0.0,0.0,0.0,0.0,0.0,0.0,0.0,0.0,0.0,0.0,0.0,0.0,0.0,0.0,0.0,0.0,0.0,0.0,0.0,0.0,0.0,0.0,0.0,0.0,0.0,0.0,0.0,0.0,0.0,0.0,0.0,0.0,0.0,0.0,0.0,0.0,0.0,0.0,0.0,0.0,0.0,0.0,0.0,3.3612,3.3022,3.3896,3.4256,3.48,3.714,3.7851,3.828,3.9984,4.0435,4.0125,3.8834,3.8401,3.7922,3.6543,3.7141,0.0,0.0,0.0,3.8537,3.7709,3.7577,0.0,3.7794,0.0,0.0,0.0,0.0,3.8839,0.0,0.0,0.0,0.0,0.0,0.0,0.0,0.0,4.2903,4.1623,4.2401,4.3538,4.4936,4.4515,4.4983,4.6502,4.5629,4.5302,4.5434,4.4834,4.4551,4.4632,4.4685,4.5115,4.5821,4.5768,0.0,4.7136,4.7084,4.7159,4.7375,4.7964,4.8277,4.8428,4.9155,4.9561,4.9731,0.0,0.0,0.0,0.0,0.0,0.0,0.0,0.0,0.0,0.0,0.0,0.0,0.0,0.0,0.0,0.0,0.0,0.0,0.0,0.0,0.0,0.0,0.0,0.0,0.0,0.0,0.0,0.0,0.0,0.0,0.0,0.0,0.0,0.0,0.0,0.0,0.0,0.0,0.0,0.0,0.0,0.0,0.0,0.0,0.0,0.0,0.0,0.0,0.0,0.0,3.6203,3.5864,3.5855,3.6196,3.6833,3.8123,3.8525,3.8711,3.9526,3.9433,3.8931,3.8073,3.7513,3.7049,3.6707,0.0,0.0,0.0,0.0,3.9037,3.8574,0.0,0.0,0.0,0.0,0.0,0.0,0.0,0.0,0.0,0.0,0.0,0.0,0.0,0.0,0.0,0.0,4.3568,4.3231,4.4027,4.4852,4.5621,4.5265,4.5452,4.6218,4.5394,4.4963,4.4963,4.4655,4.4542,4.4624,4.5138,4.5625,4.6067,4.6482,0.0,4.8026,4.8026,4.8245,4.8634,4.9069,4.9145,4.9126,4.9599,4.975,4.975,0.0,0.0,0.0,0.0,0.0,0.0,0.0,0.0,0.0,0.0,0.0,0.0,0.0,0.0,0.0,0.0,0.0,0.0,0.0,0.0,0.0,0.0,0.0,0.0,0.0,0.0,0.0,0.0,0.0,0.0,0.0,0.0,0.0,0.0,0.0,0.0,0.0,0.0,0.0,0.0,0.0,0.0,0.0,0.0,0.0,0.0,0.0,0.0,0.0,0.0,3.8497,3.858,3.7968,3.8066,3.8496,3.8712,3.877,3.8786,3.8772,3.8318,3.7792,3.7598,3.6994,3.6637,3.7293,3.7598,0.0,0.0,0.0,0.0,0.0,0.0,0.0,0.0,0.0,0.0,0.0,0.0,0.0,0.0,0.0,0.0,0.0,0.0,0.0,0.0,0.0,0.0,4.4579,4.5244,4.5659,4.5697,4.5528,4.5425,4.5338,4.4701,4.4383,4.4383,4.4655,4.4814,4.4934,4.5863,4.6433,4.6694,4.7318,0.0,0.0,4.8951,4.9303,4.9807,4.9807,4.975,4.9692,4.975,4.9778,4.9797,0.0,0.0,0.0,0.0,0.0,0.0,0.0,0.0,0.0,0.0,0.0,0.0,0.0,0.0,0.0,0.0,0.0,0.0,0.0,0.0,0.0,0.0,0.0,0.0,0.0,0.0,0.0,0.0,0.0,0.0,0.0,0.0,0.0,0.0,0.0,0.0,0.0,0.0,0.0,0.0,0.0,0.0,0.0,0.0,0.0,0.0,0.0,0.0,0.0,0.0,0.0,3.9664,3.9583,3.9111,3.8733,3.9451,0.0,0.0,3.9682,3.9627,3.9376,3.8597,3.8312,3.828,3.8291,0.0,0.0,0.0,0.0,0.0,0.0,0.0,0.0,0.0,0.0,0.0,0.0,0.0,0.0,0.0,0.0,0.0,0.0,0.0,0.0,0.0,0.0,0.0,4.5631,4.566,4.5697,4.5697,4.5003,4.4599,4.4524,4.4449,4.4383,4.443,4.5256,4.5743,4.59,4.6845,4.7719,4.8477,4.8534,0.0,0.0,4.9784,4.9795,4.9807,4.9807,4.975,4.9692,4.9692,4.9721,4.9816,0.0,0.0,0.0,0.0,0.0,0.0,0.0,0.0,0.0,0.0,0.0,0.0,0.0,0.0,0.0,0.0,0.0,0.0,0.0,0.0,0.0,0.0,0.0,0.0,0.0,0.0,0.0,0.0,0.0,0.0,0.0,0.0,0.0,0.0,0.0,0.0,0.0,0.0,0.0,0.0,0.0,0.0,0.0,0.0,0.0,0.0,0.0,0.0,0.0,0.0,0.0,0.0,4.0515,4.0304,0.0,0.0,4.0524,4.0518,4.0524,4.015,3.9656,3.9305,3.8831,3.8571,3.9074,0.0,0.0,0.0,0.0,4.0191,4.0024,0.0,0.0,0.0,0.0,0.0,0.0,0.0,0.0,0.0,0.0,0.0,0.0,0.0,0.0,0.0,0.0,0.0,4.5021,4.5367,4.5405,4.5003,4.4684,4.4487,4.4383,4.4927,4.5181,4.52,4.6168,4.6693,4.6811,4.7768,4.8363,4.8723,4.9197,0.0,0.0,4.9898,4.9871,4.9807,4.9807,5.0033,5.0409,5.0468,5.0789,5.1328,0.0,0.0,0.0,0.0,0.0,0.0,0.0,0.0,0.0,0.0,0.0,0.0,0.0,0.0,0.0,0.0,0.0,0.0,0.0,0.0,0.0,0.0,0.0,0.0,0.0,0.0,0.0,0.0,0.0,0.0,0.0,0.0,0.0,0.0,0.0,0.0,0.0,0.0,0.0,0.0,0.0,0.0,0.0,0.0,0.0,0.0,0.0,0.0,0.0,0.0,0.0,0.0,0.0,0.0,0.0,0.0,4.1007,4.0948,4.0695,3.9974,3.9381,3.9634,3.9042,3.8685,0.0,0.0,0.0,4.05,4.0335,4.0099,3.9966,3.9872,4.0059,4.0703,0.0,4.1732,0.0,0.0,0.0,0.0,0.0,0.0,0.0,0.0,0.0,0.0,0.0,0.0,4.4344,4.499,4.5107,4.4505,4.474,4.4824,4.4796,4.566,4.6102,4.612,4.7137,4.7643,4.7708,4.864,4.9045,4.9083,4.9633,0.0,0.0,4.9898,5.0003,5.0166,5.0213,5.0676,5.1318,5.1376,5.1802,5.238,0.0,0.0,0.0,0.0,0.0,0.0,0.0,0.0,0.0,0.0,0.0,0.0,0.0,0.0,0.0,0.0,0.0,0.0,0.0,0.0,0.0,0.0,0.0,0.0,0.0,0.0,0.0,0.0,0.0,0.0,0.0,0.0,0.0,0.0,0.0,0.0,0.0,0.0,0.0,0.0,0.0,0.0,0.0,0.0,0.0,0.0,0.0,0.0,0.0,0.0,0.0,0.0,0.0,0.0,0.0,0.0,4.1,4.0818,3.9955,3.9078,3.8622,3.9478,3.9035,3.8835,0.0,0.0,0.0,4.0538,4.0221,3.9946,3.984,4.0282,4.0701,0.0,0.0,0.0,0.0,0.0,0.0,0.0,0.0,0.0,0.0,0.0,0.0,0.0,0.0,0.0,4.3934,4.4675,4.4922,4.4505,4.5266,4.5697,4.5697,4.661,4.7099,4.7118,4.8107,4.8605,4.8624,4.9492,4.9879,4.9879,0.0,0.0,0.0,4.9898,5.0344,5.0998,5.114,5.1642,5.2284,5.2371,5.24,5.2532,0.0,0.0,0.0,0.0,0.0,0.0,0.0,0.0,0.0,0.0,0.0,0.0,0.0,0.0,0.0,0.0,0.0,0.0,0.0,0.0,0.0,0.0,0.0,0.0,0.0,0.0,0.0,0.0,0.0,0.0,0.0,0.0,0.0,0.0,0.0,0.0,0.0,0.0,0.0,0.0,0.0,0.0,0.0,0.0,0.0,0.0,0.0,0.0,0.0,0.0,0.0,0.0,0.0,0.0,0.0,0.0,0.0,0.0,4.0661,3.9949,3.9488,4.0304,3.9896,3.9567,4.0597,0.0,4.0571,4.0462,4.0063,3.9905,4.0507,4.0509,4.084,4.209,0.0,0.0,0.0,0.0,0.0,0.0,0.0,0.0,0.0,0.0,0.0,0.0,0.0,0.0,4.5003,4.5749,4.5886,4.5185,4.6012,4.6454,4.6454,4.7387,4.7889,4.8004,4.8928,4.9409,4.9492,4.9765,4.9898,0.0,0.0,0.0,0.0,5.0542,5.0913,5.1216,5.1784,5.2523,5.3261,5.329,5.365,5.4238,0.0,0.0,0.0,0.0,0.0,0.0,0.0,0.0,0.0,0.0,0.0,0.0,0.0,0.0,0.0,0.0,0.0,0.0,0.0,0.0,0.0,0.0,0.0,0.0,0.0,0.0,0.0,0.0,0.0,0.0,0.0,0.0,0.0,0.0,0.0,0.0,0.0,0.0,0.0,0.0,0.0,0.0,0.0,0.0,0.0,0.0,0.0,0.0,0.0,0.0,0.0,0.0,0.0,0.0,0.0,0.0,0.0,0.0,0.0,4.0332,3.9887,4.0704,4.0277,0.0,0.0,0.0,4.0569,4.0686,4.042,4.0377,4.1142,4.1241,4.1619,4.2818,0.0,0.0,0.0,0.0,0.0,0.0,0.0,0.0,0.0,0.0,0.0,0.0,0.0,0.0,4.5773,4.6871,4.7276,4.6805,4.7367,4.7841,4.8159,4.9096,4.9464,4.9313,4.987,5.0062,4.9898,4.9898,4.9898,0.0,0.0,0.0,0.0,5.13,5.185,5.2191,5.2703,5.3423,5.4143,5.4143,5.4465,5.4977,0.0,0.0,0.0,0.0,0.0,0.0,0.0,0.0,0.0,0.0,0.0,0.0,0.0,0.0,0.0,0.0,0.0,0.0,0.0,0.0,0.0,0.0,0.0,0.0,0.0,0.0,0.0,0.0,0.0,0.0,0.0,0.0,0.0,0.0,0.0,0.0,0.0,0.0,0.0,0.0,0.0,0.0,0.0,0.0,0.0,0.0,0.0,0.0,0.0,0.0,0.0,0.0,0.0,0.0,0.0,0.0,0.0,0.0,0.0,0.0,0.0,0.0,0.0,0.0,0.0,0.0,0.0,4.1245,4.1228,4.1326,4.1745,4.2355,4.2895,4.3106,0.0,0.0,0.0,0.0,0.0,0.0,0.0,0.0,0.0,0.0,0.0,0.0,0.0,0.0,4.6434,4.8064,4.9061,4.9169,4.9325,4.978,5.0471,5.1301,5.1415,5.0861,5.0821,5.0505,4.9974,4.9917,4.9917,0.0,0.0,0.0,0.0,5.2172,5.2968,5.3707,5.3764,5.4238,5.4901,5.4901,5.4901,5.492,0.0,0.0,0.0,0.0,0.0,0.0,0.0,0.0,0.0,0.0,0.0,0.0,0.0,0.0,0.0,0.0,0.0,0.0,0.0,0.0,0.0,0.0,0.0,0.0,0.0,0.0,0.0,0.0,0.0,0.0,0.0,0.0,0.0,0.0,0.0,0.0,0.0,0.0,0.0,0.0,0.0,0.0,0.0,0.0,0.0,0.0,4.1011,0.0,0.0,0.0,0.0,0.0,0.0,0.0,0.0,0.0,4.0908,0.0,0.0,0.0,0.0,0.0,0.0,0.0,0.0,0.0,0.0,0.0,0.0,4.217,4.2874,4.2913,4.3206,0.0,0.0,0.0,0.0,0.0,0.0,0.0,0.0,0.0,0.0,0.0,0.0,0.0,0.0,4.806,4.828,4.9876,5.1064,5.1714,5.1787,5.1636,5.1244,5.0882,5.1002,5.1532,5.0271,5.0033,5.0656,5.0033,5.0166,0.0,0.0,0.0,5.2191,5.3044,5.3518,5.3764,5.4389,5.4731,5.4901,5.4901,5.4901,5.4996,0.0,0.0,0.0,0.0,0.0,0.0,0.0,0.0,0.0,0.0,0.0,0.0,0.0,0.0,0.0,0.0,0.0,0.0,0.0,0.0,0.0,0.0,0.0,0.0,0.0,0.0,0.0,0.0,0.0,0.0,0.0,0.0,0.0,0.0,0.0,0.0,0.0,0.0,0.0,0.0,0.0,0.0,0.0,0.0,0.0,0.0,4.1014,4.0994,0.0,4.0994,4.0988,4.0941,0.0,0.0,0.0,0.0,4.0877,0.0,0.0,0.0,0.0,0.0,0.0,0.0,0.0,0.0,0.0,0.0,0.0,0.0,4.3531,0.0,0.0,0.0,0.0,0.0,0.0,0.0,0.0,0.0,0.0,0.0,0.0,0.0,0.0,0.0,0.0,4.9243,5.0005,5.1268,5.2159,5.2587,5.2958,5.2977,5.2568,5.1767,5.15,5.1694,5.0403,5.0159,5.076,5.0308,5.0809,0.0,0.0,0.0,5.3937,5.4786,5.4963,5.4742,5.5177,5.5182,5.4901,5.4901,5.4901,5.4977,0.0,0.0,0.0,0.0,0.0,0.0,0.0,0.0,0.0,0.0,0.0,0.0,0.0,0.0,0.0,0.0,0.0,0.0,0.0,0.0,0.0,0.0,0.0,0.0,0.0,0.0,0.0,0.0,0.0,0.0,0.0,0.0,0.0,0.0,0.0,0.0,0.0,0.0,0.0,0.0,0.0,0.0,0.0,0.0,0.0,0.0,0.0,0.0,0.0,4.0994,4.096,4.0896,4.0897,0.0,0.0,0.0,0.0,0.0,0.0,0.0,0.0,0.0,0.0,0.0,0.0,0.0,0.0,0.0,0.0,0.0,0.0,0.0,0.0,0.0,0.0,0.0,0.0,0.0,0.0,0.0,0.0,0.0,0.0,0.0,0.0,0.0,0.0,4.9707,5.1138,5.1974,5.2419,5.2419,5.3088,5.3441,5.3441,5.2754,5.2121,5.1572,5.0751,5.0557,5.0946,5.0946,5.1865,5.353,0.0,0.0,5.5838,5.6418,5.6353,5.5899,5.5799,5.5404,5.4901,5.4901,5.4901,5.4901,0.0,0.0,0.0,0.0,0.0,0.0,0.0,0.0,0.0,0.0,0.0,0.0,0.0,0.0,0.0,0.0,0.0,0.0,0.0,0.0,0.0,0.0,0.0,0.0,0.0,0.0,0.0,0.0,0.0,0.0,0.0,0.0,0.0,0.0,0.0,0.0,0.0,0.0,0.0,0.0,0.0,0.0,0.0,0.0,0.0,0.0,0.0,0.0,0.0,4.1007,4.0971,4.0897,4.0907,0.0,0.0,0.0,0.0,0.0,4.0803,4.1175,0.0,0.0,0.0,0.0,0.0,0.0,0.0,0.0,0.0,0.0,0.0,0.0,0.0,0.0,0.0,0.0,0.0,0.0,0.0,0.0,0.0,0.0,0.0,0.0,0.0,0.0,0.0,5.0042,5.0302,5.1119,5.1584,5.1584,5.1695,5.1769,5.1769,5.1658,5.1509,5.1416,5.0616,5.102,5.2463,5.2463,5.3468,5.5219,0.0,5.5857,5.6605,5.618,5.5979,5.5824,5.5283,5.4985,5.4901,5.4901,5.4901,5.4901,0.0,0.0,0.0,0.0,0.0,0.0,0.0,0.0,0.0,0.0,0.0,0.0,0.0,0.0,0.0,0.0,0.0,0.0,0.0,0.0,0.0,0.0,0.0,0.0,0.0,0.0,0.0,0.0,0.0,0.0,0.0,0.0,0.0,0.0,0.0,0.0,0.0,0.0,0.0,0.0,0.0,0.0,0.0,0.0,0.0,0.0,0.0,0.0,0.0,0.0,4.0907,4.0849,4.0849,0.0,0.0,0.0,0.0,0.0,4.079,4.1291,0.0,0.0,0.0,0.0,0.0,0.0,0.0,0.0,0.0,0.0,0.0,0.0,0.0,0.0,0.0,0.0,0.0,0.0,0.0,0.0,0.0,0.0,0.0,0.0,0.0,0.0,0.0,0.0,5.0785,5.1175,5.1398,5.1398,5.1398,5.1175,5.0711,5.1156,5.1398,5.1398,5.0543,5.1303,5.3459,5.3459,5.467,5.6762,0.0,5.6648,5.7359,5.6659,5.6195,5.5861,5.558,5.5208,5.4901,5.4901,5.4901,5.4901,0.0,0.0,0.0,0.0,0.0,0.0,0.0,0.0,0.0,0.0,0.0,0.0,0.0,0.0,0.0,0.0,0.0,0.0,0.0,0.0,0.0,0.0,0.0,0.0,0.0,0.0,0.0,0.0,0.0,0.0,0.0,0.0,0.0,0.0,0.0,0.0,0.0,0.0,0.0,0.0,0.0,0.0,0.0,0.0,0.0,0.0,0.0,0.0,0.0,0.0,0.0,0.0,0.0,0.0,0.0,0.0,4.079,4.079,4.0778,4.1384,4.2112,0.0,0.0,0.0,0.0,0.0,0.0,0.0,0.0,0.0,0.0,0.0,0.0,0.0,0.0,0.0,0.0,0.0,0.0,0.0,0.0,0.0,0.0,0.0,0.0,0.0,0.0,0.0,5.0785,5.0803,5.0803,5.0803,5.1008,5.0785,5.0116,5.0971,5.1305,5.1101,5.0822,5.1824,5.3963,5.4392,5.5715,5.7713,5.7398,5.7473,5.781,5.7152,5.6466,5.5847,5.5705,5.5347,5.4901,5.4901,5.4871,5.4822,0.0,0.0,0.0,0.0,0.0,0.0,0.0,0.0,0.0,0.0,0.0,0.0,0.0,0.0,0.0,0.0,0.0,0.0,0.0,0.0,0.0,0.0,0.0,0.0,0.0,0.0,0.0,0.0,0.0,0.0,0.0,0.0,0.0,0.0,0.0,0.0,0.0,0.0,0.0,0.0,0.0,0.0,0.0,0.0,0.0,0.0,0.0,0.0,0.0,0.0,0.0,0.0,0.0,0.0,0.0,0.0,4.079,4.079,4.0713,4.1524,4.2341,4.2265,0.0,0.0,0.0,0.0,0.0,0.0,0.0,0.0,0.0,0.0,0.0,0.0,0.0,0.0,0.0,0.0,0.0,0.0,0.0,0.0,0.0,0.0,0.0,0.0,0.0,0.0,4.9076,4.9076,4.9076,4.9076,4.98,5.0172,5.0098,5.0971,5.0989,5.0209,5.1714,5.2902,5.3868,5.5508,5.6739,5.7651,5.846,5.8424,5.7771,5.7206,5.6466,5.5668,5.5158,5.4958,5.4901,5.4901,5.4791,5.4629,0.0,0.0,0.0,0.0,0.0,0.0,0.0,0.0,0.0,0.0,0.0,0.0,0.0,0.0,0.0,0.0,0.0,0.0,0.0,0.0,0.0,0.0,0.0,0.0,0.0,0.0,0.0,0.0,0.0,0.0,0.0,0.0,0.0,0.0,0.0,0.0,0.0,0.0,0.0,0.0,0.0,0.0,0.0,0.0,0.0,0.0,0.0,0.0,0.0,0.0,0.0,0.0,0.0,0.0,0.0,0.0,4.0746,4.0803,4.1101,4.1876,4.2629,4.2731,0.0,0.0,0.0,0.0,0.0,0.0,0.0,0.0,0.0,0.0,0.0,0.0,0.0,0.0,0.0,0.0,0.0,0.0,0.0,0.0,0.0,0.0,0.0,0.0,0.0,0.0,4.8909,4.8909,4.9132,4.9633,4.9949,5.0358,5.0896,5.1732,5.1992,5.1658,5.2308,5.333,5.4726,5.5957,5.6985,5.7827,5.779,5.7564,5.7225,5.603,5.5395,5.5055,5.485,5.4717,5.4667,5.4667,5.4584,5.4519,0.0,0.0,0.0,0.0,0.0,0.0,0.0,0.0,0.0,0.0,0.0,0.0,0.0,0.0,0.0,0.0,0.0,0.0,0.0,0.0,0.0,0.0,0.0,0.0,0.0,0.0,0.0,0.0,0.0,0.0,0.0,0.0,0.0,0.0,0.0,0.0,0.0,0.0,0.0,0.0,0.0,0.0,0.0,0.0,0.0,0.0,0.0,0.0,0.0,0.0,0.0,0.0,0.0,0.0,0.0,0.0,0.0,4.0786,4.1353,4.201,0.0,0.0,0.0,0.0,0.0,0.0,0.0,0.0,0.0,0.0,0.0,0.0,0.0,0.0,0.0,0.0,0.0,0.0,0.0,0.0,0.0,0.0,0.0,0.0,0.0,0.0,0.0,0.0,0.0,4.915,4.954,5.0079,5.0618,5.1175,5.1769,5.2587,5.2977,5.2977,5.2977,5.3609,5.4801,5.6014,5.68,5.7136,5.7317,5.7068,5.6485,5.5475,5.4918,5.4692,5.4641,5.459,5.4505,5.4472,5.4439,5.4371,0.0,0.0,0.0,0.0,0.0,0.0,0.0,0.0,0.0,0.0,0.0,0.0,0.0,0.0,0.0,0.0,0.0,0.0,0.0,0.0,0.0,0.0,0.0,0.0,0.0,0.0,0.0,0.0,0.0,0.0,0.0,0.0,0.0,0.0,0.0,0.0,0.0,0.0,0.0,0.0,0.0,0.0,4.097,0.0,0.0,0.0,0.0,0.0,0.0,0.0,4.079,0.0,0.0,0.0,0.0,0.0,4.0654,4.0737,4.1338,4.1848,0.0,0.0,0.0,0.0,0.0,0.0,0.0,0.0,0.0,0.0,0.0,0.0,0.0,0.0,0.0,0.0,0.0,0.0,0.0,0.0,0.0,0.0,0.0,0.0,0.0,0.0,0.0,0.0,0.0,4.967,5.0116,5.0135,5.1732,5.2605,5.2605,5.3404,5.3813,5.3813,5.3813,5.3813,5.3868,5.5753,5.6127,5.538,5.7284,5.715,5.561,5.5751,5.5381,5.4673,5.4538,5.4505,5.4505,5.4424,5.4287,5.4091,0.0,0.0,0.0,0.0,0.0,0.0,0.0,0.0,0.0,0.0,0.0,0.0,0.0,0.0,0.0,0.0,0.0,0.0,0.0,0.0,0.0,0.0,0.0,0.0,0.0,0.0,0.0,0.0,0.0,0.0,0.0,0.0,0.0,0.0,0.0,0.0,0.0,0.0,0.0,0.0,0.0,4.1004,4.0925,0.0,0.0,0.0,0.0,0.0,0.0,0.0,0.0,0.0,0.0,0.0,0.0,4.0631,4.0469,4.0571,4.1753,0.0,0.0,0.0,0.0,0.0,0.0,0.0,0.0,0.0,0.0,0.0,0.0,0.0,0.0,0.0,0.0,0.0,0.0,0.0,0.0,0.0,0.0,0.0,0.0,0.0,0.0,0.0,0.0,0.0,0.0,4.9986,5.0636,5.1825,5.2345,5.2865,5.3441,5.3683,5.3813,5.3813,5.3813,5.3813,5.385,5.5081,5.5492,5.5324,5.5993,5.6009,5.5573,5.5044,5.4668,5.4428,5.4375,5.4287,5.4198,5.4146,5.4092,5.4019,0.0,0.0,0.0,0.0,0.0,0.0,0.0,0.0,0.0,0.0,0.0,0.0,0.0,0.0,0.0,0.0,0.0,0.0,0.0,0.0,0.0,0.0,0.0,0.0,0.0,0.0,0.0,0.0,0.0,0.0,0.0,0.0,0.0,0.0,0.0,0.0,0.0,0.0,0.0,0.0,4.1045,4.0964,4.0909,0.0,0.0,0.0,0.0,0.0,0.0,0.0,0.0,0.0,0.0,0.0,0.0,4.0489,4.055,4.0883,4.1869,0.0,0.0,0.0,0.0,0.0,0.0,0.0,0.0,0.0,0.0,0.0,0.0,0.0,0.0,0.0,0.0,0.0,0.0,0.0,0.0,0.0,0.0,0.0,0.0,0.0,0.0,0.0,0.0,0.0,0.0,5.0729,5.1565,5.2568,5.2921,5.3311,5.3813,5.3813,5.3813,5.3813,5.3813,5.3813,5.3831,5.4782,5.5044,5.4801,5.4965,5.5071,5.5103,5.4597,5.4375,5.4324,5.4235,5.4181,5.4091,5.3963,5.3907,5.3944,0.0,0.0,0.0,0.0,0.0,0.0,0.0,0.0,0.0,0.0,0.0,0.0,0.0,0.0,0.0,0.0,0.0,0.0,0.0,0.0,0.0,0.0,0.0,0.0,0.0,0.0,0.0,0.0,0.0,0.0,0.0,0.0,0.0,0.0,0.0,0.0,0.0,0.0,4.1093,4.1073,4.0969,4.0909,4.0894,4.082,0.0,0.0,0.0,0.0,0.0,0.0,0.0,0.0,4.0681,4.0654,4.0558,4.03,4.0768,4.145,0.0,0.0,0.0,0.0,0.0,0.0,0.0,0.0,0.0,0.0,0.0,0.0,0.0,0.0,0.0,0.0,0.0,0.0,0.0,0.0,0.0,0.0,0.0,0.0,0.0,0.0,0.0,0.0,0.0,0.0,0.0,5.1769,5.2624,5.2717,5.3423,5.3813,5.3813,5.3813,5.3813,5.3813,5.3813,5.3813,5.3831,5.467,5.469,5.4,5.4183,5.4324,5.4409,5.4409,5.439,5.4356,5.4163,5.4091,5.4091,5.387,5.385,5.4055,0.0,0.0,0.0,0.0,0.0,0.0,0.0,0.0,0.0,0.0,0.0,0.0,0.0,0.0,0.0,0.0,0.0,0.0,0.0,0.0,0.0,0.0,0.0,0.0,0.0,0.0,0.0,0.0,0.0,0.0,0.0,0.0,0.0,0.0,0.0,0.0,0.0,4.1101,4.1074,4.1019,4.0983,4.0953,4.0906,4.0878,4.0869,0.0,0.0,0.0,0.0,0.0,0.0,0.0,4.0612,4.0603,4.0573,4.0473,4.0788,4.132,0.0,0.0,0.0,0.0,0.0,0.0,0.0,0.0,0.0,0.0,0.0,0.0,0.0,0.0,0.0,0.0,0.0,0.0,0.0,0.0,0.0,0.0,0.0,0.0,0.0,0.0,0.0,0.0,0.0,0.0,5.1992,5.2401,5.2902,5.3534,5.372,5.3813,5.3813,5.3813,5.3813,0.0,5.3813,5.3813,5.3813,5.3998,5.4056,5.4,5.411,5.4235,5.4324,5.4324,5.434,5.4356,5.4163,5.4091,5.4091,5.387,5.426,5.4912,0.0,0.0,0.0,0.0,0.0,0.0,0.0,0.0,0.0,0.0,0.0,0.0,0.0,0.0,0.0,0.0,0.0,0.0,0.0,0.0,0.0,0.0,0.0,0.0,0.0,0.0,0.0,0.0,0.0,0.0,0.0,0.0,0.0,0.0,0.0,0.0,0.0,4.1054,4.1021,4.0994,4.0974,4.0932,4.0907,4.0907,4.0907,0.0,0.0,0.0,0.0,0.0,0.0,0.0,0.0,0.0,4.0523,4.0389,4.09,4.1609,0.0,0.0,0.0,0.0,0.0,0.0,0.0,0.0,0.0,0.0,0.0,0.0,0.0,0.0,0.0,0.0,0.0,0.0,0.0,0.0,0.0,0.0,0.0,0.0,0.0,0.0,0.0,0.0,0.0,5.1377,5.2474,5.292,5.3367,5.3794,5.3813,5.3813,5.3813,5.3813,5.3813,5.3813,5.3813,5.3813,5.3813,5.3813,5.3851,5.3982,5.4055,5.411,5.42,5.4254,5.4324,5.434,5.4235,5.4146,5.4128,5.441,5.482,5.5323,0.0,0.0,0.0,0.0,0.0,0.0,0.0,0.0,0.0,0.0,0.0,0.0,0.0,0.0,0.0,0.0,0.0,0.0,0.0,0.0,0.0,0.0,0.0,0.0,0.0,0.0,0.0,0.0,0.0,0.0,0.0,0.0,0.0,0.0,0.0,0.0,0.0,4.1004,4.0998,4.0987,4.0924,4.0907,4.0907,4.0907,0.0,0.0,0.0,0.0,0.0,4.0706,0.0,0.0,0.0,0.0,4.0511,4.0476,4.1214,4.2033,0.0,0.0,0.0,0.0,0.0,0.0,0.0,0.0,0.0,0.0,0.0,0.0,0.0,0.0,0.0,0.0,0.0,0.0,0.0,0.0,0.0,0.0,0.0,0.0,0.0,0.0,0.0,0.0,0.0,5.2238,5.2601,5.3365,5.3813,5.3813,5.3813,5.3813,5.3813,5.3813,5.3813,5.3813,5.3813,5.3813,5.3813,5.3813,5.3851,5.3944,5.3944,5.4019,5.4091,5.4219,5.4273,5.4254,5.4254,5.4275,5.439,5.5062,5.5473,5.5902,0.0,0.0,0.0,0.0,0.0,0.0,0.0,0.0,0.0,0.0,0.0,0.0,0.0,0.0,0.0,0.0,0.0,0.0,0.0,0.0,0.0,0.0,0.0,0.0,0.0,0.0,0.0,0.0,0.0,0.0,0.0,0.0,0.0,0.0,0.0,0.0,0.0,0.0,4.1,4.0987,4.0924,4.0907,4.0907,0.0,0.0,0.0,0.0,0.0,0.0,0.0,4.0579,0.0,0.0,0.0,0.0,4.136,4.1914,4.2375,0.0,0.0,0.0,0.0,0.0,0.0,0.0,0.0,0.0,0.0,0.0,0.0,0.0,0.0,0.0,0.0,0.0,0.0,0.0,0.0,0.0,0.0,0.0,0.0,0.0,0.0,0.0,0.0,5.1952,5.2536,5.3452,5.368,5.3813,5.3813,5.3813,5.3813,5.3813,5.3813,5.3813,5.3813,5.3813,5.3813,5.3813,5.3813,5.3813,5.3813,5.3813,5.3888,5.4019,5.4019,5.4092,5.4146,5.4055,5.4485,5.5155,5.5174,5.6257,5.7679,0.0,0.0,0.0,0.0,0.0,0.0,0.0,0.0,0.0,0.0,0.0,0.0,0.0,0.0,0.0,0.0,0.0,0.0,0.0,0.0,0.0,0.0,0.0,0.0,0.0,0.0,0.0,0.0,0.0,0.0,0.0,4.1006,4.1,0.0,0.0,0.0,0.0,0.0,0.0,4.0941,4.0906,4.0907,0.0,0.0,0.0,0.0,0.0,0.0,0.0,0.0,0.0,0.0,0.0,0.0,0.0,0.0,0.0,0.0,0.0,0.0,0.0,0.0,0.0,0.0,0.0,0.0,0.0,0.0,0.0,0.0,0.0,0.0,0.0,0.0,0.0,0.0,0.0,0.0,0.0,0.0,0.0,0.0,0.0,0.0,0.0,0.0,5.2545,5.3111,5.3676,5.3754,5.3813,5.3813,5.3813,5.3813,5.3813,5.3813,5.3813,5.3813,5.3813,5.3813,5.3813,5.3813,5.3813,5.3813,5.3813,5.3851,5.3888,5.3982,5.428,5.4708,5.4801,5.5342,5.6071,5.6631,5.7305,5.8072,0.0,0.0,0.0,0.0,0.0,0.0,0.0,0.0,0.0,0.0,0.0,0.0,0.0,0.0,0.0,0.0,0.0,0.0,0.0,0.0,0.0,0.0,0.0,0.0,0.0,0.0,0.0,0.0,0.0,0.0,4.0999,4.1,4.0988,0.0,4.0986,0.0,0.0,0.0,0.0,0.0,0.0,0.0,0.0,0.0,0.0,0.0,0.0,0.0,0.0,0.0,0.0,0.0,0.0,0.0,0.0,0.0,0.0,0.0,0.0,0.0,0.0,0.0,0.0,0.0,0.0,0.0,0.0,0.0,0.0,0.0,0.0,0.0,0.0,0.0,0.0,0.0,0.0,0.0,0.0,0.0,0.0,0.0,0.0,0.0,0.0,0.0,5.3046,5.3539,5.3656,5.3754,5.3813,5.3813,5.3813,5.3813,5.3813,5.3813,5.3813,5.3813,5.3813,5.3813,5.3813,5.3813,5.3813,5.3813,5.3813,5.3813,5.3813,5.413,5.4615,5.5173,5.5585,5.622,5.7005,5.7735,5.8165,5.8391,0.0,0.0,0.0,0.0,0.0,0.0,0.0,0.0,0.0,0.0,0.0,0.0,0.0,0.0,0.0,0.0,0.0,0.0,0.0,0.0,0.0,0.0,0.0,0.0,0.0,0.0,0.0,0.0,0.0,0.0,4.0996,4.0998,4.0965,4.0918,4.0975,4.101,4.1007,0.0,0.0,0.0,0.0,0.0,0.0,0.0,0.0,0.0,0.0,0.0,0.0,0.0,0.0,0.0,0.0,0.0,0.0,0.0,0.0,0.0,0.0,0.0,0.0,0.0,0.0,0.0,0.0,0.0,0.0,0.0,0.0,0.0,0.0,0.0,0.0,0.0,0.0,0.0,0.0,0.0,0.0,0.0,0.0,0.0,0.0,0.0,0.0,0.0,5.3359,5.3499,5.3499,5.3678,5.3813,5.3813,5.3813,5.3813,5.3813,5.3813,5.3813,5.3813,5.3813,5.3813,5.3813,5.3813,5.3813,5.3813,5.3813,5.3813,5.3868,5.463,5.4964,5.5094,5.5912,5.6869,5.7753,5.7809,5.8428,5.9253,0.0,0.0,0.0,0.0,0.0,0.0,0.0,0.0,0.0,0.0,0.0,0.0,0.0,0.0,0.0,0.0,0.0,0.0,0.0,0.0,0.0,0.0,0.0,0.0,0.0,0.0,0.0,0.0,0.0,4.1065,4.0993,4.1003,4.0994,4.0954,4.0935,4.0944,4.0932,4.0906,0.0,0.0,0.0,0.0,0.0,0.0,0.0,0.0,0.0,0.0,0.0,0.0,0.0,0.0,0.0,0.0,0.0,0.0,0.0,0.0,0.0,0.0,0.0,0.0,0.0,0.0,0.0,0.0,0.0,0.0,0.0,0.0,0.0,0.0,0.0,0.0,0.0,0.0,0.0,0.0,0.0,0.0,0.0,0.0,0.0,0.0,0.0,0.0,0.0,5.3579,5.3697,5.3774,5.3813,5.3813,5.3813,5.3813,5.3813,5.3813,5.3813,5.3813,5.3813,5.3813,5.3813,5.3813,5.3813,5.3831,5.4351,5.4574,5.4593,5.489,5.5633,5.6636,5.7013,5.7728,5.8594,5.8651,5.8934,5.9215,0.0,0.0,0.0,0.0,0.0,0.0,0.0,0.0,0.0,0.0,0.0,0.0,0.0,0.0,0.0,0.0,0.0,0.0,0.0,0.0,0.0,0.0,0.0,0.0,0.0,0.0,0.0,0.0,0.0,0.0,0.0,0.0,4.0996,4.0957,4.0925,0.0,0.0,0.0,0.0,4.0859,0.0,0.0,4.0773,0.0,0.0,0.0,0.0,0.0,0.0,0.0,0.0,0.0,0.0,0.0,0.0,0.0,0.0,0.0,0.0,0.0,0.0,0.0,0.0,0.0,0.0,0.0,0.0,0.0,0.0,0.0,0.0,0.0,0.0,0.0,0.0,0.0,0.0,0.0,0.0,0.0,0.0,0.0,0.0,0.0,0.0,0.0,0.0,0.0,5.3697,5.3736,5.3793,5.3813,5.3813,5.3813,5.3813,5.3813,5.3813,5.3813,5.3813,5.3813,5.3813,5.3813,5.3961,5.424,5.4779,5.5001,5.5039,5.5614,5.6506,5.7528,5.785,5.8399,5.9024,5.9081,5.9139,5.9177,0.0,0.0,0.0,0.0,0.0,0.0,0.0,0.0,0.0,0.0,0.0,0.0,0.0,0.0,0.0,0.0,0.0,0.0,0.0,0.0,0.0,0.0,0.0,0.0,0.0,0.0,0.0,0.0,0.0,0.0,0.0,0.0,4.0962,0.0,4.089,4.0907,4.0907,0.0,4.0859,4.0807,0.0,4.0754,4.0694,0.0,0.0,0.0,3.97,3.989,0.0,0.0,0.0,0.0,0.0,0.0,0.0,0.0,0.0,0.0,0.0,0.0,0.0,0.0,0.0,0.0,0.0,0.0,0.0,0.0,0.0,0.0,0.0,0.0,0.0,0.0,0.0,0.0,0.0,0.0,0.0,0.0,0.0,0.0,0.0,0.0,0.0,0.0,5.3272,5.3359,5.3499,5.3656,5.3734,5.3813,5.3813,5.3813,5.3813,5.3813,5.3813,5.3813,5.3813,5.3813,5.3813,5.3831,5.4258,5.5001,5.5057,5.5076,5.5206,5.684,5.7509,5.7621,5.8401,5.8803,5.9003,5.9003,5.9081,5.9177,0.0,0.0,0.0,0.0,0.0,0.0,0.0,0.0,0.0,0.0,0.0,0.0,0.0,0.0,0.0,0.0,0.0,0.0,0.0,0.0,0.0,0.0,0.0,0.0,0.0,0.0,0.0,0.0,0.0,0.0,0.0,0.0,0.0,0.0,4.0913,4.0907,4.0907,4.0849,0.0,0.0,4.0742,4.0681,0.0,0.0,0.0,0.0,0.0,4.0327,0.0,0.0,4.0719,4.1643,0.0,0.0,0.0,0.0,0.0,0.0,4.325,0.0,0.0,0.0,0.0,0.0,0.0,0.0,0.0,0.0,0.0,0.0,0.0,0.0,0.0,0.0,0.0,0.0,0.0,0.0,0.0,0.0,0.0,0.0,0.0,0.0,0.0,0.0,5.3691,5.3499,5.3656,5.3716,5.3774,5.3813,5.3813,5.3813,5.3813,5.3813,5.3813,5.3813,5.3813,5.3813,5.3831,5.4407,5.4797,5.5076,5.6283,5.6822,5.684,5.7323,5.7843,5.8401,5.8624,5.8799,5.8921,5.8921,5.894,5.898,0.0,0.0,0.0,0.0,0.0,0.0,0.0,0.0,0.0,0.0,0.0,0.0,0.0,0.0,0.0,0.0,0.0,0.0,0.0,0.0,0.0,0.0,0.0,0.0,0.0,0.0,0.0,0.0,0.0,0.0,0.0,0.0,0.0,0.0,0.0,0.0,0.0,0.0,0.0,0.0,4.0681,0.0,0.0,4.0564,4.0534,0.0,0.0,0.0,4.0546,4.0912,4.1623,0.0,0.0,0.0,0.0,0.0,0.0,0.0,0.0,0.0,0.0,0.0,0.0,0.0,4.5098,4.5642,4.6545,0.0,4.9764,4.9945,0.0,0.0,0.0,0.0,0.0,0.0,0.0,0.0,0.0,0.0,0.0,0.0,0.0,5.4858,5.4424,5.4496,5.4322,5.4278,5.4447,5.4503,5.4317,5.3813,5.4298,5.4317,5.3794,5.3813,5.3813,5.3813,5.3813,5.398,5.4333,5.4797,5.5391,5.6097,5.7082,5.7695,5.8011,5.8011,5.8289,5.8716,5.8716,5.8758,5.8899,5.8899,5.8899,5.8899,0.0,0.0,0.0,0.0,0.0,0.0,0.0,0.0,0.0,0.0,0.0,0.0,0.0,0.0,0.0,0.0,0.0,0.0,0.0,0.0,0.0,0.0,0.0,0.0,0.0,0.0,0.0,0.0,0.0,0.0,0.0,0.0,0.0,0.0,0.0,0.0,0.0,0.0,0.0,4.0681,4.0635,4.0564,0.0,0.0,4.0489,0.0,4.0489,4.0546,4.0777,4.1758,4.2585,0.0,0.0,0.0,0.0,0.0,4.4444,0.0,0.0,0.0,0.0,0.0,0.0,0.0,4.5469,4.6288,4.7484,4.9706,5.0188,5.026,5.026,5.0188,0.0,0.0,0.0,0.0,0.0,0.0,0.0,0.0,0.0,0.0,5.5776,5.506,5.4571,5.4644,5.5023,5.5374,5.5691,5.5682,5.5157,5.4112,5.5025,5.5006,5.3907,5.3889,5.387,5.387,5.3944,5.4314,5.502,5.5187,5.6097,5.7509,5.7602,5.8048,5.8716,5.8716,5.8716,5.8716,5.8716,5.8758,5.8859,5.8859,5.8859,5.8859,0.0,0.0,0.0,0.0,0.0,0.0,0.0,0.0,0.0,0.0,0.0,0.0,0.0,0.0,0.0,0.0,0.0,0.0,0.0,0.0,0.0,0.0,0.0,0.0,0.0,0.0,0.0,0.0,0.0,0.0,0.0,0.0,0.0,0.0,0.0,0.0,0.0,0.0,0.0,4.0602,4.0549,0.0,4.0489,4.0489,4.0489,4.0489,4.0489,4.095,4.1777,0.0,4.3932,4.422,0.0,0.0,0.0,0.0,0.0,0.0,0.0,0.0,0.0,0.0,0.0,0.0,4.6366,4.7168,4.8225,0.0,5.0842,5.1322,5.1322,5.0769,5.0496,0.0,0.0,0.0,0.0,0.0,0.0,0.0,0.0,0.0,5.7391,5.6323,5.5521,5.5564,5.5473,5.5909,5.7061,5.6453,5.5987,5.5746,5.5274,5.4933,5.4693,5.4406,5.4277,5.4296,5.4708,5.4949,5.5057,5.6455,5.7255,5.7546,5.8196,5.8549,5.8716,5.8716,5.8716,5.8716,5.8716,5.8716,5.8758,5.8758,5.8758,5.8758,0.0,0.0,0.0,0.0,0.0,0.0,0.0,0.0,0.0,0.0,0.0,0.0,0.0,0.0,0.0,0.0,0.0,0.0,0.0,0.0,0.0,0.0,0.0,0.0,0.0,0.0,0.0,0.0,0.0,0.0,0.0,0.0,0.0,0.0,0.0,0.0,0.0,0.0,4.0602,4.0549,4.0519,0.0,4.0489,4.0489,4.0489,4.0546,4.0989,4.197,4.3181,4.4028,4.4586,0.0,0.0,4.5419,4.5161,0.0,4.4972,4.489,0.0,0.0,0.0,4.5205,0.0,0.0,0.0,4.7834,4.904,5.0162,5.1037,5.1602,5.1602,0.0,5.0672,5.1474,0.0,0.0,0.0,0.0,0.0,0.0,0.0,0.0,5.7281,5.6415,5.6025,5.65,5.6507,5.7032,5.8329,5.7564,5.6836,5.6226,5.5969,5.5549,5.4903,5.4722,5.4805,5.5117,5.5366,5.579,5.6403,5.7242,5.7816,5.8223,5.8531,5.8716,5.8716,5.8716,5.8716,5.8716,5.8716,5.8716,5.8716,5.8716,5.8716,5.8716,0.0,0.0,0.0,0.0,0.0,0.0,0.0,0.0,0.0,0.0,0.0,0.0,0.0,0.0,0.0,0.0,0.0,0.0,0.0,0.0,0.0,0.0,0.0,4.046,0.0,0.0,0.0,0.0,0.0,0.0,0.0,0.0,0.0,0.0,0.0,0.0,0.0,0.0,0.0,4.0489,0.0,4.0489,4.0508,4.0681,4.0739,4.0873,4.1912,4.3143,4.4335,4.4489,0.0,4.5586,4.5586,4.5534,0.0,0.0,0.0,0.0,0.0,0.0,0.0,0.0,0.0,4.7351,0.0,0.0,0.0,5.0574,0.0,0.0,0.0,0.0,0.0,0.0,0.0,0.0,0.0,0.0,0.0,0.0,0.0,0.0,5.695,5.6381,5.6368,5.7348,5.7548,5.8195,5.9569,5.8668,5.767,5.669,5.6644,5.6149,5.5135,5.521,5.5503,5.6008,5.6286,5.6926,5.7922,5.794,5.8308,5.8899,5.8821,5.8781,5.8716,5.8762,5.8781,5.8716,5.8716,5.8716,5.8716,5.8716,5.8716,5.8758,0.0,0.0,0.0,0.0,0.0,0.0,0.0,0.0,0.0,0.0,0.0,0.0,0.0,0.0,0.0,0.0,0.0,0.0,4.0836,0.0,0.0,0.0,0.0,0.0,3.9797,0.0,0.0,0.0,0.0,0.0,0.0,0.0,0.0,0.0,4.0051,0.0,0.0,0.0,4.0564,0.0,4.0489,4.0489,0.0,4.1354,4.1662,4.1854,4.3451,4.4143,4.4412,0.0,4.5509,4.5586,0.0,4.5956,0.0,0.0,0.0,0.0,0.0,0.0,0.0,0.0,4.7665,0.0,0.0,0.0,5.0853,5.1642,0.0,0.0,0.0,0.0,0.0,0.0,0.0,0.0,0.0,0.0,0.0,0.0,0.0,0.0,0.0,5.7119,5.6892,5.7864,5.7914,5.8812,6.079,5.9398,5.8471,5.8336,5.6867,5.6017,5.5884,5.6357,5.6621,5.6693,5.7955,5.8437,5.8261,5.8961,5.9122,5.8899,5.9064,5.8986,5.8739,5.9025,5.8947,5.8716,5.8716,5.8716,5.8716,5.8716,5.8758,5.8859,0.0,0.0,0.0,0.0,0.0,0.0,0.0,0.0,0.0,0.0,0.0,0.0,0.0,0.0,0.0,0.0,0.0,3.9682,0.0,0.0,0.0,0.0,0.0,0.0,0.0,0.0,0.0,0.0,3.9205,0.0,0.0,0.0,0.0,0.0,4.0169,0.0,4.0549,0.0,0.0,0.0,0.0,0.0,0.0,4.1854,4.2412,4.3335,4.4047,4.4624,4.5105,0.0,4.5932,0.0,0.0,0.0,0.0,0.0,0.0,0.0,0.0,0.0,0.0,0.0,0.0,0.0,0.0,0.0,5.1591,0.0,0.0,0.0,0.0,0.0,0.0,0.0,0.0,0.0,0.0,0.0,5.5288,0.0,0.0,0.0,0.0,0.0,0.0,5.7175,5.7851,5.8853,6.0268,5.8722,5.8044,5.8584,5.6902,5.6244,5.6747,5.6985,5.7501,5.8312,5.8909,5.9259,5.9391,5.9722,5.9766,5.9587,5.9597,5.9477,5.9359,5.948,5.9465,5.9363,5.9363,5.9215,5.9025,5.9234,5.9215,5.9121,0.0,0.0,0.0,0.0,0.0,0.0,0.0,0.0,0.0,0.0,0.0,0.0,3.8274,3.8316,0.0,0.0,0.0,3.9409,0.0,0.0,3.9138,0.0,0.0,0.0,0.0,0.0,0.0,0.0,0.0,0.0,0.0,0.0,0.0,0.0,0.0,4.0409,4.0489,0.0,0.0,4.1797,4.1797,4.245,4.3355,4.2739,4.3393,4.4662,4.4662,4.5047,4.5586,4.5586,4.6182,0.0,4.6913,0.0,0.0,0.0,0.0,0.0,4.8711,0.0,0.0,0.0,0.0,0.0,0.0,0.0,0.0,0.0,0.0,0.0,0.0,0.0,0.0,0.0,0.0,0.0,0.0,0.0,0.0,0.0,0.0,0.0,0.0,5.7419,5.73,5.7076,5.767,5.8432,5.936,5.8008,5.7506,5.8181,5.7,5.6633,5.7271,5.7754,5.853,5.9543,5.9755,6.0046,6.0326,6.0253,6.017,6.0103,6.0065,5.9957,5.9823,5.9885,5.9861,5.9791,5.9887,5.9772,5.9518,5.9725,5.9639,5.9465,0.0,3.7742,0.0,0.0,0.0,0.0,0.0,0.0,0.0,0.0,0.0,0.0,0.0,0.0,0.0,0.0,0.0,4.1021,4.1054,0.0,3.9765,0.0,0.0,3.7591,0.0,0.0,0.0,0.0,0.0,0.0,0.0,0.0,0.0,0.0,0.0,3.9832,4.0489,4.0489,4.0989,4.1797,4.1797,4.2797,4.4259,0.0,4.4778,4.5547,4.5547,0.0,0.0,4.5586,4.6182,0.0,0.0,0.0,0.0,0.0,0.0,0.0,0.0,0.0,0.0,4.9891,0.0,0.0,0.0,0.0,5.2238,0.0,0.0,0.0,0.0,0.0,0.0,0.0,0.0,0.0,0.0,0.0,0.0,0.0,0.0,0.0,0.0,5.8044,5.7845,5.8231,5.7559,5.7523,5.8393,5.7661,5.7217,5.7236,5.7178,5.7158,5.7197,5.8934,5.9841,5.9899,6.0654,6.0923,6.0661,6.0556,6.036,6.0103,6.0283,6.018,5.9823,6.0141,6.0102,5.9823,6.0179,6.0265,6.0237,5.9918,5.9868,5.9973,0.0,0.0,0.0,0.0,0.0,0.0,0.0,3.7931,0.0,0.0,0.0,0.0,0.0,0.0,3.8647,0.0,0.0,3.8965,4.0156,3.8346,0.0,0.0,0.0,3.6475,0.0,0.0,0.0,0.0,0.0,0.0,0.0,0.0,0.0,0.0,0.0,4.0314,0.0,0.0,0.0,0.0,0.0,4.4608,4.5035,0.0,0.0,4.5586,4.5586,4.5586,0.0,4.6278,4.7009,4.7798,4.8375,4.9336,5.026,5.026,5.0471,0.0,0.0,0.0,5.0817,5.0651,0.0,0.0,0.0,0.0,0.0,0.0,0.0,0.0,0.0,0.0,0.0,0.0,0.0,0.0,0.0,0.0,0.0,0.0,0.0,0.0,0.0,0.0,0.0,5.7456,5.665,5.6575,5.7504,5.6733,5.6791,5.7969,5.7487,5.7718,5.8838,5.9456,6.0075,6.0616,6.0887,6.1002,6.0963,6.0923,6.082,6.0689,6.0773,6.0704,6.0533,6.0647,6.0597,6.0475,6.0591,6.0641,6.0616,6.0501,6.0349,6.0189,3.6325,0.0,0.0,0.0,0.0,0.0,0.0,0.0,0.0,0.0,3.6839,0.0,3.7517,0.0,3.8643,0.0,3.8826,3.8895,3.9735,3.7936,0.0,3.7187,3.6377,0.0,0.0,0.0,0.0,0.0,0.0,3.884,0.0,0.0,0.0,0.0,0.0,0.0,0.0,0.0,4.247,0.0,0.0,4.5513,0.0,0.0,4.5495,4.5534,0.0,4.5993,4.6146,4.701,4.7875,4.8663,4.9221,4.999,5.0702,5.0702,5.0894,5.1066,5.0753,5.1295,0.0,5.1878,5.2545,0.0,5.2956,0.0,0.0,0.0,0.0,0.0,0.0,0.0,0.0,0.0,0.0,0.0,0.0,0.0,0.0,0.0,0.0,0.0,0.0,0.0,5.8092,5.7511,5.6646,5.6282,0.0,5.6074,5.6422,5.785,5.7697,5.8256,5.9644,5.9993,6.0439,6.1002,6.1002,6.1022,6.1099,6.108,6.1041,6.1002,6.0962,6.0938,6.0911,6.0869,6.0846,6.08,6.08,6.08,6.08,6.08,6.0666,6.0527,0.0,0.0,0.0,0.0,3.756,0.0,0.0,0.0,3.7598,0.0,3.6553,3.7412,3.8248,3.8383,3.9041,4.0677,4.0862,0.0,3.9733,3.887,0.0,0.0,3.6337,3.6268,3.7023,0.0,0.0,0.0,0.0,0.0,0.0,0.0,0.0,0.0,4.0622,0.0,4.1873,4.1912,4.2874,4.4432,4.5259,4.5513,4.54,4.5438,4.5418,4.547,4.6376,4.6742,4.6915,4.7857,4.8702,4.9413,4.9452,5.0029,5.0702,5.0702,5.1241,5.1797,5.1542,5.2084,5.2875,5.3394,0.0,0.0,0.0,0.0,5.2175,0.0,0.0,0.0,0.0,0.0,0.0,0.0,0.0,0.0,0.0,0.0,0.0,0.0,0.0,0.0,0.0,6.0012,5.9184,5.8415,5.7511,0.0,0.0,5.5761,5.6145,5.703,5.7904,5.8772,5.9659,6.053,6.0999,6.1002,6.1002,6.1022,6.1099,6.1022,6.1002,6.1002,6.0916,6.0911,6.0891,6.0823,6.08,6.08,6.08,6.08,6.08,6.08,6.0846,6.0914,3.6243,3.5905,3.5804,0.0,3.7153,3.7314,0.0,0.0,0.0,0.0,3.7014,3.7281,3.7555,3.8114,3.8393,3.8198,3.8185,0.0,0.0,0.0,0.0,3.624,3.6025,3.5976,3.6129,3.6129,0.0,3.6933,0.0,0.0,3.9215,0.0,0.0,0.0,0.0,0.0,4.2816,4.3393,4.4278,4.5278,4.5509,4.5495,0.0,0.0,4.6173,4.6164,4.6567,4.7087,4.7739,4.8721,4.9202,4.951,5.0164,5.051,5.0702,5.0702,5.0837,5.0991,5.0931,5.1506,5.2156,5.2302,5.2732,5.3028,0.0,0.0,0.0,0.0,0.0,0.0,0.0,0.0,0.0,0.0,0.0,0.0,0.0,0.0,0.0,0.0,0.0,0.0,6.08,6.0012,5.9415,5.9204,5.7819,5.6896,5.6665,0.0,5.7069,5.7934,5.8765,5.9611,6.0477,6.0731,6.0869,6.0935,6.0978,6.1,6.1022,6.1002,6.1001,6.0999,6.0914,6.0869,6.0823,6.08,6.08,6.08,6.08,6.08,6.08,6.08,6.0846,6.0911,3.5969,0.0,0.0,3.6278,0.0,0.0,3.6988,0.0,0.0,3.6669,3.6992,0.0,3.7257,3.7652,3.7887,3.7776,3.7765,0.0,0.0,0.0,0.0,3.5928,3.5908,3.6054,3.6359,3.637,0.0,3.7506,0.0,0.0,4.0084,0.0,0.0,0.0,0.0,4.2832,0.0,4.4509,4.5143,4.5586,4.5586,0.0,0.0,4.6328,4.6911,4.7529,4.763,4.8024,4.8622,4.9625,4.9971,5.0048,5.0548,5.0702,5.0702,5.0702,5.0952,5.1221,5.1221,5.1837,5.2472,5.2472,5.3003,5.3322,5.2493,5.2949,5.3354,0.0,0.0,0.0,0.0,0.0,0.0,0.0,0.0,0.0,0.0,0.0,0.0,0.0,0.0,0.0,6.08,6.0358,5.9915,5.9531,5.83,5.7569,5.7569,0.0,5.755,5.88,5.9261,5.9915,6.0781,6.08,6.0823,6.0911,6.0933,6.0978,6.1,6.096,6.0959,6.0955,6.0888,6.0823,6.08,6.08,6.08,6.08,6.08,6.08,6.08,6.08,6.0823,6.0869,0.0,0.0,0.0,0.0,0.0,0.0,0.0,3.7652,0.0,3.6113,0.0,3.7109,3.7058,3.7035,3.7337,3.809,0.0,3.7837,3.7077,3.7038,3.6688,3.5928,3.6,3.6424,3.7242,3.735,0.0,0.0,0.0,0.0,0.0,0.0,0.0,0.0,0.0,0.0,0.0,4.5278,4.5586,0.0,4.572,4.6071,4.656,4.677,4.7716,4.8962,4.9114,4.9264,4.9505,5.0413,5.0702,5.0702,5.0702,5.0702,5.0702,5.0702,5.1202,5.1741,5.1741,5.2299,5.2895,5.301,5.3379,5.3486,5.2577,5.3034,5.3404,5.2529,5.2616,5.3449,0.0,0.0,0.0,0.0,0.0,0.0,0.0,0.0,0.0,0.0,0.0,0.0,0.0,6.08,6.0492,5.9723,5.8915,5.8473,0.0,0.0,0.0,5.9454,5.9608,6.0031,6.0781,0.0,6.0823,6.0888,6.0911,6.0933,6.0976,6.0933,6.0911,6.0911,6.0823,6.08,6.08,6.08,6.08,6.08,6.08,6.08,6.08,6.08,6.08,6.0823,0.0,0.0,0.0,0.0,0.0,3.5962,3.6168,3.6325,3.6331,3.6021,3.613,3.6219,3.6208,3.6216,3.6241,3.6356,3.6356,0.0,0.0,0.0,0.0,3.5908,3.6541,3.7265,3.8071,3.8753,3.9816,0.0,0.0,0.0,0.0,0.0,0.0,0.0,0.0,0.0,4.5374,4.5528,0.0,4.5663,4.6374,4.6666,4.6817,4.8196,4.8905,4.925,4.9959,5.0248,5.031,5.0606,5.0702,5.0702,5.0702,5.0702,5.0702,5.0702,5.0798,5.0914,5.0914,5.101,5.1298,5.1972,5.22,5.2346,5.2633,5.3347,5.4084,5.4592,5.5286,5.6174,5.7512,0.0,0.0,0.0,0.0,0.0,0.0,0.0,0.0,0.0,0.0,0.0,0.0,0.0,0.0,0.0,5.9781,5.93,0.0,0.0,0.0,0.0,6.0204,0.0,0.0,0.0,6.08,6.0823,6.0869,6.0911,6.0933,6.0911,6.0911,6.0911,6.0823,6.08,6.08,6.08,6.08,6.08,6.08,6.08,6.08,6.08,6.08,6.0823,0.0,0.0,0.0,0.0,0.0,0.0,0.0,3.6965,0.0,3.6049,3.5991,3.6007,3.5997,3.6005,3.5973,3.5899,3.5894,3.6084,3.6532,3.6571,3.6785,3.7233,3.8013,0.0,3.9634,4.0441,4.1455,4.2673,0.0,0.0,0.0,0.0,0.0,0.0,0.0,4.5255,0.0,0.0,0.0,4.6317,4.674,4.7338,4.8084,4.889,4.9484,4.9925,5.0347,5.0542,5.0623,5.0663,5.0702,5.0702,5.0702,5.0702,5.0702,5.0702,5.0702,5.0779,5.1202,5.1318,5.1529,5.2356,5.2914,5.3275,5.3413,5.4532,5.5634,5.5874,5.6734,5.7738,5.8739,5.9608,0.0,0.0,0.0,0.0,0.0,0.0,0.0,0.0,0.0,0.0,0.0,0.0,0.0,0.0,0.0,0.0,6.0146,0.0,5.9704,0.0,0.0,0.0,0.0,0.0,0.0,6.08,6.0823,6.0846,6.0846,6.0846,6.0846,6.0846,6.0823,6.08,6.08,6.08,6.08,6.08,6.08,6.08,6.08,6.08,6.08,6.08,0.0,3.6223,0.0,0.0,3.7513,0.0,3.8496,3.8023,3.7265,3.6384,3.6111,3.6007,3.6001,3.6146,3.6231,3.6177,3.6337,3.6715,3.7416,3.7481,3.7773,3.8474,3.942,4.0341,4.1159,4.213,4.3024,0.0,0.0,0.0,0.0,0.0,0.0,0.0,0.0,0.0,0.0,0.0,4.6374,4.7182,4.7355,4.8164,4.9255,4.9468,4.9948,5.0542,5.0542,5.0623,5.0702,5.0702,5.0702,5.0702,5.0702,5.0702,5.0702,5.0702,5.0818,5.1087,5.1741,5.2049,5.2395,5.326,5.4126,5.4737,5.4647,5.6011,5.7255,5.7155,5.8026,5.9031,5.9665,6.0339,0.0,0.0,0.0,0.0,0.0,0.0,0.0,0.0,0.0,0.0,0.0,0.0,0.0,0.0,0.0,6.0089,6.0762,6.0146,6.0089,0.0,0.0,6.08,6.08,0.0,6.08,6.08,6.08,6.08,6.08,6.08,6.08,6.08,6.08,6.08,6.08,6.08,6.08,6.08,6.08,6.08,6.08,6.08,6.08,6.08,0.0,0.0,0.0,0.0,0.0,0.0,3.859,3.8535,3.8174,3.7285,3.6482,3.6007,3.6001,3.6645,3.7094,3.7083,3.7748,3.8194,3.8272,3.8332,3.8403,3.8501,3.9971,4.1189,4.2063,4.3582,4.4769,0.0,0.0,0.0,0.0,0.0,0.0,0.0,0.0,0.0,0.0,4.6778,4.7259,4.8067,4.8856,4.926,4.9471,5.0259,5.0625,5.0683,5.0683,5.0683,5.0702,5.0702,5.0702,5.0702,5.0702,5.0702,5.0702,5.0702,5.1221,5.1798,5.1895,5.2491,5.3299,5.4164,5.4991,5.5799,5.6547,5.747,5.8396,5.9085,5.9931,6.0589,6.0666,6.0742,6.08,0.0,0.0,0.0,0.0,0.0,0.0,0.0,0.0,0.0,0.0,0.0,0.0,0.0,6.0723,6.0704,6.08,6.0723,6.0723,6.08,6.08,6.08,6.08,6.08,6.08,6.08,6.08,6.08,6.08,6.08,6.08,6.08,6.08,6.08,6.08,6.08,6.08,6.08,6.08,6.08,6.08,6.08,6.08,6.08,0.0,0.0,0.0,0.0,0.0,0.0,0.0,3.9683,3.9268,3.8905,3.8102,3.7552,3.75,3.778,3.7981,3.7985,3.8279,3.8676,3.9221,3.9267,3.95,4.0046,4.1604,4.2626,4.2966,4.4531,4.5471,0.0,0.0,0.0,0.0,0.0,0.0,0.0,0.0,4.6565,4.6932,4.7432,4.8105,4.8913,4.926,4.9702,5.0221,5.0567,5.0702,5.0702,5.0702,5.0702,5.0702,5.0702,5.0702,5.0702,5.0702,5.0702,5.0702,5.0702,5.1279,5.201,5.2549,5.3318,5.4318,5.5665,5.6242,5.6703,5.7569,5.8415,5.9108,5.9435,6.0185,6.08,6.08,6.08,6.08,0.0,0.0,0.0,0.0,0.0,0.0,0.0,0.0,0.0,0.0,0.0,0.0,0.0,0.0,6.08,6.08,6.08,6.08,6.08,0.0,6.08,6.08,6.08,6.08,6.08,6.08,6.08,6.08,6.08,6.08,6.08,6.08,6.08,6.08,6.08,6.08,6.08,6.08,6.08,6.08,6.08,6.08,6.08,3.8531,0.0,3.925,0.0,4.025,4.0449,4.1004,4.0611,4.024,4.0252,3.9722,3.9114,3.8553,3.8736,3.8878,3.8887,3.9098,3.9494,4.0098,4.037,4.0772,4.1395,4.2986,0.0,4.3837,4.5118,4.58,4.58,4.58,0.0,0.0,0.0,0.0,0.0,4.6653,4.7197,4.7701,4.824,4.899,4.9779,4.9779,5.0144,5.0702,5.0702,5.0702,5.0702,5.0702,5.0702,5.0702,5.0702,5.0702,5.0702,5.0702,5.0702,5.0741,5.0971,5.1645,5.2472,5.3356,5.4395,5.5511,5.6684,5.7357,5.7896,5.8511,5.93,5.9877,5.9877,6.0358,6.08,6.08,6.08,6.08,6.08,0.0,0.0,0.0,0.0,0.0,0.0,0.0,6.08,6.08,0.0,0.0,0.0,0.0,0.0,6.08,6.08,6.08,0.0,0.0,0.0,6.08,6.08,6.08,6.08,6.08,6.08,6.08,6.08,6.08,6.08,6.08,6.08,6.08,6.08,6.08,6.08,6.08,6.08,6.08,6.08,6.08,6.08,3.843,3.9285,4.015,4.0943,4.1091,4.1094,4.1105,4.1099,4.1088,4.1088,4.1088,4.0402,3.8694,3.9268,3.9786,3.9786,4.0512,4.0976,4.0976,4.173,4.2188,0.0,0.0,4.4691,4.4691,4.5434,4.58,4.58,0.0,0.0,4.58,0.0,4.6244,4.7075,4.694,4.7869,4.9468,4.9413,4.9894,5.0683,5.0683,5.0683,5.0702,5.0702,5.0702,5.0702,5.0702,5.0702,5.0702,5.0702,5.0702,5.0702,5.0702,5.0702,5.0856,5.1664,5.251,5.3376,5.4241,5.5703,5.6953,5.6973,5.8242,5.9473,5.9473,6.0165,6.0781,6.0781,6.0781,6.08,6.08,6.08,6.08,6.08,0.0,0.0,0.0,0.0,0.0,0.0,6.08,6.08,6.08,0.0,0.0,0.0,0.0,0.0,0.0,0.0,0.0,6.08,6.08,0.0,6.08,6.08,6.08,6.08,6.08,6.08,6.08,6.08,6.08,6.08,6.08,6.08,6.08,6.08,6.08,6.08,6.08,6.08,6.08,6.08,6.08,6.0823,4.0136,4.0526,4.0819,4.1112,4.116,4.115,4.1116,4.1091,4.1108,4.1108,4.1108,4.089,4.0333,4.0525,4.0686,0.0,4.0922,4.1071,0.0,4.1276,4.1369,4.1369,4.2945,4.38,4.38,4.5125,4.58,4.58,0.0,0.0,0.0,4.6675,4.7124,4.7944,4.8491,4.902,4.9526,5.0066,5.0452,5.0702,5.0702,5.0702,5.0702,5.0702,5.0702,5.0702,5.0702,5.0702,5.0702,5.0702,5.0702,5.0798,5.1356,5.1529,5.1568,5.1837,5.2953,5.426,5.5088,5.6126,5.7261,5.8415,5.9108,5.9492,5.9492,5.93,5.9108,5.9108,5.9108,5.9108,5.9108,5.9108,5.9108,5.9108,5.955,0.0,0.0,0.0,0.0,0.0,6.08,6.08,0.0,6.08,0.0,0.0,0.0,0.0,0.0,0.0,0.0,0.0,6.08,0.0,6.08,6.08,6.08,6.08,6.08,6.08,6.08,6.08,6.08,6.08,6.08,6.08,6.08,6.08,6.08,6.08,6.08,6.08,6.08,6.08,6.08,6.08,4.1474,4.1599,4.1601,4.1641,4.1384,4.1142,4.1119,4.1097,4.1091,4.1104,4.1101,4.109,4.1072,4.1061,0.0,4.1091,4.111,4.111,4.111,4.1641,4.1941,4.1935,4.3488,4.4342,4.4298,4.5286,0.0,4.58,4.6129,4.6573,4.7115,4.7444,4.8029,4.8864,4.937,4.9765,5.0061,5.0545,5.072,5.0702,5.0702,5.0702,5.0702,5.0702,5.0702,5.0702,5.0702,5.0702,5.0741,5.1048,5.1144,5.1298,5.2125,5.2606,5.2876,5.2876,5.3857,5.5049,5.5549,5.6569,5.7646,5.8377,5.8819,5.905,5.905,5.8665,5.83,5.83,5.83,5.83,5.83,5.83,5.83,5.83,5.8723,5.905,5.905,0.0,0.0,0.0,0.0,0.0,0.0,6.08,6.08,0.0,0.0,0.0,0.0,0.0,0.0,6.08,6.08,0.0,6.08,6.08,6.08,6.08,6.08,6.08,6.08,6.08,6.08,6.08,6.08,6.08,6.08,6.08,6.08,6.08,6.08,6.08,6.08,6.08,6.08,6.08,4.249,4.249,4.248,0.0,4.1777,0.0,4.1185,4.1142,4.1116,4.1187,4.1139,4.112,4.1169,4.1124,4.1143,4.126,0.0,0.0,0.0,4.2665,4.349,4.35,4.4979,4.577,4.5722,4.5761,4.5819,4.5877,4.6689,4.7154,4.7289,4.8101,4.8952,4.9784,4.9718,5.0127,5.0899,5.0827,5.0775,5.0701,5.0701,5.0702,5.0702,5.0683,5.0702,5.0702,5.0702,5.0741,5.0894,5.1664,5.1952,5.2145,5.3029,5.3857,5.4491,5.4491,5.5068,5.5703,5.5761,5.6973,5.803,5.728,5.7646,5.8204,5.8204,5.8165,5.8127,5.8127,5.8127,5.8127,5.8127,5.8127,5.8127,5.8127,5.8165,5.8204,5.8204,0.0,0.0,0.0,0.0,0.0,0.0,6.08,6.08,0.0,0.0,0.0,0.0,0.0,6.08,6.08,6.08,6.08,6.08,6.08,6.08,6.08,6.08,6.08,6.08,6.08,6.08,6.08,6.08,6.08,6.08,6.08,6.08,6.08,6.08,6.08,6.08,6.08,6.08,6.0823,0.0,0.0,4.339,4.3398,4.2672,4.2095,4.2092,4.1531,4.1333,4.2017,4.152,4.1577,4.2856,4.2388,4.2272,4.2953,4.2403,4.2299,4.2961,4.3322,4.3501,4.351,4.44,4.4904,4.4891,4.549,4.6129,4.6786,4.6999,4.7773,4.9088,4.9301,4.9842,5.0635,5.06,5.072,5.0899,5.0863,5.0846,5.0775,5.072,5.0701,5.0702,5.0702,5.0702,5.0702,5.0702,5.1087,5.1664,5.1856,5.2337,5.3049,5.3914,5.4337,5.4491,5.4491,5.5068,5.5838,5.6511,5.6992,5.7415,5.7877,5.7646,5.73,5.73,5.678,5.6319,5.6319,5.6319,5.6319,5.6319,5.6319,5.6319,5.6319,5.6857,5.73,5.73,5.8415,0.0,0.0,6.0089,6.0569,6.0781,6.08,6.08,0.0,0.0,0.0,0.0,6.08,6.08,6.08,6.08,6.08,6.08,6.08,6.08,6.08,6.08,6.08,6.08,6.08,6.08,6.08,6.08,6.08,6.08,6.08,6.08,6.08,6.08,6.08,6.08,6.08,6.08,6.0823,4.4895,4.4563,4.4293,4.4297,4.3236,4.2399,4.2399,4.1663,4.14,4.2239,4.1941,4.2143,4.3408,4.3136,4.3194,4.4067,4.3381,4.3104,4.3559,4.3914,4.4083,4.4054,4.5168,4.5769,4.5742,4.6554,4.7212,4.7695,4.8082,4.8778,4.9707,5.0074,5.048,5.0906,5.0906,5.0909,5.0913,5.0913,5.088,5.0846,5.0775,5.072,5.0701,5.0702,5.0933,5.1241,5.1241,5.1798,5.2568,5.2953,5.3395,5.3933,5.478,5.5049,5.5049,5.5049,5.5626,5.6299,5.6376,5.6684,5.7011,5.7088,5.6761,5.6395,5.6395,5.603,5.5703,5.5703,5.5703,5.5703,5.5703,5.5703,5.5703,5.5703,5.6415,5.6992,5.6992,5.8127,0.0,5.9454,5.9915,6.0358,6.0762,6.08,6.08,6.08,6.08,0.0,6.08,6.08,6.08,6.08,6.08,6.08,6.08,6.08,6.08,6.08,6.08,6.08,6.08,6.08,6.08,6.08,6.08,6.08,6.08,6.08,6.08,6.08,6.08,6.08,6.08,6.08,6.0827,6.0853,4.6308,4.5703,4.5195,4.5195,4.386,4.2829,4.2955,4.2233,4.2002,4.2953,4.2843,4.305,4.3985,4.386,4.4044,4.4926,4.437,4.3985,4.3987,4.474,4.5143,4.5084,4.6569,4.7359,4.7289,4.8024,4.8469,4.8604,4.9339,4.9765,4.99,5.0577,5.0906,5.0906,5.0906,5.0906,5.0906,5.0906,5.0893,5.0899,5.0846,5.0852,5.0913,5.0895,5.1395,5.2106,5.2106,5.2664,5.351,5.4241,5.4587,5.4799,5.5472,5.5703,5.5703,5.5703,5.6222,5.6626,5.5895,5.6242,5.6626,5.5876,5.5703,5.5703,5.5703,5.5703,5.5703,5.5703,5.5703,5.5703,5.5703,5.5799,5.5895,5.5895,5.6626,5.7203,5.7203,0.0,5.8723,5.9415,5.9627,5.9992,6.0723,6.08,6.08,6.08,6.08,6.08,6.08,6.08,6.08,6.08,6.08,6.08,6.08,6.08,6.08,6.08,6.08,6.08,6.08,6.08,6.08,6.08,6.08,6.08,6.08,6.08,6.08,6.08,6.0804,6.0804,6.0804,6.0827,6.0875,6.0922,4.6308,4.6191,4.6094,4.6094,4.5271,4.4823,4.5514,4.4863,4.4863,4.6411,4.5324,4.5015,4.662,4.5473,4.4958,4.5821,4.5793,4.5743,4.5796,4.6494,4.6907,4.6909,4.774,4.8213,4.8198,4.8333,4.8759,4.9494,4.9629,5.0055,5.0732,5.0848,5.0906,5.0906,5.0906,5.0906,5.0906,5.0906,5.089,5.0909,5.088,5.129,5.1893,5.1818,5.23,5.301,5.301,5.3568,5.4318,5.4453,5.4953,5.553,5.5665,5.5703,5.5703,5.5703,5.5799,5.5857,5.5742,5.5799,5.5857,5.5722,5.5703,5.5703,5.5703,5.5703,5.5703,5.5703,5.5703,5.5703,5.5703,5.6299,5.6799,5.6799,5.753,5.8107,5.8107,0.0,5.9358,5.9492,6.0146,6.0646,6.0781,6.08,6.08,6.08,6.08,6.08,6.08,6.08,6.08,6.08,6.08,6.08,6.08,6.08,6.08,6.08,6.08,6.08,6.08,6.08,6.08,6.08,6.08,6.08,6.08,6.08,6.08,6.0823,6.0856,6.0877,6.0899,6.1021,6.1061,6.108,4.6308,4.6308,4.6308,4.6308,4.5946,4.5611,4.5514,4.517,4.5163,4.5896,4.5296,4.5278,4.6503,4.5929,4.5599,4.6018,4.6047,4.6076,4.6132,4.6871,4.7292,4.7295,4.8463,4.9301,4.9745,4.9745,4.9939,5.0345,5.0345,5.0538,5.0906,5.0906,5.0906,5.0906,5.0906,5.0906,5.0945,5.1409,5.1602,5.1641,5.2075,5.2466,5.2778,5.2742,5.3186,5.3897,5.3916,5.4434,5.5145,5.5145,5.5395,5.5703,5.5703,5.5703,5.5703,5.5703,5.5703,5.5703,5.5703,5.5703,5.5703,5.5703,5.5703,5.5703,5.5703,5.5703,5.5703,5.5703,5.5703,5.5838,5.6299,5.6722,5.7146,5.7607,5.8396,0.0,0.0,5.9665,6.0204,6.0204,6.055,6.08,6.08,6.08,6.08,6.08,6.08,6.08,6.08,6.08,6.08,6.08,6.08,6.08,6.08,6.08,6.08,6.08,6.08,6.08,6.08,6.08,6.0827,6.0853,6.0853,6.0853,6.0853,6.0853,6.0853,6.0853,6.0899,6.0922,6.1021,6.108,6.1116,6.1169,4.6555,4.6597,4.6639,4.6854,4.6843,4.6567,4.5889,4.5784,4.5757,4.5686,4.5502,4.5629,4.624,4.6113,4.6007,4.6026,4.6007,4.6026,4.6095,4.7023,4.7571,4.7583,4.9127,5.0268,5.0906,5.0906,5.0906,5.0906,5.0906,5.0906,5.0906,5.0906,5.0906,5.0925,5.1119,5.1196,5.1254,5.2124,5.2492,5.255,5.3174,5.3527,5.3702,5.3648,5.4111,5.4804,5.4802,5.5205,5.5703,5.5703,5.5703,5.5703,5.5703,5.5703,5.5703,5.5703,5.5703,5.5703,5.5703,5.5703,5.5703,5.5703,5.5703,5.5703,5.5703,5.5703,5.5703,5.5703,5.5857,5.6203,5.6876,5.7319,5.78,5.8473,0.0,0.0,0.0,6.0377,6.08,6.08,6.08,6.08,6.08,6.08,6.08,6.08,6.08,6.08,6.08,6.08,6.08,6.08,6.08,6.08,6.08,6.08,6.08,6.08,6.08,6.08,6.08,6.08,6.085,6.0901,6.0901,6.092,6.0962,6.0962,6.0962,6.0962,6.0963,6.1022,6.1136,6.1154,6.1186,6.1252,4.7345,4.7454,4.7666,4.8466,4.8616,4.856,4.8438,4.8418,4.8398,4.833,4.7609,4.7143,4.7201,4.6482,4.6026,4.6095,4.6037,4.6026,4.6095,4.7544,4.8419,4.8405,4.9959,5.0848,5.0906,5.0906,5.0906,5.0906,5.0906,5.0906,5.0906,5.0906,5.0906,5.0945,5.1738,5.2105,5.2163,5.3033,5.3401,5.3401,5.3478,5.3928,5.4608,5.459,5.5056,5.569,5.569,5.5688,5.5703,5.5703,5.5703,5.5703,5.5703,5.5703,5.5703,5.5703,5.5703,5.5703,5.5703,5.5703,5.5703,5.5703,5.5703,5.5703,5.5703,5.5703,5.5703,5.5703,5.6338,5.6915,5.6973,5.8261,5.9338,5.9396,0.0,0.0,6.0704,6.0762,6.08,6.08,6.08,6.08,6.08,6.08,6.08,6.08,6.08,6.08,6.08,6.08,6.08,6.08,6.08,6.08,6.08,6.08,6.08,6.08,6.08,6.08,6.08,6.08,6.085,6.0901,6.0901,6.0982,6.108,6.108,6.108,6.1099,6.115,6.1184,6.12,6.1337,6.1386,6.1386,4.6768,4.6716,4.6794,4.7125,4.7591,4.7746,4.7164,4.7505,4.7621,4.7056,4.6696,4.6482,4.6482,4.6191,4.6007,4.6037,4.6007,4.6007,4.6037,4.7571,4.8941,4.994,5.0573,5.0906,5.0906,5.0906,5.0906,5.0906,5.0906,5.1177,5.1718,5.1718,5.1989,5.2531,5.2859,5.3014,5.3053,5.3942,5.431,5.4349,5.4851,5.5221,5.5513,5.5497,5.5691,5.5924,5.5826,5.5787,5.5745,5.5724,5.5724,5.5766,5.5766,5.5766,5.5745,5.5724,5.5703,5.5703,5.5703,5.5703,5.5703,5.5703,5.5703,5.5703,5.5703,5.6107,5.6511,5.6511,5.7203,5.7953,5.8454,5.9069,5.9685,6.0223,0.0,6.08,6.08,6.08,6.08,6.08,6.08,6.08,6.08,6.08,6.08,6.08,6.08,6.08,6.08,6.08,6.08,6.08,6.08,6.08,6.08,6.08,6.08,6.08,6.08,6.08,6.08,6.08,6.0875,6.1022,6.1022,6.1079,6.1169,6.1169,6.1169,6.115,6.1184,6.1252,6.1337,6.1386,6.14,6.14,4.6677,4.6605,4.6695,4.6968,4.7462,4.7505,4.6639,4.698,4.7017,4.6113,4.5997,4.5997,4.5997,4.626,4.6445,4.6445,4.6931,4.7222,4.7222,4.8774,5.0051,5.0867,5.0906,5.0906,5.0906,5.1177,5.1312,5.1312,5.1583,5.2028,5.2608,5.2608,5.2917,5.3517,5.3788,5.3904,5.3962,5.4813,5.518,5.5238,5.578,5.6012,5.6012,5.5996,5.5999,5.5981,5.5866,5.5826,5.5787,5.5745,5.5766,5.5787,5.5826,5.5826,5.5787,5.5745,5.5724,5.5703,5.5703,5.5703,5.5703,5.5703,5.5703,5.5761,5.6049,5.6569,5.7069,5.7338,5.8088,5.8858,5.9396,5.9723,6.0108,6.0704,6.08,6.08,6.08,6.08,6.08,6.08,6.08,6.08,6.08,6.08,6.08,6.08,6.08,6.08,6.08,6.08,6.08,6.08,6.08,6.08,6.08,6.08,6.08,6.08,6.08,6.08,6.08,6.08,6.0916,6.1099,6.1099,6.1152,6.1252,6.1252,6.1252,6.1252,6.1252,6.1318,6.14,6.14,6.14,6.14,4.7345,4.7501,4.7774,4.8651,4.8733,4.8396,4.7542,4.7398,4.7087,4.6143,4.6016,4.6016,4.6016,4.6863,4.7427,4.7427,4.8953,4.9906,4.9925,5.1406,5.1886,5.0964,5.0925,5.0925,5.0925,5.1776,5.2202,5.2202,5.3072,5.3498,5.3517,5.3517,5.3517,5.3556,5.4426,5.4813,5.4851,5.5664,5.6012,5.6012,5.6012,5.6012,5.6012,5.6012,5.5996,5.5981,5.5924,5.5846,5.5787,5.5787,5.5787,5.5807,5.5885,5.5865,5.5787,5.5787,5.5745,5.5703,5.5703,5.5703,5.5703,5.5703,5.5703,5.5934,5.6799,5.6992,5.7261,5.8127,5.8954,5.9511,5.9511,6.0223,6.08,6.08,6.08,6.08,6.08,6.08,6.08,6.08,6.08,6.08,6.08,6.08,6.08,6.08,6.08,6.08,6.08,6.08,6.08,6.08,6.08,6.08,6.08,6.08,6.08,6.08,6.08,6.08,6.08,6.08,6.0916,6.1099,6.1099,6.1206,6.14,6.14,6.14,6.14,6.14,6.14,6.14,6.14,6.14,6.14,4.8475,4.8417,4.8495,4.8748,4.8733,4.8619,4.8338,4.8301,4.8205,4.7923,4.7884,4.7884,4.7884,4.8652,4.9137,4.9154,5.0122,5.0979,5.156,5.2022,5.2438,5.2705,5.2724,5.2724,5.2724,5.2975,5.3111,5.3111,5.3362,5.3807,5.4407,5.4407,5.4716,5.5277,5.5528,5.5644,5.5664,5.5896,5.6012,5.6012,5.6012,5.6012,5.6012,5.6012,5.5995,5.5996,5.5961,5.5962,5.5924,5.5885,5.5905,5.5943,5.5962,5.5961,5.5923,5.5827,5.5826,5.5826,5.5724,5.5703,5.5703,5.5703,5.6145,5.6665,5.6934,5.7896,5.8838,5.9088,5.9819,6.0416,6.0416,6.0608,6.08,6.08,6.08,6.08,6.08,6.08,6.08,6.08,6.08,6.08,6.08,6.08,6.08,6.08,6.08,6.08,6.08,6.08,6.08,6.08,6.08,6.08,6.08,6.08,6.08,6.08,6.08,6.08,6.08,6.0853,6.0941,6.1099,6.1152,6.1255,6.14,6.14,6.14,6.14,6.14,6.14,6.14,6.14,6.14,6.14,4.8904,4.8806,4.8806,4.8806,4.8733,4.8697,4.8697,4.8699,4.871,4.871,4.8992,4.9177,4.9177,5.0227,5.0925,5.0891,5.1942,5.2937,5.3755,5.3794,5.401,5.4465,5.4484,5.4175,5.3517,5.3846,5.4,5.4,5.4329,5.4755,5.5277,5.5277,5.5528,5.6012,5.6012,5.6012,5.6012,5.6012,5.6012,5.6012,5.6012,5.6012,5.6012,5.6012,5.6012,5.5995,5.5998,5.5999,5.5981,5.5962,5.5961,5.5998,5.5998,5.5996,5.5977,5.5885,5.5866,5.5943,5.6169,5.6203,5.6299,5.6646,5.6857,5.7165,5.7838,5.8761,5.9608,5.9935,6.0435,6.08,6.08,6.08,6.08,6.08,6.08,6.08,6.08,6.08,6.08,6.08,6.08,6.08,6.08,6.08,6.08,6.08,6.08,6.08,6.08,6.08,6.08,6.08,6.08,6.08,6.08,6.08,6.08,6.08,6.08,6.08,6.08,6.0856,6.0982,6.1099,6.1167,6.1287,6.14,6.14,6.14,6.14,6.14,6.14,6.14,6.14,6.14,6.14,4.9021,4.9021,4.9021,4.9021,4.8966,4.8939,4.8939,4.8991,4.906,4.906,4.9751,5.0256,5.0256,5.1733,5.2702,5.2627,5.4084,5.5322,5.604,5.6098,5.6046,5.5993,5.6012,5.5296,5.3749,5.4503,5.4909,5.4909,5.5644,5.6012,5.6012,5.6012,5.6012,5.6012,5.6012,5.6012,5.6012,5.6012,5.6012,5.6012,5.6012,5.6012,5.6012,5.6012,5.6012,5.5995,5.5998,5.5999,5.5999,5.5999,5.5996,5.6012,5.6012,5.6012,5.5995,5.5923,5.5962,5.6175,5.6823,5.7071,5.7319,5.8184,5.78,5.7607,5.9146,5.9569,5.9838,6.0627,6.08,6.08,6.08,6.08,6.08,6.08,6.08,6.08,6.08,6.08,6.08,6.08,6.08,6.08,6.08,6.08,6.08,6.08,6.08,6.08,6.08,6.08,6.08,6.08,6.08,6.08,6.08,6.08,6.08,6.08,6.08,6.08,6.0804,6.0877,6.0982,6.1117,6.1186,6.1287,6.14,6.14,6.14,6.14,6.14,6.14,6.14,6.14,6.14,6.14,5.0755,5.0755,5.0755,5.0755,5.0747,5.0747,5.0747,5.1315,5.1745,5.1745,5.2456,5.2951,5.2951,5.3841,5.4433,5.4369,5.5219,5.5852,5.601,5.6029,5.6012,5.6012,5.6012,5.5838,5.547,5.5644,5.5741,5.5741,5.5915,5.6012,5.6012,5.6012,5.6012,5.6012,5.6012,5.6012,5.6012,5.6012,5.6012,5.6012,5.6012,5.6012,5.6012,5.6012,5.6012,5.6012,5.5995,5.5995,5.5995,5.5995,5.5995,5.6012,5.6012,5.6082,5.6133,5.6012,5.646,5.7003,5.7042,5.7538,5.8204,5.905,5.9108,5.905,5.9415,6.0031,6.0569,6.0762,6.08,6.08,6.08,6.08,6.08,6.08,6.08,6.08,6.08,6.08,6.08,6.08,6.08,6.08,6.08,6.08,6.08,6.08,6.08,6.08,6.08,6.08,6.08,6.08,6.08,6.08,6.08,6.08,6.08,6.08,6.08,6.0827,6.0877,6.1002,6.1098,6.1184,6.1302,6.1366,6.14,6.14,6.14,6.14,6.14,6.14,6.14,6.14,6.14,6.14,5.13,5.13,5.13,5.13,5.1643,5.1927,5.1927,5.2621,5.3166,5.3166,5.3866,5.4369,5.4377,5.5087,5.5539,5.5482,5.5811,5.6012,5.6012,5.6012,5.6012,5.6012,5.6012,5.6012,5.6012,5.6012,5.6012,5.6012,5.6012,5.6012,5.6012,5.6012,5.6012,5.6012,5.6012,5.6012,5.6012,5.6012,5.6012,5.6012,5.6012,5.6012,5.6012,5.6012,5.6012,5.6012,5.6012,5.6012,5.6012,5.6012,5.6012,5.6012,5.6012,5.6369,5.6746,5.6665,5.7211,5.7947,5.8259,5.8599,5.9069,5.9915,6.0127,6.0127,6.0127,6.0473,6.08,6.08,6.08,6.08,6.08,6.08,6.08,6.08,6.08,6.08,6.08,6.08,6.08,6.08,6.08,6.08,6.08,6.08,6.08,6.08,6.08,6.08,6.08,6.08,6.08,6.08,6.08,6.08,6.08,6.08,6.0804,6.0853,6.0853,6.0875,6.092,6.106,6.1169,6.12,6.1337,6.14,6.14,6.14,6.14,6.14,6.14,6.14,6.14,6.14,6.14,6.14,5.1487,5.1507,5.1537,5.1693,5.2319,5.2816,5.2816,5.3497,5.4002,5.4012,5.4719,5.5209,5.5223,5.5805,5.6175,5.6098,5.6029,5.6012,5.6012,5.6012,5.6012,5.6012,5.6012,5.6012,5.6012,5.6012,5.6012,5.6012,5.6012,5.6012,5.6012,5.6012,5.6012,5.6012,5.6012,5.6012,5.6012,5.6012,5.6012,5.6012,5.6012,5.6012,5.6012,5.6012,5.6012,5.6012,5.6012,5.6012,5.6012,5.6012,5.6012,5.6031,5.6186,5.6756,5.7405,5.7514,5.8136,5.8894,5.9534,5.974,5.99,6.0608,6.08,6.08,6.08,6.08,6.08,6.08,6.08,6.08,6.08,6.08,6.08,6.08,6.08,6.08,6.08,6.0804,6.0804,6.08,6.08,6.08,6.08,6.08,6.08,6.08,6.08,6.08,6.08,6.08,6.08,6.08,6.08,6.08,6.08,6.0804,6.0831,6.0901,6.0942,6.0942,6.0963,6.1113,6.1217,6.1252,6.1352,6.14,6.14,6.14,6.14,6.14,6.14,6.14,6.14,6.14,6.14,6.14,5.2193,5.2349,5.2582,5.3331,5.3565,5.3653,5.3633,5.4313,5.4866,5.4918,5.5571,5.6071,5.6117,5.6117,5.6098,5.6029,5.6012,5.6012,5.6012,5.6012,5.6012,5.6012,5.6012,5.6012,5.6012,5.6012,5.6012,5.6012,5.6012,5.6012,5.6012,5.6012,5.6012,5.6012,5.6012,5.6012,5.6012,5.6012,5.6012,5.6012,5.6012,5.6012,5.6012,5.6012,5.6012,5.6012,5.6012,5.6012,5.6012,5.6012,5.6012,5.6128,5.6902,5.726,5.7556,5.8277,5.913,5.9811,5.9783,6.0248,6.0743,6.0785,6.08,6.08,6.08,6.08,6.08,6.08,6.08,6.08,6.08,6.08,6.08,6.08,6.08,6.08,6.08,6.0853,6.0856,6.0823,6.08,6.08,6.08,6.08,6.08,6.08,6.08,6.08,6.08,6.08,6.08,6.08,6.08,6.08,6.08,6.0853,6.0899,6.0901,6.1079,6.1167,6.1167,6.1184,6.1252,6.1366,6.1386,6.14,6.14,6.14,6.14,6.14,6.14,6.14,6.14,6.14,6.14,6.14,5.3126,5.3273,5.3389,5.3798,5.4237,5.4529,5.4538,5.5216,5.5746,5.5769,5.6026,5.6209,5.6194,5.6114,5.6029,5.5993,5.6012,5.6012,5.6012,5.6012,5.6012,5.6012,5.6012,5.6012,5.6012,5.6012,5.6012,5.6012,5.6012,5.6012,5.6012,5.6012,5.6012,5.6012,5.6012,5.6012,5.6012,5.6012,5.6012,5.6012,5.6012,5.6012,5.6012,5.6012,5.6012,5.6012,5.6012,5.6012,5.607,5.6573,5.6728,5.6882,5.7753,5.8385,5.8881,5.9301,6.0021,6.0646,6.059,6.0732,6.088,6.0856,6.0827,6.08,6.08,6.08,6.08,6.08,6.08,6.08,6.08,6.08,6.08,6.08,6.08,6.0804,6.0853,6.0877,6.092,6.096,6.0897,6.0897,6.096,6.0872,6.0804,6.0853,6.0827,6.08,6.08,6.08,6.08,6.08,6.085,6.0853,6.0853,6.0962,6.1041,6.1079,6.1167,6.12,6.12,6.1287,6.1352,6.14,6.14,6.14,6.14,6.14,6.14,6.14,6.14,6.14,6.14,6.14,6.14,6.14]},{"header":{"parameterUnit":"m.s-1","parameterCategory":1,"la1":30.6,"la2":28.766,"lo1":-90.7593,"lo2":-88.6598,"dx":0.0162,"dy":0.0183,"nx":116,"ny":114,"refTime":"2023-01-31T18:00:00:Z","depth":0,"parameterNumber":3,"parameterNumberName":"V-component_of_WINDS"},"data":[0.0,0.0,0.0,0.0,0.0,0.0,0.0,0.0,0.0,0.0,0.0,0.0,0.0,0.0,0.0,0.0,0.0,0.0,0.0,0.0,0.0,0.0,0.0,0.0,0.0,0.0,0.0,0.0,0.0,0.0,0.0,0.0,0.0,0.0,0.0,0.0,0.0,0.0,0.0,0.0,0.0,0.0,0.0,0.0,0.0,0.0,0.0,0.0,0.0,0.0,0.0,0.0,0.0,0.0,0.0,0.0,0.0,0.0,0.0,0.0,0.0,0.0,0.0,0.0,0.0,0.0,0.0,0.0,0.0,0.0,0.0,0.0,0.0,0.0,0.0,0.0,0.0,0.0,0.0,0.0,0.0,0.0,0.0,0.0,0.0,0.0,0.0,0.0,0.0,0.0,0.0,0.0,0.0,0.0,0.0,0.0,0.0,0.0,0.0,0.0,0.0,0.0,0.0,0.0,0.0,0.0,0.0,0.0,0.0,0.0,0.0,0.0,0.0,0.0,0.0,0.0,0.0,0.0,0.0,0.0,0.0,0.0,0.0,0.0,0.0,0.0,0.0,0.0,0.0,0.0,0.0,0.0,0.0,0.0,0.0,0.0,0.0,0.0,0.0,0.0,0.0,0.0,0.0,0.0,0.0,0.0,0.0,0.0,0.0,0.0,0.0,0.0,0.0,0.0,0.0,0.0,0.0,0.0,0.0,0.0,0.0,0.0,0.0,0.0,0.0,0.0,0.0,0.0,0.0,0.0,0.0,0.0,0.0,0.0,0.0,0.0,0.0,0.0,0.0,0.0,0.0,0.0,0.0,0.0,0.0,0.0,0.0,0.0,0.0,0.0,0.0,0.0,0.0,0.0,0.0,0.0,0.0,0.0,0.0,0.0,0.0,0.0,0.0,0.0,0.0,0.0,0.0,0.0,0.0,0.0,0.0,0.0,0.0,0.0,0.0,0.0,0.0,0.0,0.0,0.0,0.0,0.0,0.0,0.0,0.0,0.0,0.0,0.0,0.0,0.0,0.0,0.0,0.0,0.0,0.0,0.0,0.0,0.0,0.0,0.0,0.0,0.0,0.0,0.0,0.0,0.0,0.0,0.0,0.0,0.0,0.0,0.0,0.0,0.0,0.0,0.0,0.0,0.0,0.0,0.0,0.0,0.0,0.0,0.0,0.0,0.0,0.0,0.0,0.0,0.0,0.0,0.0,0.0,0.0,0.0,0.0,0.0,0.0,0.0,0.0,0.0,0.0,0.0,0.0,0.0,0.0,0.0,0.0,0.0,0.0,0.0,0.0,0.0,0.0,0.0,0.0,0.0,0.0,0.0,0.0,0.0,0.0,0.0,0.0,0.0,0.0,0.0,0.0,0.0,0.0,0.0,0.0,0.0,0.0,0.0,0.0,0.0,0.0,0.0,0.0,0.0,0.0,0.0,0.0,0.0,0.0,0.0,0.0,0.0,0.0,0.0,0.0,0.0,0.0,0.0,0.0,0.0,0.0,0.0,0.0,0.0,0.0,0.0,0.0,0.0,0.0,0.0,0.0,0.0,0.0,0.0,0.0,0.0,0.0,0.0,0.0,0.0,0.0,0.0,0.0,0.0,0.0,0.0,0.0,0.0,0.0,0.0,0.0,0.0,0.0,0.0,0.0,0.0,0.0,0.0,0.0,0.0,0.0,0.0,0.0,0.0,0.0,0.0,0.0,0.0,0.0,0.0,0.0,0.0,0.0,0.0,0.0,0.0,0.0,0.0,0.0,0.0,0.0,0.0,0.0,0.0,0.0,0.0,0.0,0.0,0.0,0.0,0.0,0.0,0.0,0.0,0.0,0.0,0.0,0.0,0.0,0.0,0.0,0.0,0.0,0.0,0.0,0.0,0.0,0.0,0.0,0.0,0.0,0.0,0.0,0.0,0.0,0.0,0.0,0.0,0.0,0.0,0.0,0.0,0.0,0.0,0.0,0.0,0.0,0.0,0.0,0.0,0.0,0.0,0.0,0.0,0.0,0.0,0.0,0.0,0.0,0.0,0.0,0.0,0.0,0.0,0.0,0.0,0.0,0.0,0.0,0.0,0.0,0.0,0.0,0.0,0.0,0.0,0.0,0.0,0.0,0.0,0.0,0.0,0.0,0.0,0.0,0.0,0.0,0.0,0.0,0.0,0.0,0.0,0.0,0.0,0.0,0.0,0.0,0.0,0.0,0.0,0.0,0.0,0.0,0.0,0.0,0.0,0.0,0.0,0.0,0.0,0.0,0.0,0.0,0.0,0.0,0.0,0.0,0.0,0.0,0.0,0.0,0.0,0.0,0.0,0.0,0.0,0.0,0.0,0.0,0.0,0.0,0.0,0.0,0.0,0.0,0.0,0.0,0.0,0.0,0.0,0.0,0.0,0.0,0.0,0.0,0.0,0.0,0.0,0.0,0.0,0.0,0.0,0.0,0.0,0.0,0.0,0.0,0.0,0.0,0.0,0.0,0.0,0.0,0.0,0.0,0.0,0.0,0.0,0.0,0.0,0.0,0.0,0.0,0.0,0.0,0.0,0.0,0.0,0.0,0.0,0.0,0.0,0.0,0.0,0.0,0.0,0.0,0.0,0.0,0.0,0.0,0.0,0.0,0.0,0.0,0.0,0.0,0.0,0.0,0.0,0.0,0.0,0.0,0.0,0.0,0.0,0.0,0.0,0.0,0.0,0.0,0.0,0.0,0.0,0.0,0.0,0.0,0.0,0.0,0.0,0.0,0.0,0.0,0.0,0.0,0.0,0.0,0.0,0.0,0.0,0.0,0.0,0.0,0.0,0.0,0.0,0.0,0.0,0.0,0.0,0.0,0.0,0.0,0.0,0.0,0.0,0.0,0.0,0.0,0.0,0.0,0.0,0.0,0.0,0.0,0.0,0.0,0.0,0.0,0.0,0.0,0.0,0.0,0.0,0.0,0.0,0.0,0.0,0.0,0.0,0.0,0.0,0.0,0.0,0.0,0.0,0.0,0.0,0.0,0.0,0.0,0.0,0.0,0.0,0.0,0.0,0.0,0.0,0.0,0.0,0.0,0.0,0.0,0.0,0.0,0.0,0.0,0.0,0.0,0.0,0.0,0.0,0.0,0.0,0.0,0.0,0.0,0.0,0.0,0.0,0.0,0.0,0.0,0.0,0.0,0.0,0.0,0.0,0.0,0.0,0.0,0.0,0.0,0.0,0.0,0.0,0.0,0.0,0.0,0.0,0.0,0.0,0.0,0.0,0.0,0.0,0.0,0.0,0.0,0.0,0.0,0.0,0.0,0.0,0.0,0.0,0.0,0.0,0.0,0.0,0.0,0.0,0.0,0.0,0.0,0.0,0.0,0.0,0.0,0.0,0.0,0.0,0.0,0.0,0.0,0.0,0.0,0.0,0.0,0.0,0.0,0.0,0.0,0.0,0.0,0.0,0.0,0.0,0.0,0.0,0.0,0.0,0.0,0.0,0.0,0.0,0.0,0.0,0.0,0.0,0.0,0.0,0.0,0.0,0.0,0.0,0.0,0.0,0.0,0.0,0.0,0.0,0.0,0.0,0.0,0.0,0.0,0.0,0.0,0.0,0.0,0.0,0.0,0.0,0.0,0.0,0.0,0.0,0.0,0.0,0.0,0.0,0.0,0.0,0.0,0.0,0.0,0.0,0.0,0.0,0.0,0.0,0.0,0.0,0.0,0.0,0.0,0.0,0.0,0.0,0.0,0.0,0.0,0.0,0.0,0.0,0.0,0.0,0.0,0.0,0.0,0.0,0.0,0.0,0.0,0.0,0.0,0.0,0.0,0.0,0.0,0.0,0.0,0.0,0.0,0.0,0.0,0.0,0.0,0.0,0.0,0.0,0.0,0.0,0.0,0.0,0.0,0.0,0.0,0.0,0.0,0.0,0.0,0.0,0.0,0.0,0.0,0.0,0.0,0.0,0.0,0.0,0.0,0.0,0.0,0.0,0.0,0.0,0.0,0.0,0.0,0.0,0.0,0.0,0.0,0.0,0.0,0.0,0.0,0.0,0.0,0.0,0.0,0.0,0.0,0.0,0.0,0.0,0.0,0.0,0.0,0.0,0.0,0.0,0.0,0.0,0.0,0.0,0.0,0.0,0.0,0.0,0.0,0.0,0.0,0.0,0.0,0.0,0.0,0.0,0.0,0.0,0.0,0.0,0.0,0.0,0.0,0.0,0.0,0.0,0.0,0.0,0.0,0.0,0.0,0.0,0.0,0.0,0.0,0.0,0.0,0.0,0.0,0.0,0.0,0.0,0.0,0.0,0.0,0.0,0.0,0.0,0.0,0.0,0.0,0.0,0.0,0.0,0.0,0.0,0.0,0.0,0.0,0.0,0.0,0.0,0.0,0.0,0.0,0.0,0.0,0.0,0.0,0.0,0.0,0.0,0.0,0.0,0.0,0.0,0.0,0.0,0.0,0.0,0.0,0.0,0.0,0.0,0.0,0.0,0.0,0.0,0.0,0.0,0.0,0.0,0.0,0.0,0.0,0.0,0.0,0.0,0.0,0.0,0.0,0.0,0.0,0.0,0.0,0.0,0.0,0.0,0.0,0.0,0.0,0.0,0.0,0.0,0.0,0.0,0.0,0.0,0.0,0.0,0.0,0.0,0.0,0.0,0.0,0.0,0.0,0.0,0.0,0.0,0.0,0.0,0.0,0.0,0.0,0.0,0.0,0.0,0.0,0.0,0.0,0.0,0.0,0.0,0.0,0.0,0.0,0.0,0.0,0.0,0.0,0.0,0.0,0.0,0.0,0.0,0.0,0.0,0.0,0.0,0.0,0.0,0.0,0.0,0.0,0.0,0.0,0.0,0.0,0.0,0.0,0.0,0.0,0.0,0.0,0.0,0.0,0.0,0.0,0.0,0.0,0.0,0.0,0.0,0.0,0.0,0.0,0.0,0.0,0.0,0.0,0.0,0.0,0.0,0.0,0.0,0.0,0.0,0.0,0.0,0.0,0.0,0.0,0.0,0.0,0.0,0.0,0.0,0.0,0.0,0.0,0.0,0.0,0.0,0.0,0.0,0.0,0.0,0.0,0.0,0.0,0.0,0.0,0.0,0.0,0.0,0.0,0.0,0.0,0.0,0.0,0.0,0.0,0.0,0.0,0.0,0.0,0.0,0.0,0.0,0.0,0.0,0.0,0.0,0.0,0.0,0.0,0.0,0.0,0.0,0.0,0.0,0.0,0.0,0.0,0.0,0.0,0.0,0.0,0.0,0.0,0.0,0.0,0.0,0.0,0.0,0.0,0.0,0.0,0.0,0.0,0.0,0.0,0.0,0.0,0.0,0.0,0.0,0.0,0.0,0.0,0.0,0.0,0.0,0.0,0.0,0.0,0.0,0.0,0.0,0.0,0.0,0.0,0.0,0.0,0.0,0.0,0.0,0.0,0.0,0.0,0.0,0.0,0.0,0.0,0.0,0.0,0.0,0.0,0.0,0.0,0.0,0.0,0.0,0.0,0.0,0.0,0.0,0.0,0.0,0.0,0.0,0.0,0.0,0.0,0.0,0.0,0.0,0.0,0.0,0.0,0.0,0.0,0.0,0.0,0.0,0.0,0.0,0.0,0.0,0.0,0.0,0.0,0.0,0.0,0.0,0.0,0.0,0.0,0.0,0.0,0.0,0.0,0.0,0.0,0.0,0.0,0.0,0.0,0.0,0.0,0.0,0.0,0.0,0.0,0.0,0.0,0.0,0.0,0.0,0.0,0.0,0.0,0.0,0.0,0.0,0.0,0.0,0.0,0.0,0.0,0.0,0.0,0.0,0.0,0.0,0.0,0.0,0.0,0.0,0.0,0.0,0.0,0.0,0.0,0.0,0.0,0.0,0.0,0.0,0.0,0.0,0.0,0.0,0.0,0.0,0.0,0.0,0.0,0.0,0.0,0.0,0.0,0.0,0.0,0.0,0.0,0.0,0.0,0.0,0.0,0.0,0.0,0.0,0.0,0.0,0.0,0.0,0.0,0.0,0.0,0.0,0.0,0.0,0.0,0.0,0.0,0.0,0.0,0.0,0.0,0.0,0.0,0.0,0.0,0.0,0.0,0.0,0.0,0.0,0.0,0.0,0.0,0.0,0.0,0.0,0.0,0.0,0.0,-0.4232,0.0,0.0,0.0,0.0,0.0,0.0,0.0,0.0,0.0,0.0,0.0,0.0,0.0,0.0,0.0,0.0,0.0,0.0,0.0,0.0,0.0,0.0,0.0,0.0,0.0,0.0,0.0,0.0,0.0,0.0,0.0,0.0,0.0,0.0,0.0,0.0,0.0,0.0,0.0,0.0,0.0,0.0,0.0,0.0,0.0,0.0,0.0,0.0,0.0,0.0,0.0,0.0,0.0,0.0,0.0,0.0,0.0,0.0,0.0,0.0,0.0,0.0,0.0,0.0,0.0,0.0,0.0,0.0,0.0,0.0,0.0,0.0,0.0,0.0,0.0,0.0,0.0,0.0,0.0,0.0,0.0,0.0,0.0,0.0,0.0,0.0,0.0,0.0,0.0,0.0,0.0,0.0,0.0,0.0,0.0,0.0,0.0,0.0,0.0,0.0,0.0,0.0,0.0,0.0,0.0,0.0,0.0,0.0,0.0,0.0,0.0,0.0,0.0,0.0,0.0,0.0,-0.4157,0.0,0.0,0.0,0.0,0.0,0.0,0.0,0.0,0.0,0.0,0.0,0.0,0.0,0.0,0.0,0.0,0.0,0.0,0.0,0.0,0.0,0.0,0.0,0.0,0.0,0.0,0.0,0.0,0.0,0.0,0.0,0.0,0.0,0.0,0.0,0.0,0.0,0.0,0.0,0.0,0.0,0.0,0.0,0.0,0.0,0.0,0.0,0.0,0.0,0.0,0.0,0.0,0.0,0.0,0.0,0.0,0.0,0.0,0.0,0.0,0.0,0.0,0.0,0.0,0.0,0.0,0.0,0.0,0.0,0.0,0.0,0.0,0.0,0.0,0.0,0.0,0.0,0.0,0.0,0.0,0.0,0.0,0.0,0.0,0.0,0.0,0.0,0.0,0.0,0.0,0.0,0.0,0.0,0.0,0.0,0.0,0.0,0.0,0.0,0.0,0.0,0.0,0.0,0.0,0.0,0.0,0.0,0.0,-0.5164,-0.5105,-0.5047,-0.4844,-0.4631,-0.4399,-0.4189,-0.4053,-0.3958,-0.3827,0.0,0.0,0.0,0.0,0.0,0.0,0.0,0.0,0.0,0.0,0.0,0.0,0.0,0.0,0.0,0.0,0.0,0.0,0.0,0.0,0.0,0.0,0.0,0.0,0.0,0.0,0.0,0.0,0.0,0.0,0.0,0.0,0.0,0.0,0.0,0.0,0.0,0.0,-1.9991,-2.0597,-2.0957,-2.1229,0.0,0.0,0.0,0.0,0.0,0.0,0.0,0.0,0.0,0.0,0.0,0.0,0.0,0.0,0.0,0.0,0.0,0.0,0.0,0.0,0.0,0.0,0.0,0.0,0.0,0.0,0.0,0.0,0.0,0.0,0.0,0.0,0.0,0.0,0.0,0.0,0.0,0.0,0.0,0.0,0.0,0.0,0.0,0.0,-0.6063,-0.5862,0.0,0.0,0.0,0.0,0.0,0.0,0.0,0.0,0.0,0.0,0.0,0.0,0.0,-0.5533,-0.5376,-0.5432,-0.5297,-0.5167,-0.5123,-0.4995,-0.4803,-0.4686,-0.456,-0.4327,-0.3279,0.0,-0.3918,-0.3617,0.0,0.0,0.0,0.0,0.0,0.0,0.0,0.0,0.0,0.0,0.0,0.0,0.0,0.0,0.0,0.0,0.0,0.0,0.0,0.0,0.0,0.0,0.0,0.0,0.0,0.0,0.0,0.0,0.0,0.0,0.0,0.0,0.0,0.0,0.0,0.0,-1.9978,-1.9978,-1.9307,-2.0194,-2.0709,-2.097,-2.1299,-2.1894,-2.2711,-2.3275,0.0,0.0,0.0,0.0,0.0,0.0,0.0,0.0,0.0,0.0,0.0,0.0,0.0,0.0,0.0,0.0,0.0,0.0,0.0,0.0,0.0,0.0,0.0,0.0,0.0,0.0,0.0,0.0,0.0,0.0,0.0,0.0,0.0,0.0,0.0,0.0,0.0,0.0,0.0,-0.554,-0.5536,-0.5071,-0.5258,-0.5585,0.0,0.0,0.0,0.0,0.0,0.0,0.0,0.0,0.0,-0.5494,-0.5494,-0.5485,-0.54,-0.531,-0.5195,-0.5068,-0.4888,-0.4489,-0.3887,-0.3751,-0.3332,-0.2793,-0.2698,-0.2848,-0.3178,-0.2906,-0.2841,-0.2846,0.0,0.0,0.0,0.0,-0.2389,-0.2194,0.0,0.0,0.0,0.0,0.0,0.0,0.0,0.0,0.0,0.0,0.0,0.0,0.0,0.0,0.0,-1.6946,0.0,0.0,0.0,0.0,0.0,0.0,0.0,0.0,0.0,0.0,0.0,0.0,-1.9463,-1.9619,-1.898,-1.9991,-2.061,-2.0957,-2.1188,-2.1846,-2.277,-2.3157,-2.3623,0.0,0.0,0.0,0.0,0.0,0.0,0.0,0.0,0.0,0.0,0.0,0.0,0.0,0.0,0.0,0.0,0.0,0.0,0.0,0.0,0.0,0.0,0.0,0.0,0.0,0.0,0.0,0.0,0.0,0.0,0.0,0.0,0.0,0.0,0.0,0.0,0.0,0.0,-0.4475,-0.4527,-0.4238,-0.4267,-0.4596,0.0,0.0,0.0,0.0,0.0,0.0,-0.5521,-0.5331,-0.5227,-0.5155,-0.5192,-0.503,-0.4716,-0.4665,-0.4473,-0.428,-0.4045,-0.3485,-0.2679,-0.2679,-0.2304,-0.1799,-0.1908,-0.2026,-0.2151,-0.2498,-0.2748,-0.2752,-0.2884,-0.2982,-0.3139,-0.2746,-0.223,-0.1787,0.0,0.0,0.0,0.0,0.0,0.0,0.0,0.0,0.0,0.0,0.0,0.0,0.0,0.0,-1.6358,-1.6358,-1.5796,-1.5633,0.0,0.0,0.0,0.0,0.0,0.0,0.0,0.0,0.0,-1.8147,-1.8857,-1.9319,-1.9554,-2.0245,-2.0871,-2.1361,-2.1902,-2.2137,-2.2077,-2.2463,-2.2904,-2.3363,0.0,0.0,0.0,0.0,0.0,0.0,0.0,0.0,0.0,0.0,0.0,0.0,0.0,0.0,0.0,0.0,0.0,0.0,0.0,0.0,0.0,0.0,0.0,0.0,0.0,0.0,0.0,0.0,0.0,0.0,0.0,0.0,0.0,0.0,0.0,0.0,0.0,0.0,0.0,-0.3236,-0.2953,0.0,0.0,0.0,0.0,-0.5378,-0.5425,-0.5385,-0.5436,-0.4711,-0.4169,-0.3997,-0.3979,-0.3582,-0.275,-0.3097,-0.2876,-0.2074,-0.2078,-0.181,-0.1407,-0.1608,-0.2012,-0.2549,-0.0671,-0.0205,-0.0914,-0.2885,-0.3834,-0.3917,-0.3295,-0.3215,-0.3368,-0.2981,-0.199,-0.0731,0.0,0.0,0.0,0.0,0.0,0.0,0.0,0.0,0.0,0.0,0.0,0.0,0.0,-1.541,-1.5128,-1.5128,-1.4961,-1.4961,-1.5313,0.0,0.0,0.0,0.0,0.0,0.0,0.0,-1.7512,-1.7952,-1.8471,-1.8804,-1.8963,-1.9384,-1.985,-2.0422,-2.1228,-2.2002,-2.263,-2.3108,-2.3435,-2.371,-2.4758,-2.4522,0.0,0.0,0.0,0.0,0.0,0.0,0.0,0.0,0.0,0.0,0.0,0.0,0.0,0.0,0.0,0.0,0.0,0.0,0.0,0.0,0.0,0.0,0.0,0.0,0.0,0.0,0.0,0.0,0.0,0.0,0.0,0.0,0.0,0.0,0.0,0.0,0.0,-0.3166,-0.3099,0.0,-0.3032,-0.3089,-0.3299,-0.3752,-0.3693,-0.3556,-0.3285,-0.2743,-0.2582,-0.304,-0.3317,-0.3306,-0.2991,-0.2247,-0.1694,-0.1369,-0.1595,-0.1274,-0.047,-0.0537,-0.0335,0.0067,0.0348,0.0284,-0.0,-0.1223,-0.1318,-0.0766,-0.1168,-0.141,-0.1566,-0.1175,-0.0955,-0.0894,0.0,0.0,0.0,0.0,0.0,0.0,0.0,0.0,0.0,0.0,0.0,-1.5099,-1.4852,-1.4309,-1.401,-1.4258,-1.407,-1.413,-1.4359,0.0,0.0,0.0,0.0,0.0,0.0,-1.6853,-1.7134,-1.7854,-1.8061,-1.8375,-1.8721,-1.9028,-1.9344,-1.9772,-2.0733,-2.1779,-2.2857,-2.3357,-2.3746,-2.3967,-2.4596,-2.4218,-2.3451,0.0,0.0,0.0,0.0,0.0,0.0,0.0,0.0,0.0,0.0,0.0,0.0,0.0,0.0,0.0,0.0,0.0,0.0,0.0,0.0,0.0,0.0,0.0,0.0,0.0,0.0,0.0,0.0,0.0,0.0,0.0,0.0,0.0,0.0,0.0,-0.2317,-0.2674,-0.2513,-0.2293,-0.2244,-0.2617,-0.256,-0.1842,-0.1524,-0.1385,-0.125,-0.0971,-0.1033,-0.1548,-0.1841,-0.1934,-0.1934,-0.09,-0.0326,-0.0391,-0.0532,-0.0201,0.0538,0.0475,0.0749,0.1229,0.1,0.0876,0.0811,0.061,0.1155,0.1914,0.0311,-0.0548,-0.0862,-0.0548,-0.0554,-0.0643,0.0,0.0,0.0,0.0,0.0,0.0,0.0,0.0,0.0,0.0,-1.4172,-1.4103,-1.4387,-1.345,-1.3078,-1.37,-1.326,-1.307,-1.3191,-1.4103,0.0,0.0,0.0,0.0,-1.6955,-1.6591,-1.6818,-1.7711,-1.759,-1.8018,-1.8999,-1.9226,-1.9436,-1.9617,-2.0422,-2.1455,-2.2698,-2.32,-2.3588,-2.3873,-2.3778,-2.3652,-2.3466,0.0,0.0,0.0,0.0,0.0,0.0,0.0,0.0,0.0,0.0,0.0,0.0,0.0,0.0,0.0,0.0,0.0,0.0,0.0,0.0,0.0,0.0,0.0,0.0,0.0,0.0,0.0,0.0,0.0,0.0,0.0,0.0,0.0,-0.1542,-0.094,-0.0789,-0.167,-0.0947,-0.0755,-0.1539,-0.313,-0.2813,0.0247,0.0901,0.0897,0.0493,0.0433,0.0433,0.0433,0.0446,0.0453,0.0582,0.0931,0.1078,0.1077,0.1212,0.1414,0.162,0.1456,0.1121,0.07,0.1442,0.1626,0.1507,0.2344,0.3147,0.3526,0.0861,-0.0705,-0.1411,-0.1254,-0.0783,0.0,0.0,0.0,0.0,0.0,0.0,0.0,0.0,0.0,0.0,0.0,-1.3692,-1.3381,-1.307,-1.2765,-1.2634,-1.2826,-1.2887,-1.3009,-1.3381,0.0,0.0,0.0,0.0,0.0,-1.6534,-1.6534,-1.6864,-1.7523,-1.7523,-1.7799,-1.8356,-1.8333,-1.8548,-1.9076,-1.9896,-2.0711,-2.1535,-2.3232,-2.384,-2.3716,-2.4056,-2.3811,-2.3216,0.0,0.0,0.0,0.0,0.0,0.0,0.0,0.0,0.0,0.0,0.0,0.0,0.0,0.0,0.0,0.0,0.0,0.0,0.0,0.0,0.0,0.0,0.0,0.0,0.0,0.0,0.0,0.0,0.0,0.0,0.0,0.0,-0.0671,-0.0671,-0.0672,-0.0724,-0.0869,-0.0696,-0.0381,0.0245,-0.0122,-0.0123,0.0573,0.0931,0.0918,0.0432,0.0757,0.0766,0.0574,0.0788,0.0933,0.0933,0.1075,0.1089,0.1108,0.1108,0.133,0.1642,0.1654,0.1731,0.1877,0.2073,0.2105,0.197,0.2544,0.2807,0.2823,0.2195,0.188,0.18,0.1881,0.1723,0.1564,0.0,0.0,0.0,0.0,0.0,0.0,0.0,0.0,0.0,0.0,-1.3191,-1.2704,-1.232,-1.202,-1.1834,-1.202,-1.2151,-1.2343,-1.2343,0.0,0.0,0.0,0.0,-1.4991,-1.6056,-1.5921,-1.6379,-1.7301,-1.7301,-1.7468,-1.7865,-1.7952,-1.8116,-1.8476,-1.9203,-1.9986,-2.0747,-2.2165,-2.303,-2.3523,-2.3858,-2.3885,-2.3673,-2.2896,-2.2655,-2.2546,-2.1921,-2.101,-2.0054,-1.9978,0.0,0.0,0.0,0.0,0.0,0.0,0.0,0.0,0.0,0.0,0.0,0.0,0.0,0.0,0.0,0.0,0.0,0.0,0.0,0.0,0.0,0.0,0.0,0.0,-0.0,0.0405,0.0887,0.0406,0.0199,0.0772,0.039,0.0521,0.1669,0.1648,0.1401,0.1115,0.128,0.1264,0.0896,0.1172,0.1248,0.1051,0.1149,0.1234,0.1234,0.1165,0.118,0.1282,0.1268,0.1493,0.1897,0.1844,0.2075,0.2373,0.2356,0.2458,0.2694,0.2965,0.3214,0.0,0.0,0.0,0.0,0.0,0.2194,0.1957,0.0,0.0,0.0,0.0,0.0,0.0,0.0,0.0,0.0,0.0,0.0,-1.2143,-1.1826,-1.1163,-1.0856,-1.1149,-1.1358,-1.131,0.0,0.0,0.0,-1.3906,-1.3623,-1.4034,-1.5371,-1.4963,-1.5429,-1.6719,-1.6775,-1.6944,-1.7234,-1.7655,-1.782,-1.7843,-1.8344,-1.9132,-2.0138,-2.0482,-2.1588,-2.3078,-2.3182,-2.3696,-2.4183,-2.2428,-2.2049,-2.233,-2.1135,-2.0344,-1.9837,-1.9876,0.0,0.0,0.0,0.0,0.0,0.0,0.0,0.0,0.0,0.0,0.0,0.0,0.0,0.0,0.0,0.0,0.0,0.0,0.0,0.0,0.0,0.0,0.0,0.0,0.1215,0.1568,0.2451,0.1859,0.1695,0.2572,0.1897,0.1763,0.2639,0.2452,0.2114,0.1762,0.1791,0.1786,0.1695,0.0,0.0,0.0,0.0,0.1479,0.1479,0.1267,0.1284,0.1538,0.1645,0.1865,0.221,0.226,0.2356,0.2585,0.2408,0.2743,0.3446,0.3448,0.3995,0.4621,0.3686,0.2902,0.2352,0.188,0.1802,0.1959,0.0,0.0,0.0,0.0,0.0,0.0,0.0,0.0,0.0,-1.3053,-1.2496,-1.1764,-1.0541,-1.0238,-1.0174,-1.0231,-1.0674,-1.0933,0.0,0.0,-1.2035,-1.2443,-1.2626,-1.3174,-1.4264,-1.4076,-1.4305,-1.5138,-1.5255,-1.5419,-1.5756,-1.5995,-1.6472,-1.7168,-1.7168,-1.7822,-1.8994,-1.9998,-2.0718,-2.1247,-2.1825,-2.239,-2.2865,-2.2517,-2.1546,-2.0322,-1.9773,-1.947,-1.9168,-1.8677,-1.8069,-1.7464,-1.7188,0.0,0.0,0.0,0.0,0.0,0.0,0.0,0.0,0.0,0.0,0.0,0.0,0.0,0.0,0.0,0.0,0.0,0.0,0.0,0.0,0.0208,0.1321,0.2177,0.2376,0.2803,0.2986,0.2717,0.2548,0.2561,0.3066,0.268,0.2424,0.2509,0.2356,0.2212,0.2011,0.2013,0.194,0.1796,0.1733,0.1738,0.1738,0.1664,0.1687,0.173,0.0,0.0,0.271,0.3031,0.3269,0.3505,0.3363,0.3212,0.321,0.3763,0.4387,0.4927,0.4543,0.4231,0.3992,0.3834,0.3834,0.3912,0.0,0.0,0.0,0.0,0.0,0.0,0.0,0.0,0.0,0.0,-1.2128,-1.1212,-0.9919,-0.9926,-0.9983,-0.9983,-1.0428,0.0,0.0,-1.0996,-1.1311,-1.1574,-1.1772,-1.2411,-1.352,-1.341,-1.368,-1.4414,-1.4474,-1.4728,-1.5002,-1.5196,-1.5718,-1.6652,-1.6765,-1.739,-1.8422,-1.9144,-1.9937,-2.0721,-2.0921,-2.1274,-2.1614,-2.1198,-2.0591,-1.9858,-1.8928,-1.8242,-1.7767,-1.7534,-1.6789,-1.5939,-1.5652,-1.5119,-1.4483,0.0,0.0,0.0,0.0,0.0,0.0,0.0,0.0,0.0,0.0,0.0,0.0,0.0,0.0,-0.2397,0.0,0.0,0.0492,0.1353,0.2,0.2524,0.2663,0.3043,0.3248,0.3207,0.3165,0.3174,0.3279,0.2873,0.2584,0.2623,0.2548,0.2475,0.2332,0.2478,0.2407,0.2042,0.2066,0.2154,0.2229,0.2303,0.2498,0.2668,0.3177,0.3454,0.3491,0.3651,0.3974,0.4297,0.4216,0.4373,0.4693,0.5103,0.5347,0.5508,0.5431,0.5036,0.4548,0.4604,0.4703,0.4867,0.0,0.0,0.0,0.0,0.0,0.0,0.0,0.0,0.0,0.0,-1.1873,-1.0968,-0.967,-0.9798,-0.9989,0.0,0.0,0.0,0.0,-1.0631,-1.0763,-1.1128,-1.1201,-1.1769,-1.287,-1.2745,-1.2987,-1.3755,-1.3829,-1.4012,-1.4243,-1.441,-1.4963,-1.5776,-1.6063,-1.6754,-1.7788,-1.805,-1.8922,-2.0184,-1.9969,-2.0122,-2.0306,-1.9461,-1.9317,-1.9464,-1.8237,-1.7231,-1.6452,-1.6492,-1.5536,-1.4381,-1.4201,-1.3666,-1.3071,-1.2717,-1.2259,0.0,0.0,0.0,0.0,0.0,0.0,0.0,0.0,0.0,-0.4584,-0.3922,-0.2627,-0.1338,-0.0422,0.0573,0.1602,0.2492,0.2642,0.2739,0.2961,0.3049,0.3275,0.3652,0.3577,0.3575,0.3499,0.3121,0.2946,0.2886,0.2881,0.2881,0.2808,0.3031,0.2959,0.2591,0.2726,0.2913,0.3066,0.3312,0.362,0.4001,0.4492,0.4698,0.4525,0.461,0.4861,0.5194,0.5111,0.5444,0.6191,0.636,0.6379,0.6325,0.6325,0.5876,0.5236,0.5235,0.5423,0.5595,0.0,0.0,0.0,0.0,0.0,0.0,0.0,0.0,0.0,0.0,0.0,0.0,0.0,0.0,0.0,0.0,0.0,0.0,-1.0416,-1.0645,-1.0797,-1.0823,-1.1165,-1.1519,-1.203,-1.1859,-1.1974,-1.2385,-1.2588,-1.2613,-1.2477,-1.2873,-1.3321,-1.3819,-1.3819,-1.4876,-1.6497,-1.6553,-1.7279,-1.8383,-1.8383,-1.8629,-1.8965,-1.7768,-1.7518,-1.7759,-1.7589,-1.704,-1.6247,-1.5537,-1.4893,-1.4347,-1.3902,-1.3226,-1.25,-1.2178,0.0,-1.094,-1.0162,-0.8731,-0.7307,-0.6461,-0.547,-0.4677,0.0,0.0,-0.3201,-0.3548,-0.2273,-0.094,-0.0579,0.0508,0.1392,0.1803,0.2336,0.2811,0.2804,0.3202,0.3433,0.3513,0.3511,0.3589,0.3746,0.3671,0.3744,0.3891,0.3969,0.3889,0.3655,0.3655,0.3655,0.3657,0.413,0.4336,0.4416,0.4918,0.5229,0.5256,0.5738,0.5995,0.5939,0.6363,0.6536,0.6536,0.6117,0.6034,0.6117,0.636,0.6689,0.7154,0.7243,0.73,0.7198,0.6659,0.6783,0.7119,0.0,0.0,0.0,0.0,0.0,0.0,0.0,0.0,0.0,0.0,0.0,0.0,0.0,0.0,0.0,0.0,0.0,0.0,-1.0021,-1.0128,-1.0253,-1.0544,-1.0692,-1.112,-1.1781,-1.1616,-1.16,-1.1817,-1.192,-1.204,-1.2166,-1.2437,-1.3003,-1.3747,-1.3647,-1.431,-1.5615,-1.6244,-1.6508,-1.6507,-1.7088,-1.7148,-1.6933,-1.6158,-1.578,-1.5664,-1.6206,-1.5694,0.0,0.0,-1.3951,-1.331,-1.2992,-1.2296,-1.1602,-1.1475,-1.0644,0.0,-0.8301,-0.7177,0.0,0.0,-0.4867,-0.4046,-0.4254,-0.3578,-0.301,-0.3079,-0.1532,-0.0149,-0.0,0.1429,0.2668,0.0,0.3168,0.3411,0.3524,0.3606,0.3684,0.3684,0.3684,0.3684,0.3604,0.3604,0.3684,0.4079,0.4079,0.4077,0.4151,0.4444,0.4636,0.4475,0.4978,0.5366,0.5527,0.5744,0.6062,0.6395,0.6564,0.6695,0.6691,0.6867,0.7042,0.7218,0.74,0.7442,0.7274,0.762,0.7789,0.7945,0.7945,0.8166,0.839,0.7685,0.7535,0.7712,0.0,0.0,0.0,0.0,0.0,0.0,0.0,0.0,0.0,0.0,0.0,0.0,0.0,0.0,0.0,0.0,0.0,0.0,0.0,-0.98,-0.9918,-1.0239,-1.0244,-1.0625,-1.1403,-1.1357,-1.1401,-1.1546,-1.1613,-1.1744,-1.1875,-1.1997,-1.2497,-1.3204,-1.3071,-1.358,-1.4639,-1.5467,-1.5533,-1.5207,-1.5894,-1.5913,-1.551,-1.4971,-1.4495,-1.4199,-1.4976,-1.4396,0.0,0.0,-1.2895,-1.2127,-1.1969,-1.141,-1.0698,-1.0571,-0.9618,-0.828,-0.6785,0.0,0.0,-0.5129,-0.4143,-0.3391,-0.3949,-0.346,-0.2796,-0.265,-0.0899,0.061,0.0381,0.2243,0.3682,0.3604,0.3763,0.3929,0.4189,0.409,0.4006,0.4187,0.4166,0.4073,0.3992,0.3915,0.4081,0.4663,0.4666,0.4757,0.4944,0.5431,0.556,0.5476,0.6013,0.6418,0.6666,0.6874,0.7208,0.7666,0.7666,0.7642,0.7672,0.7716,0.7756,0.7893,0.8382,0.8444,0.818,0.8567,0.8644,0.8596,0.869,0.891,0.9131,0.8629,0.8336,0.8348,0.0,0.0,0.0,0.0,0.0,0.0,0.0,0.0,0.0,0.0,0.0,0.0,0.0,0.0,0.0,0.0,0.0,0.0,0.0,-0.9994,-0.99,-0.9906,-0.9906,-1.0212,-1.0812,-1.0807,-1.1099,-1.1694,-1.1775,-1.1631,-1.1268,-1.1266,-1.1348,-1.1416,-1.1403,-1.213,-1.3462,-1.3462,-1.4024,-1.4836,-1.4845,-1.5147,-1.5379,-1.4322,-1.3925,-1.3925,-1.4144,0.0,0.0,0.0,-1.1663,-1.1066,-1.105,-1.056,0.0,-0.9426,-0.8464,0.0,0.0,0.0,-0.4522,-0.3968,-0.3059,-0.2326,-0.2762,-0.2447,-0.2114,-0.2114,-0.0307,0.1093,0.0391,0.2501,0.407,0.3288,0.3684,0.4187,0.4515,0.4444,0.4577,0.5156,0.5072,0.5004,0.0,0.5085,0.5286,0.6048,0.6138,0.6199,0.6427,0.6436,0.6526,0.6778,0.7344,0.7765,0.7928,0.8537,0.8982,0.9248,0.9248,0.9253,0.9266,0.9182,0.8993,0.8691,0.8699,0.861,0.8426,0.8613,0.8808,0.8968,0.9252,0.9453,0.9612,0.9604,0.9477,0.9363,0.0,0.0,0.0,0.0,0.0,0.0,0.0,0.0,0.0,0.0,0.0,0.0,0.0,0.0,0.0,0.0,0.0,0.0,0.0,-0.9948,-0.9771,-0.9549,-0.9003,-0.915,-1.0218,-0.9125,-0.92,-1.0519,-1.0112,-1.0142,-1.0535,-1.0809,-1.0985,-1.0979,-1.101,-1.1275,-1.1823,-1.2851,-1.293,-1.2542,-1.3707,-1.3739,-1.3097,-1.2736,-1.2557,-1.2505,0.0,0.0,0.0,0.0,0.0,0.0,-0.9731,0.0,0.0,-0.6941,0.0,0.0,0.0,0.0,-0.4438,-0.2943,-0.2345,-0.2025,-0.1755,-0.1465,-0.1246,-0.1029,0.0551,0.1958,0.2038,0.3288,0.4384,0.4151,0.4678,0.511,0.5069,0.5495,0.5744,0.5698,0.6044,0.0,0.0,0.0,0.0,0.6151,0.6485,0.6723,0.7102,0.737,0.7685,0.803,0.8545,0.881,0.8896,0.9052,0.9174,0.9262,0.93,0.9246,0.9192,0.897,0.8838,0.8715,0.8831,0.8886,0.8802,0.9204,0.9482,0.9633,0.973,0.9866,0.9821,0.9821,0.9668,0.9362,0.0,0.0,0.0,0.0,0.0,0.0,0.0,0.0,0.0,0.0,0.0,0.0,0.0,0.0,0.0,0.0,0.0,0.0,0.0,0.0,-0.8775,-0.8241,-0.7702,-0.7851,-0.8761,-0.7753,-0.7753,-0.8983,-0.8908,-0.9135,-0.9604,-1.0137,-1.0443,-1.0507,-1.0563,-1.0712,-1.0925,-1.2056,-1.2019,-1.132,-1.248,-1.2374,-1.1576,-1.1401,-1.1296,0.0,0.0,0.0,0.0,0.0,0.0,0.0,0.0,0.0,0.0,0.0,0.0,0.0,0.0,-0.4179,-0.374,-0.2272,-0.1844,-0.1638,-0.1031,-0.0711,-0.0473,-0.032,0.0951,0.2193,0.2743,0.3992,0.5021,0.5221,0.5492,0.5839,0.6089,0.6527,0.6777,0.6889,0.7293,0.76,0.0,0.0,0.0,0.7204,0.7469,0.7724,0.803,0.8312,0.8635,0.8901,0.9196,0.9349,0.9432,0.9504,0.9575,0.9732,0.9587,0.9565,0.9476,0.9374,0.9214,0.9092,0.9589,0.9546,0.9267,0.987,1.0117,1.0117,1.0314,1.0417,1.0417,1.022,1.01,0.9955,0.0,0.0,0.0,0.0,0.0,0.0,0.0,0.0,0.0,0.0,0.0,0.0,0.0,0.0,0.0,0.0,0.0,0.0,0.0,0.0,0.0,-0.6318,-0.6163,-0.6314,-0.6765,-0.6689,-0.6839,-0.7363,-0.8134,-0.8452,-0.8304,-0.9155,-0.962,-0.9765,-1.0067,-1.0368,-1.0812,-1.1186,-1.126,-1.1111,-1.1335,-1.126,-1.1007,-1.0385,0.0,0.0,0.0,0.0,0.0,0.0,0.0,0.0,0.0,0.0,0.0,0.0,0.0,-0.5047,-0.5881,-0.4421,-0.2454,-0.1781,-0.1465,-0.1058,-0.0488,-0.008,0.0157,0.0079,0.102,0.2036,0.0,0.0,0.5983,0.6192,0.6031,0.6359,0.7468,0.7465,0.7592,0.0,0.0,0.0,0.0,0.0,0.0,0.9061,0.0,0.9145,0.9336,0.9345,0.9345,0.9432,0.9454,0.9551,0.9722,0.9929,1.0227,1.0603,1.0408,1.0233,1.0149,1.0437,1.0246,0.9727,1.0801,1.0609,0.9723,1.0801,1.0904,1.0511,1.1012,1.1222,1.1133,1.0636,1.0706,1.0968,0.0,0.0,0.0,0.0,0.0,0.0,0.0,0.0,0.0,0.0,0.0,0.0,0.0,0.0,0.0,0.0,0.0,0.0,0.0,0.0,0.0,0.0,0.0,0.0,0.0,0.0,0.0,0.0,0.0,-0.5915,-0.6777,-0.7778,-0.8318,-0.8394,-0.9165,-0.9771,-1.0143,-1.0588,-1.0887,-1.1111,0.0,-1.1031,-1.0415,0.0,0.0,0.0,0.0,0.0,0.0,0.0,0.0,0.0,0.0,0.0,-0.4176,0.0,0.0,-0.3906,-0.2853,-0.2925,-0.3049,-0.1305,-0.057,-0.0326,-0.0163,0.0324,0.0807,0.0968,0.2333,0.3756,0.0,0.0,0.0,0.5986,0.6445,0.0,0.7079,0.7813,0.0,0.0,0.0,0.9149,0.9065,0.9748,0.0,0.0,0.9611,0.9465,1.0033,1.0038,1.0294,1.0809,1.0964,1.1141,1.1136,1.1189,1.1313,1.1322,1.1077,1.1015,1.0923,1.1021,1.0951,1.0806,1.1096,1.09,1.0511,1.0801,1.0904,1.1016,1.1074,1.1239,1.1358,1.1198,1.1088,1.1021,0.0,0.0,0.0,0.0,0.0,0.0,0.0,0.0,0.0,0.0,0.0,0.0,0.0,0.0,0.0,0.0,0.0,0.0,0.0,0.0,0.0,0.0,0.0,0.0,0.0,0.0,0.0,0.0,0.0,0.0,0.0,-0.6623,-0.7322,-0.771,-0.8322,-0.8937,-0.9544,0.0,0.0,0.0,0.0,0.0,0.0,0.0,0.0,0.0,0.0,0.0,0.0,0.0,0.0,-0.5549,-0.4856,-0.4401,-0.4011,-0.3064,0.0,-0.2952,-0.1128,-0.1642,-0.2235,-0.0744,0.041,0.1058,0.0895,0.113,0.1443,0.1523,0.3465,0.0,0.0,0.0,0.0,0.0,0.0,0.0,0.7889,0.8487,0.8967,0.0,0.9649,0.0,1.0118,1.0651,1.0895,0.0,1.0381,1.0381,1.0722,1.0737,1.1009,1.1457,1.1645,1.1693,1.179,1.1821,1.1854,1.178,1.1661,1.1569,1.1394,1.1492,1.1389,1.1096,0.0,1.1349,1.0744,1.1236,1.1487,1.1472,1.1635,1.1836,1.1957,1.1643,1.1659,1.1645,0.0,0.0,0.0,0.0,0.0,0.0,0.0,0.0,0.0,0.0,0.0,0.0,0.0,0.0,0.0,0.0,0.0,0.0,0.0,0.0,0.0,0.0,0.0,0.0,0.0,0.0,0.0,0.0,0.0,0.0,0.0,0.0,0.0,0.0,0.0,0.0,0.0,0.0,0.0,0.0,0.0,0.0,0.0,0.0,0.0,0.0,0.0,0.0,0.0,0.0,-0.516,-0.4932,-0.427,-0.4307,-0.4267,-0.2431,-0.1994,-0.1706,-0.0244,-0.033,-0.0745,-0.0,0.1328,0.237,0.2029,0.2004,0.2061,0.2211,0.0,0.6121,0.5687,0.0,0.8474,0.8893,0.0,0.8656,0.9199,0.9221,0.9395,1.0268,1.0525,1.0809,1.1154,1.1294,1.1337,1.1163,1.139,1.1488,1.1424,1.1389,1.1642,1.1899,1.1895,1.2011,1.2263,1.2224,1.2304,1.2217,1.2191,1.198,1.1683,1.1878,1.1605,1.1039,1.2026,0.0,1.095,1.1861,1.2171,1.1911,1.2429,1.2653,1.2565,1.2149,1.2214,1.2526,0.0,0.0,0.0,0.0,0.0,0.0,0.0,0.0,0.0,0.0,0.0,0.0,0.0,0.0,0.0,0.0,0.0,0.0,0.0,0.0,0.0,0.0,0.0,0.0,0.0,0.0,0.0,0.0,0.0,0.0,0.0,0.0,0.0,0.0,0.0,0.0,0.0,0.0,0.0,0.0,0.0,0.0,0.0,0.0,0.0,0.0,0.0,0.0,0.0,0.0,-0.3459,-0.3982,-0.4688,-0.3298,-0.1291,-0.081,0.0248,0.1253,0.1134,0.1059,0.0963,0.1017,0.1677,0.2236,0.2075,0.2516,0.0,0.0,0.0,0.6622,0.7244,0.7902,0.0,0.8465,0.0,0.0,0.0,0.0,1.0045,0.0,0.0,0.0,0.0,0.0,0.0,0.0,0.0,1.2709,1.1935,1.2058,1.2484,1.3204,1.2975,1.3111,1.3554,1.3408,1.3204,1.3243,1.2856,1.2565,1.2273,1.2078,1.1983,1.2064,1.2264,0.0,1.1971,1.2177,1.2196,1.2142,1.2516,1.271,1.2976,1.3056,1.3048,1.3093,0.0,0.0,0.0,0.0,0.0,0.0,0.0,0.0,0.0,0.0,0.0,0.0,0.0,0.0,0.0,0.0,0.0,0.0,0.0,0.0,0.0,0.0,0.0,0.0,0.0,0.0,0.0,0.0,0.0,0.0,0.0,0.0,0.0,0.0,0.0,0.0,0.0,0.0,0.0,0.0,0.0,0.0,0.0,0.0,0.0,0.0,0.0,0.0,0.0,0.0,-0.277,-0.2586,-0.2429,-0.158,-0.0482,0.0333,0.1514,0.2452,0.2244,0.2153,0.204,0.1995,0.2212,0.2428,0.2567,0.0,0.0,0.0,0.0,0.6708,0.6975,0.0,0.0,0.0,0.0,0.0,0.0,0.0,0.0,0.0,0.0,0.0,0.0,0.0,0.0,0.0,0.0,1.3009,1.2703,1.2833,1.3073,1.3297,1.3193,1.3248,1.369,1.3446,1.3319,1.3319,1.291,1.2667,1.2375,1.22,1.2119,1.2128,1.2238,0.0,1.2197,1.2197,1.2365,1.2578,1.269,1.2939,1.3163,1.3058,1.3098,1.3098,0.0,0.0,0.0,0.0,0.0,0.0,0.0,0.0,0.0,0.0,0.0,0.0,0.0,0.0,0.0,0.0,0.0,0.0,0.0,0.0,0.0,0.0,0.0,0.0,0.0,0.0,0.0,0.0,0.0,0.0,0.0,0.0,0.0,0.0,0.0,0.0,0.0,0.0,0.0,0.0,0.0,0.0,0.0,0.0,0.0,0.0,0.0,0.0,0.0,0.0,-0.2102,-0.101,0.0249,0.0249,0.0084,0.1183,0.2117,0.2797,0.2711,0.2763,0.2726,0.2712,0.2668,0.2723,0.3099,0.3207,0.0,0.0,0.0,0.0,0.0,0.0,0.0,0.0,0.0,0.0,0.0,0.0,0.0,0.0,0.0,0.0,0.0,0.0,0.0,0.0,0.0,0.0,1.3311,1.3402,1.3308,1.3104,1.3055,1.3133,1.343,1.3241,1.3147,1.3147,1.291,1.2639,1.2356,1.2289,1.2117,1.1967,1.2127,0.0,0.0,1.2205,1.2407,1.2881,1.2881,1.3098,1.3315,1.3098,1.2989,1.2994,0.0,0.0,0.0,0.0,0.0,0.0,0.0,0.0,0.0,0.0,0.0,0.0,0.0,0.0,0.0,0.0,0.0,0.0,0.0,0.0,0.0,0.0,0.0,0.0,0.0,0.0,0.0,0.0,0.0,0.0,0.0,0.0,0.0,0.0,0.0,0.0,0.0,0.0,0.0,0.0,0.0,0.0,0.0,0.0,0.0,0.0,0.0,0.0,0.0,0.0,0.0,0.0519,0.1901,0.1964,0.1691,0.1809,0.0,0.0,0.2253,0.2511,0.2753,0.2699,0.2847,0.3013,0.335,0.0,0.0,0.0,0.0,0.0,0.0,0.0,0.0,0.0,0.0,0.0,0.0,0.0,0.0,0.0,0.0,0.0,0.0,0.0,0.0,0.0,0.0,0.0,1.3192,1.3093,1.3104,1.3104,1.2904,1.2894,1.3083,1.3061,1.3147,1.3055,1.287,1.2578,1.2299,1.2006,1.1898,1.2087,1.2101,0.0,0.0,1.2413,1.2531,1.2881,1.2881,1.3098,1.3315,1.3315,1.3207,1.3232,0.0,0.0,0.0,0.0,0.0,0.0,0.0,0.0,0.0,0.0,0.0,0.0,0.0,0.0,0.0,0.0,0.0,0.0,0.0,0.0,0.0,0.0,0.0,0.0,0.0,0.0,0.0,0.0,0.0,0.0,0.0,0.0,0.0,0.0,0.0,0.0,0.0,0.0,0.0,0.0,0.0,0.0,0.0,0.0,0.0,0.0,0.0,0.0,0.0,0.0,0.0,0.0,0.2389,0.2642,0.0,0.0,0.2567,0.2656,0.2567,0.2896,0.3208,0.318,0.3227,0.329,0.359,0.0,0.0,0.0,0.0,0.8086,0.8873,0.0,0.0,0.0,0.0,0.0,0.0,0.0,0.0,0.0,0.0,0.0,0.0,0.0,0.0,0.0,0.0,0.0,1.291,1.3331,1.3342,1.2904,1.2813,1.2861,1.3147,1.3095,1.3062,1.3068,1.2803,1.2511,1.2215,1.2021,1.2058,1.2148,1.2266,0.0,0.0,1.2441,1.255,1.2881,1.2881,1.3173,1.3507,1.3287,1.3372,1.3394,0.0,0.0,0.0,0.0,0.0,0.0,0.0,0.0,0.0,0.0,0.0,0.0,0.0,0.0,0.0,0.0,0.0,0.0,0.0,0.0,0.0,0.0,0.0,0.0,0.0,0.0,0.0,0.0,0.0,0.0,0.0,0.0,0.0,0.0,0.0,0.0,0.0,0.0,0.0,0.0,0.0,0.0,0.0,0.0,0.0,0.0,0.0,0.0,0.0,0.0,0.0,0.0,0.0,0.0,0.0,0.0,0.2957,0.2953,0.2935,0.3146,0.3445,0.3467,0.3502,0.3555,0.0,0.0,0.0,0.5692,0.7112,0.8341,0.9043,1.0497,1.1581,1.1671,0.0,1.2263,0.0,0.0,0.0,0.0,0.0,0.0,0.0,0.0,0.0,0.0,0.0,0.0,1.3346,1.397,1.3791,1.2867,1.2829,1.2959,1.3057,1.3093,1.3111,1.3116,1.274,1.2432,1.2338,1.224,1.2228,1.2238,1.2375,0.0,0.0,1.2441,1.2583,1.2974,1.2869,1.3106,1.3511,1.3287,1.3276,1.3303,0.0,0.0,0.0,0.0,0.0,0.0,0.0,0.0,0.0,0.0,0.0,0.0,0.0,0.0,0.0,0.0,0.0,0.0,0.0,0.0,0.0,0.0,0.0,0.0,0.0,0.0,0.0,0.0,0.0,0.0,0.0,0.0,0.0,0.0,0.0,0.0,0.0,0.0,0.0,0.0,0.0,0.0,0.0,0.0,0.0,0.0,0.0,0.0,0.0,0.0,0.0,0.0,0.0,0.0,0.0,0.0,0.3047,0.3123,0.2882,0.3076,0.3379,0.3454,0.3587,0.3825,0.0,0.0,0.0,0.6239,0.7727,0.9131,0.9749,1.1077,1.196,0.0,0.0,0.0,0.0,0.0,0.0,0.0,0.0,0.0,0.0,0.0,0.0,0.0,0.0,0.0,1.47,1.4948,1.438,1.2867,1.298,1.3104,1.3104,1.3036,1.2951,1.2956,1.2665,1.2457,1.2462,1.2454,1.2436,1.2436,0.0,0.0,0.0,1.2441,1.2669,1.3189,1.2869,1.3115,1.3521,1.3179,1.3065,1.3098,0.0,0.0,0.0,0.0,0.0,0.0,0.0,0.0,0.0,0.0,0.0,0.0,0.0,0.0,0.0,0.0,0.0,0.0,0.0,0.0,0.0,0.0,0.0,0.0,0.0,0.0,0.0,0.0,0.0,0.0,0.0,0.0,0.0,0.0,0.0,0.0,0.0,0.0,0.0,0.0,0.0,0.0,0.0,0.0,0.0,0.0,0.0,0.0,0.0,0.0,0.0,0.0,0.0,0.0,0.0,0.0,0.0,0.0,0.3379,0.3671,0.3976,0.4058,0.4017,0.4159,0.4625,0.0,0.6154,0.6953,0.8698,1.0135,1.0382,1.1711,1.2779,1.2768,0.0,0.0,0.0,0.0,0.0,0.0,0.0,0.0,0.0,0.0,0.0,0.0,0.0,0.0,1.419,1.4424,1.4248,1.3599,1.3629,1.365,1.365,1.3588,1.3393,1.2975,1.2996,1.2778,1.2454,1.2408,1.2441,0.0,0.0,0.0,0.0,1.2602,1.2812,1.2888,1.3031,1.3217,1.3403,1.3287,1.3377,1.3523,0.0,0.0,0.0,0.0,0.0,0.0,0.0,0.0,0.0,0.0,0.0,0.0,0.0,0.0,0.0,0.0,0.0,0.0,0.0,0.0,0.0,0.0,0.0,0.0,0.0,0.0,0.0,0.0,0.0,0.0,0.0,0.0,0.0,0.0,0.0,0.0,0.0,0.0,0.0,0.0,0.0,0.0,0.0,0.0,0.0,0.0,0.0,0.0,0.0,0.0,0.0,0.0,0.0,0.0,0.0,0.0,0.0,0.0,0.0,0.3972,0.4104,0.4368,0.45,0.0,0.0,0.0,0.6789,0.8001,0.9425,1.0725,1.141,1.2608,1.3423,1.3193,0.0,0.0,0.0,0.0,0.0,0.0,0.0,0.0,0.0,0.0,0.0,0.0,0.0,0.0,1.4542,1.4891,1.4906,1.4645,1.4482,1.4399,1.4494,1.4426,1.4067,1.3444,1.3479,1.3063,1.2441,1.2441,1.2441,0.0,0.0,0.0,0.0,1.2791,1.2928,1.3013,1.314,1.332,1.3499,1.3499,1.358,1.3707,0.0,0.0,0.0,0.0,0.0,0.0,0.0,0.0,0.0,0.0,0.0,0.0,0.0,0.0,0.0,0.0,0.0,0.0,0.0,0.0,0.0,0.0,0.0,0.0,0.0,0.0,0.0,0.0,0.0,0.0,0.0,0.0,0.0,0.0,0.0,0.0,0.0,0.0,0.0,0.0,0.0,0.0,0.0,0.0,0.0,0.0,0.0,0.0,0.0,0.0,0.0,0.0,0.0,0.0,0.0,0.0,0.0,0.0,0.0,0.0,0.0,0.0,0.0,0.0,0.0,0.0,0.0,0.905,0.9993,1.088,1.2763,1.3558,1.3731,1.3385,0.0,0.0,0.0,0.0,0.0,0.0,0.0,0.0,0.0,0.0,0.0,0.0,0.0,0.0,1.5537,1.6082,1.6178,1.5976,1.5552,1.5338,1.5551,1.544,1.4986,1.4224,1.3855,1.3297,1.246,1.2446,1.2446,0.0,0.0,0.0,0.0,1.3008,1.3206,1.3391,1.3405,1.3523,1.3688,1.3688,1.3688,1.3693,0.0,0.0,0.0,0.0,0.0,0.0,0.0,0.0,0.0,0.0,0.0,0.0,0.0,0.0,0.0,0.0,0.0,0.0,0.0,0.0,0.0,0.0,0.0,0.0,0.0,0.0,0.0,0.0,0.0,0.0,0.0,0.0,0.0,0.0,0.0,0.0,0.0,0.0,0.0,0.0,0.0,0.0,0.0,0.0,0.0,0.0,-0.0626,0.0,0.0,0.0,0.0,0.0,0.0,0.0,0.0,0.0,0.448,0.0,0.0,0.0,0.0,0.0,0.0,0.0,0.0,0.0,0.0,0.0,0.0,1.1201,1.189,1.3017,1.4039,0.0,0.0,0.0,0.0,0.0,0.0,0.0,0.0,0.0,0.0,0.0,0.0,0.0,0.0,1.5848,1.5804,1.6326,1.6715,1.6803,1.6702,1.6405,1.6157,1.5678,1.535,1.5142,1.4653,1.3993,1.3337,1.3173,1.2974,0.0,0.0,0.0,1.3013,1.3225,1.3343,1.3405,1.3561,1.3646,1.3688,1.3688,1.3688,1.3712,0.0,0.0,0.0,0.0,0.0,0.0,0.0,0.0,0.0,0.0,0.0,0.0,0.0,0.0,0.0,0.0,0.0,0.0,0.0,0.0,0.0,0.0,0.0,0.0,0.0,0.0,0.0,0.0,0.0,0.0,0.0,0.0,0.0,0.0,0.0,0.0,0.0,0.0,0.0,0.0,0.0,0.0,0.0,0.0,0.0,0.0,-0.0358,0.0358,0.0,0.2867,0.3676,0.3762,0.0,0.0,0.0,0.0,0.4748,0.0,0.0,0.0,0.0,0.0,0.0,0.0,0.0,0.0,0.0,0.0,0.0,0.0,1.2791,0.0,0.0,0.0,0.0,0.0,0.0,0.0,0.0,0.0,0.0,0.0,0.0,0.0,0.0,0.0,0.0,1.6,1.6247,1.6658,1.6948,1.7086,1.7207,1.7086,1.6827,1.6446,1.5991,1.5558,1.517,1.462,1.4077,1.3952,1.3971,0.0,0.0,0.0,1.4452,1.468,1.4471,1.4157,1.427,1.4014,1.3688,1.3688,1.3688,1.3707,0.0,0.0,0.0,0.0,0.0,0.0,0.0,0.0,0.0,0.0,0.0,0.0,0.0,0.0,0.0,0.0,0.0,0.0,0.0,0.0,0.0,0.0,0.0,0.0,0.0,0.0,0.0,0.0,0.0,0.0,0.0,0.0,0.0,0.0,0.0,0.0,0.0,0.0,0.0,0.0,0.0,0.0,0.0,0.0,0.0,0.0,0.0,0.0,0.0,0.2867,0.3764,0.4028,0.4208,0.0,0.0,0.0,0.0,0.0,0.0,0.0,0.0,0.0,0.0,0.0,0.0,0.0,0.0,0.0,0.0,0.0,0.0,0.0,0.0,0.0,0.0,0.0,0.0,0.0,0.0,0.0,0.0,0.0,0.0,0.0,0.0,0.0,0.0,1.6151,1.6616,1.6887,1.7032,1.7032,1.7249,1.7364,1.7364,1.7141,1.6684,1.589,1.5637,1.5336,1.4849,1.4849,1.5117,1.5476,0.0,0.0,1.6143,1.6178,1.5761,1.4978,1.4821,1.4328,1.3688,1.3688,1.3688,1.3688,0.0,0.0,0.0,0.0,0.0,0.0,0.0,0.0,0.0,0.0,0.0,0.0,0.0,0.0,0.0,0.0,0.0,0.0,0.0,0.0,0.0,0.0,0.0,0.0,0.0,0.0,0.0,0.0,0.0,0.0,0.0,0.0,0.0,0.0,0.0,0.0,0.0,0.0,0.0,0.0,0.0,0.0,0.0,0.0,0.0,0.0,0.0,0.0,0.0,0.2957,0.3855,0.4208,0.43,0.0,0.0,0.0,0.0,0.0,0.5644,0.6337,0.0,0.0,0.0,0.0,0.0,0.0,0.0,0.0,0.0,0.0,0.0,0.0,0.0,0.0,0.0,0.0,0.0,0.0,0.0,0.0,0.0,0.0,0.0,0.0,0.0,0.0,0.0,1.626,1.6344,1.661,1.6761,1.6761,1.6797,1.6821,1.6821,1.6785,1.6736,1.6582,1.6324,1.6087,1.5915,1.5915,1.5965,1.5964,0.0,1.6149,1.6231,1.558,1.5131,1.4958,1.4169,1.3837,1.3688,1.3688,1.3688,1.3688,0.0,0.0,0.0,0.0,0.0,0.0,0.0,0.0,0.0,0.0,0.0,0.0,0.0,0.0,0.0,0.0,0.0,0.0,0.0,0.0,0.0,0.0,0.0,0.0,0.0,0.0,0.0,0.0,0.0,0.0,0.0,0.0,0.0,0.0,0.0,0.0,0.0,0.0,0.0,0.0,0.0,0.0,0.0,0.0,0.0,0.0,0.0,0.0,0.0,0.0,0.43,0.4654,0.4654,0.0,0.0,0.0,0.0,0.0,0.5733,0.6355,0.0,0.0,0.0,0.0,0.0,0.0,0.0,0.0,0.0,0.0,0.0,0.0,0.0,0.0,0.0,0.0,0.0,0.0,0.0,0.0,0.0,0.0,0.0,0.0,0.0,0.0,0.0,0.0,1.6501,1.6628,1.67,1.67,1.67,1.6628,1.6477,1.6622,1.67,1.67,1.6423,1.6422,1.6599,1.6599,1.6714,1.6948,0.0,1.6646,1.6719,1.6113,1.5452,1.4968,1.4503,1.4149,1.3688,1.3688,1.3688,1.3688,0.0,0.0,0.0,0.0,0.0,0.0,0.0,0.0,0.0,0.0,0.0,0.0,0.0,0.0,0.0,0.0,0.0,0.0,0.0,0.0,0.0,0.0,0.0,0.0,0.0,0.0,0.0,0.0,0.0,0.0,0.0,0.0,0.0,0.0,0.0,0.0,0.0,0.0,0.0,0.0,0.0,0.0,0.0,0.0,0.0,0.0,0.0,0.0,0.0,0.0,0.0,0.0,0.0,0.0,0.0,0.0,0.5733,0.5733,0.5822,0.6647,0.771,0.0,0.0,0.0,0.0,0.0,0.0,0.0,0.0,0.0,0.0,0.0,0.0,0.0,0.0,0.0,0.0,0.0,0.0,0.0,0.0,0.0,0.0,0.0,0.0,0.0,0.0,0.0,1.6501,1.6507,1.6507,1.6507,1.6573,1.6501,1.6284,1.6561,1.667,1.6604,1.6513,1.6714,1.7144,1.715,1.7433,1.7782,1.7275,1.7161,1.7261,1.6523,1.5792,1.5095,1.4796,1.4314,1.3688,1.3688,1.3808,1.3923,0.0,0.0,0.0,0.0,0.0,0.0,0.0,0.0,0.0,0.0,0.0,0.0,0.0,0.0,0.0,0.0,0.0,0.0,0.0,0.0,0.0,0.0,0.0,0.0,0.0,0.0,0.0,0.0,0.0,0.0,0.0,0.0,0.0,0.0,0.0,0.0,0.0,0.0,0.0,0.0,0.0,0.0,0.0,0.0,0.0,0.0,0.0,0.0,0.0,0.0,0.0,0.0,0.0,0.0,0.0,0.0,0.5733,0.5733,0.5994,0.7884,0.9872,1.044,0.0,0.0,0.0,0.0,0.0,0.0,0.0,0.0,0.0,0.0,0.0,0.0,0.0,0.0,0.0,0.0,0.0,0.0,0.0,0.0,0.0,0.0,0.0,0.0,0.0,0.0,1.5946,1.5946,1.5946,1.5946,1.6181,1.6302,1.6278,1.6561,1.6567,1.6314,1.6803,1.7189,1.7503,1.7635,1.789,1.8177,1.8012,1.7862,1.7525,1.6404,1.5792,1.5307,1.4265,1.3703,1.3688,1.3688,1.4043,1.451,0.0,0.0,0.0,0.0,0.0,0.0,0.0,0.0,0.0,0.0,0.0,0.0,0.0,0.0,0.0,0.0,0.0,0.0,0.0,0.0,0.0,0.0,0.0,0.0,0.0,0.0,0.0,0.0,0.0,0.0,0.0,0.0,0.0,0.0,0.0,0.0,0.0,0.0,0.0,0.0,0.0,0.0,0.0,0.0,0.0,0.0,0.0,0.0,0.0,0.0,0.0,0.0,0.0,0.0,0.0,0.0,0.5908,0.6189,0.7155,0.8425,0.9842,1.145,0.0,0.0,0.0,0.0,0.0,0.0,0.0,0.0,0.0,0.0,0.0,0.0,0.0,0.0,0.0,0.0,0.0,0.0,0.0,0.0,0.0,0.0,0.0,0.0,0.0,0.0,1.5891,1.5891,1.5964,1.6127,1.6229,1.6362,1.6537,1.6809,1.6893,1.6785,1.6996,1.7199,1.7386,1.7509,1.7558,1.7542,1.6844,1.6642,1.6409,1.5538,1.4973,1.4881,1.4441,1.4406,1.452,1.452,1.4753,1.4992,0.0,0.0,0.0,0.0,0.0,0.0,0.0,0.0,0.0,0.0,0.0,0.0,0.0,0.0,0.0,0.0,0.0,0.0,0.0,0.0,0.0,0.0,0.0,0.0,0.0,0.0,0.0,0.0,0.0,0.0,0.0,0.0,0.0,0.0,0.0,0.0,0.0,0.0,0.0,0.0,0.0,0.0,0.0,0.0,0.0,0.0,0.0,0.0,0.0,0.0,0.0,0.0,0.0,0.0,0.0,0.0,0.0,0.6551,0.7945,0.9025,0.0,0.0,0.0,0.0,0.0,0.0,0.0,0.0,0.0,0.0,0.0,0.0,0.0,0.0,0.0,0.0,0.0,0.0,0.0,0.0,0.0,0.0,0.0,0.0,0.0,0.0,0.0,0.0,0.0,1.597,1.6097,1.6272,1.6447,1.6628,1.6821,1.7086,1.7213,1.7213,1.7213,1.7289,1.741,1.7393,1.723,1.706,1.63,1.596,1.5797,1.5124,1.4715,1.4655,1.4769,1.4883,1.5116,1.5235,1.5353,1.5591,0.0,0.0,0.0,0.0,0.0,0.0,0.0,0.0,0.0,0.0,0.0,0.0,0.0,0.0,0.0,0.0,0.0,0.0,0.0,0.0,0.0,0.0,0.0,0.0,0.0,0.0,0.0,0.0,0.0,0.0,0.0,0.0,0.0,0.0,0.0,0.0,0.0,0.0,0.0,0.0,0.0,0.0,0.0715,0.0,0.0,0.0,0.0,0.0,0.0,0.0,0.5733,0.0,0.0,0.0,0.0,0.0,0.6257,0.6726,0.8223,0.9661,0.0,0.0,0.0,0.0,0.0,0.0,0.0,0.0,0.0,0.0,0.0,0.0,0.0,0.0,0.0,0.0,0.0,0.0,0.0,0.0,0.0,0.0,0.0,0.0,0.0,0.0,0.0,0.0,0.0,1.6139,1.6284,1.629,1.6809,1.7092,1.7092,1.7352,1.7485,1.7485,1.7485,1.7485,1.7503,1.7312,1.716,1.6931,1.6697,1.6387,1.5946,1.5592,1.5099,1.465,1.4997,1.5116,1.5116,1.5477,1.5952,1.6537,0.0,0.0,0.0,0.0,0.0,0.0,0.0,0.0,0.0,0.0,0.0,0.0,0.0,0.0,0.0,0.0,0.0,0.0,0.0,0.0,0.0,0.0,0.0,0.0,0.0,0.0,0.0,0.0,0.0,0.0,0.0,0.0,0.0,0.0,0.0,0.0,0.0,0.0,0.0,0.0,0.0,0.0984,0.2413,0.0,0.0,0.0,0.0,0.0,0.0,0.0,0.0,0.0,0.0,0.0,0.0,0.6526,0.7136,0.7978,0.9639,0.0,0.0,0.0,0.0,0.0,0.0,0.0,0.0,0.0,0.0,0.0,0.0,0.0,0.0,0.0,0.0,0.0,0.0,0.0,0.0,0.0,0.0,0.0,0.0,0.0,0.0,0.0,0.0,0.0,0.0,1.6241,1.6453,1.6839,1.7008,1.7177,1.7364,1.7443,1.7485,1.7485,1.7485,1.7485,1.7497,1.7367,1.7231,1.6914,1.6586,1.6325,1.5935,1.5654,1.5547,1.5607,1.572,1.5952,1.6183,1.6425,1.6667,1.6903,0.0,0.0,0.0,0.0,0.0,0.0,0.0,0.0,0.0,0.0,0.0,0.0,0.0,0.0,0.0,0.0,0.0,0.0,0.0,0.0,0.0,0.0,0.0,0.0,0.0,0.0,0.0,0.0,0.0,0.0,0.0,0.0,0.0,0.0,0.0,0.0,0.0,0.0,0.0,0.0,0.0896,0.2057,0.322,0.0,0.0,0.0,0.0,0.0,0.0,0.0,0.0,0.0,0.0,0.0,0.0,0.7139,0.7882,0.8877,1.0731,0.0,0.0,0.0,0.0,0.0,0.0,0.0,0.0,0.0,0.0,0.0,0.0,0.0,0.0,0.0,0.0,0.0,0.0,0.0,0.0,0.0,0.0,0.0,0.0,0.0,0.0,0.0,0.0,0.0,0.0,1.6483,1.6754,1.708,1.7195,1.7322,1.7485,1.7485,1.7485,1.7485,1.7485,1.7485,1.7491,1.7404,1.7223,1.6885,1.6412,1.6052,1.5801,1.5655,1.572,1.5963,1.6194,1.6307,1.6537,1.7015,1.7256,1.7268,0.0,0.0,0.0,0.0,0.0,0.0,0.0,0.0,0.0,0.0,0.0,0.0,0.0,0.0,0.0,0.0,0.0,0.0,0.0,0.0,0.0,0.0,0.0,0.0,0.0,0.0,0.0,0.0,0.0,0.0,0.0,0.0,0.0,0.0,0.0,0.0,0.0,0.0,-0.0179,0.0269,0.2326,0.322,0.3398,0.4561,0.0,0.0,0.0,0.0,0.0,0.0,0.0,0.0,0.5808,0.6257,0.6969,0.7834,0.8573,0.9474,0.0,0.0,0.0,0.0,0.0,0.0,0.0,0.0,0.0,0.0,0.0,0.0,0.0,0.0,0.0,0.0,0.0,0.0,0.0,0.0,0.0,0.0,0.0,0.0,0.0,0.0,0.0,0.0,0.0,0.0,0.0,1.6821,1.7098,1.7129,1.7358,1.7485,1.7485,1.7485,1.7485,1.7485,1.7485,1.7485,1.7491,1.75,1.7244,1.7026,1.6436,1.5963,1.5601,1.5601,1.5596,1.5715,1.6301,1.6537,1.6537,1.7244,1.7497,1.7433,0.0,0.0,0.0,0.0,0.0,0.0,0.0,0.0,0.0,0.0,0.0,0.0,0.0,0.0,0.0,0.0,0.0,0.0,0.0,0.0,0.0,0.0,0.0,0.0,0.0,0.0,0.0,0.0,0.0,0.0,0.0,0.0,0.0,0.0,0.0,0.0,0.0,-0.0987,0.0179,0.1164,0.2417,0.3403,0.4119,0.4387,0.4476,0.0,0.0,0.0,0.0,0.0,0.0,0.0,0.6523,0.6704,0.6881,0.7228,0.8577,1.0111,0.0,0.0,0.0,0.0,0.0,0.0,0.0,0.0,0.0,0.0,0.0,0.0,0.0,0.0,0.0,0.0,0.0,0.0,0.0,0.0,0.0,0.0,0.0,0.0,0.0,0.0,0.0,0.0,0.0,0.0,1.6893,1.7026,1.7189,1.7394,1.7455,1.7485,1.7485,1.7485,1.7485,0.0,1.7485,1.7485,1.7485,1.7545,1.7303,1.7026,1.6543,1.6194,1.5963,1.5963,1.5839,1.5715,1.6301,1.6537,1.6537,1.7244,1.7499,1.7446,0.0,0.0,0.0,0.0,0.0,0.0,0.0,0.0,0.0,0.0,0.0,0.0,0.0,0.0,0.0,0.0,0.0,0.0,0.0,0.0,0.0,0.0,0.0,0.0,0.0,0.0,0.0,0.0,0.0,0.0,0.0,0.0,0.0,0.0,0.0,0.0,0.0,-0.0179,0.1074,0.2238,0.3135,0.3851,0.43,0.43,0.43,0.0,0.0,0.0,0.0,0.0,0.0,0.0,0.0,0.0,0.7054,0.7577,0.9255,1.0955,0.0,0.0,0.0,0.0,0.0,0.0,0.0,0.0,0.0,0.0,0.0,0.0,0.0,0.0,0.0,0.0,0.0,0.0,0.0,0.0,0.0,0.0,0.0,0.0,0.0,0.0,0.0,0.0,0.0,1.7565,1.7303,1.7323,1.734,1.7479,1.7485,1.7485,1.7485,1.7485,1.7485,1.7485,1.7485,1.7485,1.7485,1.7485,1.7367,1.702,1.6785,1.6543,1.6312,1.62,1.5963,1.5839,1.6194,1.6425,1.6549,1.7025,1.7285,1.7443,0.0,0.0,0.0,0.0,0.0,0.0,0.0,0.0,0.0,0.0,0.0,0.0,0.0,0.0,0.0,0.0,0.0,0.0,0.0,0.0,0.0,0.0,0.0,0.0,0.0,0.0,0.0,0.0,0.0,0.0,0.0,0.0,0.0,0.0,0.0,0.0,0.0,0.0984,0.2149,0.2956,0.3941,0.43,0.43,0.43,0.0,0.0,0.0,0.0,0.0,0.563,0.0,0.0,0.0,0.0,0.7234,0.8051,0.98,1.1558,0.0,0.0,0.0,0.0,0.0,0.0,0.0,0.0,0.0,0.0,0.0,0.0,0.0,0.0,0.0,0.0,0.0,0.0,0.0,0.0,0.0,0.0,0.0,0.0,0.0,0.0,0.0,0.0,0.0,1.8242,1.7728,1.7597,1.7485,1.7485,1.7485,1.7485,1.7485,1.7485,1.7485,1.7485,1.7485,1.7485,1.7485,1.7485,1.7367,1.7138,1.7138,1.6903,1.6537,1.6318,1.6205,1.62,1.62,1.6335,1.6629,1.6834,1.7092,1.7358,0.0,0.0,0.0,0.0,0.0,0.0,0.0,0.0,0.0,0.0,0.0,0.0,0.0,0.0,0.0,0.0,0.0,0.0,0.0,0.0,0.0,0.0,0.0,0.0,0.0,0.0,0.0,0.0,0.0,0.0,0.0,0.0,0.0,0.0,0.0,0.0,0.0,0.0,0.2777,0.2956,0.3941,0.43,0.43,0.0,0.0,0.0,0.0,0.0,0.0,0.0,0.6609,0.0,0.0,0.0,0.0,0.7479,0.91,1.0959,0.0,0.0,0.0,0.0,0.0,0.0,0.0,0.0,0.0,0.0,0.0,0.0,0.0,0.0,0.0,0.0,0.0,0.0,0.0,0.0,0.0,0.0,0.0,0.0,0.0,0.0,0.0,0.0,1.8525,1.8218,1.8015,1.7701,1.7485,1.7485,1.7485,1.7485,1.7485,1.7485,1.7485,1.7485,1.7485,1.7485,1.7485,1.7485,1.7485,1.7485,1.7485,1.725,1.6903,1.6903,1.6667,1.6425,1.6785,1.6918,1.6863,1.7264,1.72,1.7085,0.0,0.0,0.0,0.0,0.0,0.0,0.0,0.0,0.0,0.0,0.0,0.0,0.0,0.0,0.0,0.0,0.0,0.0,0.0,0.0,0.0,0.0,0.0,0.0,0.0,0.0,0.0,0.0,0.0,0.0,0.0,-0.3227,-0.2777,0.0,0.0,0.0,0.0,0.0,0.0,0.3762,0.4119,0.43,0.0,0.0,0.0,0.0,0.0,0.0,0.0,0.0,0.0,0.0,0.0,0.0,0.0,0.0,0.0,0.0,0.0,0.0,0.0,0.0,0.0,0.0,0.0,0.0,0.0,0.0,0.0,0.0,0.0,0.0,0.0,0.0,0.0,0.0,0.0,0.0,0.0,0.0,0.0,0.0,0.0,0.0,0.0,0.0,1.8607,1.8288,1.796,1.7726,1.7485,1.7485,1.7485,1.7485,1.7485,1.7485,1.7485,1.7485,1.7485,1.7485,1.7485,1.7485,1.7485,1.7485,1.7485,1.7367,1.725,1.702,1.6984,1.6987,1.6754,1.6788,1.7143,1.7044,1.711,1.7064,0.0,0.0,0.0,0.0,0.0,0.0,0.0,0.0,0.0,0.0,0.0,0.0,0.0,0.0,0.0,0.0,0.0,0.0,0.0,0.0,0.0,0.0,0.0,0.0,0.0,0.0,0.0,0.0,0.0,0.0,-0.3317,-0.2777,-0.1969,0.0,-0.0894,0.0,0.0,0.0,0.0,0.0,0.0,0.0,0.0,0.0,0.0,0.0,0.0,0.0,0.0,0.0,0.0,0.0,0.0,0.0,0.0,0.0,0.0,0.0,0.0,0.0,0.0,0.0,0.0,0.0,0.0,0.0,0.0,0.0,0.0,0.0,0.0,0.0,0.0,0.0,0.0,0.0,0.0,0.0,0.0,0.0,0.0,0.0,0.0,0.0,0.0,0.0,1.8654,1.8305,1.8083,1.7726,1.7485,1.7485,1.7485,1.7485,1.7485,1.7485,1.7485,1.7485,1.7485,1.7485,1.7485,1.7485,1.7485,1.7485,1.7485,1.7485,1.7485,1.7327,1.7351,1.7528,1.6994,1.7054,1.7292,1.7102,1.6954,1.7158,0.0,0.0,0.0,0.0,0.0,0.0,0.0,0.0,0.0,0.0,0.0,0.0,0.0,0.0,0.0,0.0,0.0,0.0,0.0,0.0,0.0,0.0,0.0,0.0,0.0,0.0,0.0,0.0,0.0,0.0,-0.3587,-0.2149,-0.0983,-0.0089,0.0358,0.1432,0.2957,0.0,0.0,0.0,0.0,0.0,0.0,0.0,0.0,0.0,0.0,0.0,0.0,0.0,0.0,0.0,0.0,0.0,0.0,0.0,0.0,0.0,0.0,0.0,0.0,0.0,0.0,0.0,0.0,0.0,0.0,0.0,0.0,0.0,0.0,0.0,0.0,0.0,0.0,0.0,0.0,0.0,0.0,0.0,0.0,0.0,0.0,0.0,0.0,0.0,1.8765,1.8421,1.8421,1.783,1.7485,1.7485,1.7485,1.7485,1.7485,1.7485,1.7485,1.7485,1.7485,1.7485,1.7485,1.7485,1.7485,1.7485,1.7485,1.7485,1.7503,1.775,1.7859,1.7901,1.8167,1.7931,1.7519,1.7536,1.7307,1.699,0.0,0.0,0.0,0.0,0.0,0.0,0.0,0.0,0.0,0.0,0.0,0.0,0.0,0.0,0.0,0.0,0.0,0.0,0.0,0.0,0.0,0.0,0.0,0.0,0.0,0.0,0.0,0.0,0.0,-0.2962,-0.3136,-0.1611,-0.0447,0.0447,0.134,0.2415,0.3851,0.4119,0.0,0.0,0.0,0.0,0.0,0.0,0.0,0.0,0.0,0.0,0.0,0.0,0.0,0.0,0.0,0.0,0.0,0.0,0.0,0.0,0.0,0.0,0.0,0.0,0.0,0.0,0.0,0.0,0.0,0.0,0.0,0.0,0.0,0.0,0.0,0.0,0.0,0.0,0.0,0.0,0.0,0.0,0.0,0.0,0.0,0.0,0.0,0.0,0.0,1.8188,1.7837,1.7602,1.7485,1.7485,1.7485,1.7485,1.7485,1.7485,1.7485,1.7485,1.7485,1.7485,1.7485,1.7485,1.7485,1.7491,1.766,1.7732,1.7738,1.7835,1.8076,1.8402,1.825,1.8063,1.7774,1.7652,1.7457,1.74,0.0,0.0,0.0,0.0,0.0,0.0,0.0,0.0,0.0,0.0,0.0,0.0,0.0,0.0,0.0,0.0,0.0,0.0,0.0,0.0,0.0,0.0,0.0,0.0,0.0,0.0,0.0,0.0,0.0,0.0,0.0,0.0,0.0179,0.1251,0.2413,0.0,0.0,0.0,0.0,0.4565,0.0,0.0,0.5277,0.0,0.0,0.0,0.0,0.0,0.0,0.0,0.0,0.0,0.0,0.0,0.0,0.0,0.0,0.0,0.0,0.0,0.0,0.0,0.0,0.0,0.0,0.0,0.0,0.0,0.0,0.0,0.0,0.0,0.0,0.0,0.0,0.0,0.0,0.0,0.0,0.0,0.0,0.0,0.0,0.0,0.0,0.0,0.0,0.0,1.7837,1.7719,1.7608,1.7485,1.7485,1.7485,1.7485,1.7485,1.7485,1.7485,1.7485,1.7485,1.7485,1.7485,1.7533,1.7624,1.7799,1.7871,1.7883,1.807,1.836,1.8692,1.8518,1.8273,1.7905,1.7781,1.7658,1.7529,0.0,0.0,0.0,0.0,0.0,0.0,0.0,0.0,0.0,0.0,0.0,0.0,0.0,0.0,0.0,0.0,0.0,0.0,0.0,0.0,0.0,0.0,0.0,0.0,0.0,0.0,0.0,0.0,0.0,0.0,0.0,0.0,0.1073,0.0,0.3667,0.43,0.43,0.0,0.4565,0.501,0.0,0.5275,0.5719,0.0,0.0,0.0,0.6288,0.6586,0.0,0.0,0.0,0.0,0.0,0.0,0.0,0.0,0.0,0.0,0.0,0.0,0.0,0.0,0.0,0.0,0.0,0.0,0.0,0.0,0.0,0.0,0.0,0.0,0.0,0.0,0.0,0.0,0.0,0.0,0.0,0.0,0.0,0.0,0.0,0.0,0.0,0.0,1.9127,1.8765,1.8421,1.8083,1.7849,1.7485,1.7485,1.7485,1.7485,1.7485,1.7485,1.7485,1.7485,1.7485,1.7485,1.7491,1.763,1.7871,1.7889,1.7895,1.7937,1.8469,1.8686,1.8722,1.8976,1.8682,1.8039,1.8039,1.7781,1.7529,0.0,0.0,0.0,0.0,0.0,0.0,0.0,0.0,0.0,0.0,0.0,0.0,0.0,0.0,0.0,0.0,0.0,0.0,0.0,0.0,0.0,0.0,0.0,0.0,0.0,0.0,0.0,0.0,0.0,0.0,0.0,0.0,0.0,0.0,0.3849,0.43,0.43,0.4654,0.0,0.0,0.5364,0.5808,0.0,0.0,0.0,0.0,0.0,0.6929,0.0,0.0,0.718,0.7343,0.0,0.0,0.0,0.0,0.0,0.0,1.6386,0.0,0.0,0.0,0.0,0.0,0.0,0.0,0.0,0.0,0.0,0.0,0.0,0.0,0.0,0.0,0.0,0.0,0.0,0.0,0.0,0.0,0.0,0.0,0.0,0.0,0.0,0.0,1.8881,1.8421,1.8083,1.7843,1.7602,1.7485,1.7485,1.7485,1.7485,1.7485,1.7485,1.7485,1.7485,1.7485,1.7491,1.7678,1.7805,1.7895,1.8287,1.8463,1.8469,1.8625,1.8794,1.8976,1.9048,1.8822,1.8437,1.8437,1.8442,1.8314,0.0,0.0,0.0,0.0,0.0,0.0,0.0,0.0,0.0,0.0,0.0,0.0,0.0,0.0,0.0,0.0,0.0,0.0,0.0,0.0,0.0,0.0,0.0,0.0,0.0,0.0,0.0,0.0,0.0,0.0,0.0,0.0,0.0,0.0,0.0,0.0,0.0,0.0,0.0,0.0,0.5808,0.0,0.0,0.6697,0.6874,0.0,0.0,0.0,0.7149,0.7214,0.7339,0.0,0.0,0.0,0.0,0.0,0.0,0.0,0.0,0.0,0.0,0.0,0.0,0.0,1.7992,1.8209,1.8687,0.0,2.0106,2.0179,0.0,0.0,0.0,0.0,0.0,0.0,0.0,0.0,0.0,0.0,0.0,0.0,0.0,1.9967,1.9674,1.9298,1.8308,1.7505,1.7037,1.6793,1.6866,1.7485,1.686,1.6866,1.7479,1.7485,1.7485,1.7485,1.7485,1.7539,1.7654,1.7805,1.7998,1.8227,1.8547,1.8746,1.8849,1.8849,1.8939,1.9078,1.9078,1.895,1.8571,1.8571,1.8571,1.8571,0.0,0.0,0.0,0.0,0.0,0.0,0.0,0.0,0.0,0.0,0.0,0.0,0.0,0.0,0.0,0.0,0.0,0.0,0.0,0.0,0.0,0.0,0.0,0.0,0.0,0.0,0.0,0.0,0.0,0.0,0.0,0.0,0.0,0.0,0.0,0.0,0.0,0.0,0.0,0.5808,0.6254,0.6697,0.0,0.0,0.7139,0.0,0.7139,0.7149,0.719,0.7363,0.7509,0.0,0.0,0.0,0.0,0.0,1.2221,0.0,0.0,0.0,0.0,0.0,0.0,0.0,1.7796,1.8117,1.8704,1.9831,2.015,2.0179,2.0179,2.015,0.0,0.0,0.0,0.0,0.0,0.0,0.0,0.0,0.0,0.0,2.0301,2.004,1.9727,1.935,1.7613,1.6271,1.5444,1.5181,1.5686,1.6932,1.5648,1.5643,1.6997,1.712,1.7244,1.7244,1.7397,1.7648,1.7877,1.7931,1.8227,1.8686,1.8716,1.8861,1.9078,1.9078,1.9078,1.9078,1.9078,1.895,1.8699,1.8699,1.8699,1.8699,0.0,0.0,0.0,0.0,0.0,0.0,0.0,0.0,0.0,0.0,0.0,0.0,0.0,0.0,0.0,0.0,0.0,0.0,0.0,0.0,0.0,0.0,0.0,0.0,0.0,0.0,0.0,0.0,0.0,0.0,0.0,0.0,0.0,0.0,0.0,0.0,0.0,0.0,0.0,0.634,0.6786,0.0,0.7139,0.7139,0.7139,0.7139,0.7139,0.7221,0.7366,0.0,0.7746,0.7797,0.0,0.0,0.0,0.0,0.0,0.0,0.0,0.0,0.0,0.0,0.0,0.0,1.7915,1.8224,1.8633,0.0,1.9771,1.9829,1.9829,1.9743,1.9637,0.0,0.0,0.0,0.0,0.0,0.0,0.0,0.0,0.0,2.0889,2.0222,1.9797,1.9676,1.7358,1.5242,1.3568,1.3423,1.3441,1.377,1.3398,1.3315,1.3636,1.496,1.5564,1.5569,1.6856,1.7589,1.7889,1.8072,1.8328,1.8698,1.8909,1.9024,1.9078,1.9078,1.9078,1.9078,1.9078,1.9078,1.895,1.895,1.895,1.895,0.0,0.0,0.0,0.0,0.0,0.0,0.0,0.0,0.0,0.0,0.0,0.0,0.0,0.0,0.0,0.0,0.0,0.0,0.0,0.0,0.0,0.0,0.0,0.0,0.0,0.0,0.0,0.0,0.0,0.0,0.0,0.0,0.0,0.0,0.0,0.0,0.0,0.0,0.634,0.6786,0.6962,0.0,0.7139,0.7139,0.7139,0.7149,0.7227,0.74,0.7614,0.7763,0.7862,0.0,0.0,0.8726,0.9702,0.0,1.1526,1.3084,0.0,0.0,0.0,1.6677,0.0,0.0,0.0,1.8123,1.8579,1.9255,1.9591,1.9808,1.9808,0.0,1.9451,1.9759,0.0,0.0,0.0,0.0,0.0,0.0,0.0,0.0,2.0848,2.0255,1.8882,1.687,1.5273,1.3692,1.2,1.1842,1.2081,1.2852,1.2024,1.1934,1.2675,1.3517,1.4301,1.5027,1.5876,1.6791,1.7784,1.8048,1.8368,1.8637,1.9018,1.9078,1.9078,1.9078,1.9078,1.9078,1.9078,1.9078,1.9078,1.9078,1.9078,1.9078,0.0,0.0,0.0,0.0,0.0,0.0,0.0,0.0,0.0,0.0,0.0,0.0,0.0,0.0,0.0,0.0,0.0,0.0,0.0,0.0,0.0,0.0,0.0,-0.2652,0.0,0.0,0.0,0.0,0.0,0.0,0.0,0.0,0.0,0.0,0.0,0.0,0.0,0.0,0.0,0.7139,0.0,0.7139,0.7143,0.7173,0.7183,0.7207,0.739,0.7607,0.7818,0.7845,0.0,0.8038,0.8038,0.8748,0.0,0.0,0.0,0.0,0.0,0.0,0.0,0.0,0.0,1.7351,0.0,0.0,0.0,1.9161,0.0,0.0,0.0,0.0,0.0,0.0,0.0,0.0,0.0,0.0,0.0,0.0,0.0,0.0,2.0728,1.9827,1.7503,1.3372,1.2758,1.1972,1.0504,1.0213,1.0689,1.1921,1.0754,1.0533,1.1719,1.2113,1.2942,1.4094,1.4426,1.552,1.7157,1.7576,1.8105,1.8571,1.8688,1.8816,1.9078,1.881,1.8816,1.9078,1.9078,1.9078,1.9078,1.9078,1.9078,1.895,0.0,0.0,0.0,0.0,0.0,0.0,0.0,0.0,0.0,0.0,0.0,0.0,0.0,0.0,0.0,0.0,0.0,0.0,-0.3393,0.0,0.0,0.0,0.0,0.0,-0.1477,0.0,0.0,0.0,0.0,0.0,0.0,0.0,0.0,0.0,0.4918,0.0,0.0,0.0,0.6697,0.0,0.7139,0.7139,0.0,0.7292,0.7346,0.738,0.7662,0.7784,0.7831,0.0,0.8024,0.8038,0.0,0.8829,0.0,0.0,0.0,0.0,0.0,0.0,0.0,0.0,1.7114,0.0,0.0,0.0,1.8635,1.8924,0.0,0.0,0.0,0.0,0.0,0.0,0.0,0.0,0.0,0.0,0.0,0.0,0.0,0.0,0.0,1.8559,1.5644,1.1641,1.1389,1.0635,0.895,0.8612,0.8608,0.8718,0.8372,0.8247,0.8477,0.9937,1.0878,1.102,1.2451,1.4029,1.5747,1.6075,1.7093,1.8571,1.7636,1.7893,1.8944,1.7765,1.8022,1.9078,1.9078,1.9078,1.9078,1.9078,1.895,1.8699,0.0,0.0,0.0,0.0,0.0,0.0,0.0,0.0,0.0,0.0,0.0,0.0,0.0,0.0,0.0,0.0,0.0,-0.3123,0.0,0.0,0.0,0.0,0.0,0.0,0.0,0.0,0.0,0.0,0.3861,0.0,0.0,0.0,0.0,0.0,0.5378,0.0,0.6786,0.0,0.0,0.0,0.0,0.0,0.0,0.738,0.7478,0.7641,0.7767,0.7868,0.7953,0.0,0.8099,0.0,0.0,0.0,0.0,0.0,0.0,0.0,0.0,0.0,0.0,0.0,0.0,0.0,0.0,0.0,1.8778,0.0,0.0,0.0,0.0,0.0,0.0,0.0,0.0,0.0,0.0,0.0,1.9579,0.0,0.0,0.0,0.0,0.0,0.0,1.1502,1.0461,0.9585,0.8873,0.8514,0.8287,0.8233,0.7997,0.7905,0.7975,0.8771,0.9622,1.0545,1.1184,1.2326,1.3985,1.42,1.4763,1.5549,1.5274,1.5659,1.6322,1.5799,1.5934,1.6602,1.6602,1.712,1.7765,1.6985,1.712,1.7512,0.0,0.0,0.0,0.0,0.0,0.0,0.0,0.0,0.0,0.0,0.0,0.0,-0.4954,-0.462,0.0,0.0,0.0,-0.2238,0.0,0.0,-0.0427,0.0,0.0,0.0,0.0,0.0,0.0,0.0,0.0,0.0,0.0,0.0,0.0,0.0,0.0,0.631,0.7139,0.0,0.0,0.737,0.737,0.7485,0.7645,0.7536,0.7651,0.7875,0.7875,0.7943,0.8038,0.8038,0.8143,0.0,0.8272,0.0,0.0,0.0,0.0,0.0,1.2825,0.0,0.0,0.0,0.0,0.0,0.0,0.0,0.0,0.0,0.0,0.0,0.0,0.0,0.0,0.0,0.0,0.0,0.0,0.0,0.0,0.0,0.0,0.0,0.0,1.3918,1.2703,1.1094,0.991,0.9255,0.9004,0.8799,0.8594,0.8436,0.8138,0.8085,0.8176,0.8245,0.8747,0.9964,1.0,1.0723,1.2274,1.2533,1.2927,1.3325,1.3316,1.3705,1.4362,1.4101,1.4371,1.4907,1.4516,1.4903,1.5809,1.5168,1.5424,1.5934,0.0,-0.5388,0.0,0.0,0.0,0.0,0.0,0.0,0.0,0.0,0.0,0.0,0.0,0.0,0.0,0.0,0.0,-0.1074,-0.0179,0.0,-0.0087,0.0,0.0,0.1395,0.0,0.0,0.0,0.0,0.0,0.0,0.0,0.0,0.0,0.0,0.0,0.6576,0.7139,0.7139,0.7227,0.737,0.737,0.7546,0.7804,0.0,0.7896,0.8031,0.8031,0.0,0.0,0.8038,0.8143,0.0,0.0,0.0,0.0,0.0,0.0,0.0,0.0,0.0,0.0,1.609,0.0,0.0,0.0,0.0,1.8884,0.0,0.0,0.0,0.0,0.0,0.0,0.0,0.0,0.0,0.0,0.0,0.0,0.0,0.0,0.0,0.0,1.2868,1.1637,0.9875,0.9632,0.9368,0.9249,0.9004,0.8934,0.8937,0.8673,0.8542,0.8548,0.8414,0.841,0.8418,0.8659,0.9377,1.0833,1.1087,1.2006,1.3325,1.2676,1.3066,1.4362,1.3333,1.36,1.4777,1.3341,1.2947,1.3079,1.4385,1.4511,1.3984,0.0,0.0,0.0,0.0,0.0,0.0,0.0,-0.5162,0.0,0.0,0.0,0.0,0.0,0.0,-0.1856,0.0,0.0,-0.0,-0.0088,0.1004,0.0,0.0,0.0,0.2231,0.0,0.0,0.0,0.0,0.0,0.0,0.0,0.0,0.0,0.0,0.0,0.6656,0.0,0.0,0.0,0.0,0.0,0.8067,0.8448,0.0,0.0,0.8038,0.8038,0.8038,0.0,0.816,0.8289,0.8428,0.853,0.8699,0.8862,0.8862,0.8899,0.0,0.0,0.0,1.1966,1.3809,0.0,0.0,0.0,0.0,0.0,0.0,0.0,0.0,0.0,0.0,0.0,0.0,0.0,0.0,0.0,0.0,0.0,0.0,0.0,0.0,0.0,0.0,0.0,1.0002,0.9734,0.9594,0.9365,0.924,0.9249,0.9181,0.8977,0.9013,0.9187,0.9151,0.8978,0.8924,0.8964,0.9117,0.9247,0.9377,0.9905,1.0565,1.0306,1.0704,1.163,1.124,1.1505,1.2029,1.1641,1.1376,1.1508,1.1897,1.2553,1.3206,-0.5997,0.0,0.0,0.0,0.0,0.0,0.0,0.0,0.0,0.0,-0.3142,0.0,-0.2459,0.0,-0.0843,0.0,0.0424,0.0934,0.0954,0.1988,0.0,0.1705,0.2225,0.0,0.0,0.0,0.0,0.0,0.0,0.4683,0.0,0.0,0.0,0.0,0.0,0.0,0.0,0.0,0.7489,0.0,0.0,0.8333,0.0,0.0,0.8432,0.8542,0.0,0.8421,0.8345,0.8395,0.8442,0.8581,0.8679,0.8815,0.894,0.894,0.8974,0.9234,1.0441,1.0903,0.0,1.2815,1.3834,0.0,1.5561,0.0,0.0,0.0,0.0,0.0,0.0,0.0,0.0,0.0,0.0,0.0,0.0,0.0,0.0,0.0,0.0,0.0,0.0,0.0,1.1292,1.0141,0.9988,0.9798,0.0,0.9509,0.9442,0.9551,0.9397,0.9488,0.9714,0.9636,0.9438,0.9117,0.9117,0.8984,0.8587,0.872,0.8851,0.9117,0.9383,0.9788,1.0193,1.0323,1.0455,1.0721,1.0721,1.0721,1.0721,1.0721,1.1244,1.1765,0.0,0.0,0.0,0.0,-0.5279,0.0,0.0,0.0,-0.2959,0.0,-0.2236,-0.147,-0.1586,-0.1089,-0.0341,0.071,0.1159,0.0,0.2691,0.2718,0.0,0.0,0.2541,0.2934,0.3891,0.0,0.0,0.0,0.0,0.0,0.0,0.0,0.0,0.0,0.6707,0.0,0.7383,0.739,0.756,0.7834,0.798,0.8333,0.8825,0.8832,0.9137,0.9561,0.9225,0.9086,0.9013,0.8654,0.8587,0.8713,0.872,0.8821,0.894,0.894,0.9035,0.9366,1.0486,1.0952,1.136,1.2696,0.0,0.0,0.0,0.0,1.7584,0.0,0.0,0.0,0.0,0.0,0.0,0.0,0.0,0.0,0.0,0.0,0.0,0.0,0.0,0.0,0.0,1.0582,1.0436,1.03,1.0141,0.0,0.0,0.9832,0.99,1.0056,0.982,0.9835,0.9983,0.9858,0.9525,0.9117,0.9117,0.8984,0.8587,0.8984,0.9117,0.9117,0.9921,1.0193,1.019,1.0588,1.0721,1.0721,1.0721,1.0721,1.0721,1.0721,1.0455,1.0057,-0.6472,-0.625,-0.5911,0.0,-0.4315,-0.3922,0.0,0.0,0.0,0.0,-0.1131,-0.0569,-0.0492,0.0915,0.1844,0.1835,0.2085,0.0,0.0,0.0,0.0,0.2534,0.2519,0.291,0.3797,0.3797,0.0,0.5109,0.0,0.0,0.4989,0.0,0.0,0.0,0.0,0.0,0.755,0.7651,0.7807,0.7984,0.8024,0.8535,0.0,0.0,0.992,1.0234,0.9368,0.9153,0.928,0.881,0.8676,0.873,0.8845,0.8906,0.894,0.894,0.8964,0.8991,0.9325,0.9546,0.9784,1.0167,1.0609,1.1392,0.0,0.0,0.0,0.0,0.0,0.0,0.0,0.0,0.0,0.0,0.0,0.0,0.0,0.0,0.0,0.0,0.0,0.0,1.0721,1.0582,1.0477,1.0439,1.0195,1.0032,0.9992,0.0,1.0063,1.0215,1.023,1.0377,1.0528,1.0435,1.0323,0.9924,0.9658,0.9389,0.8984,0.9117,0.9253,0.9525,1.0057,1.0323,1.0588,1.0721,1.0721,1.0721,1.0721,1.0721,1.0721,1.0721,1.0455,1.0193,-0.6667,0.0,0.0,-0.4857,0.0,0.0,-0.2992,0.0,0.0,-0.088,-0.0,0.0,0.0813,0.1809,0.2483,0.2393,0.2558,0.0,0.0,0.0,0.0,0.2512,0.2511,0.2917,0.3661,0.3742,0.0,0.5104,0.0,0.0,0.5277,0.0,0.0,0.0,0.0,0.7456,0.0,0.7848,0.796,0.8038,0.8038,0.0,0.0,0.9847,1.0293,1.0755,1.0016,0.9553,0.9341,0.8974,0.8811,0.8825,0.8913,0.894,0.894,0.894,0.8984,0.9032,0.9032,0.914,0.9252,0.9252,0.9824,1.0848,1.2602,1.3202,1.3674,0.0,0.0,0.0,0.0,0.0,0.0,0.0,0.0,0.0,0.0,0.0,0.0,0.0,0.0,0.0,1.0721,1.0643,1.0565,1.0497,1.028,1.0151,1.0151,0.0,1.0148,1.0368,1.0449,1.0565,1.0717,1.0721,1.0588,1.0193,1.006,0.9658,0.9389,0.9519,0.9655,0.9927,1.0326,1.0588,1.0721,1.0721,1.0721,1.0721,1.0721,1.0721,1.0721,1.0721,1.0588,1.0323,0.0,0.0,0.0,0.0,0.0,0.0,0.0,-0.0575,0.0,-0.0079,0.0,0.1701,0.1942,0.2022,0.2202,0.2664,0.0,0.2646,0.2593,0.259,0.2565,0.2512,0.2596,0.2947,0.3668,0.3761,0.0,0.0,0.0,0.0,0.0,0.0,0.0,0.0,0.0,0.0,0.0,0.7984,0.8038,0.0,0.8062,0.8747,0.979,0.9835,1.036,1.0967,1.0551,1.0023,0.9511,0.9003,0.894,0.894,0.894,0.894,0.894,0.894,0.9028,0.9123,0.9123,0.9222,0.9327,0.9347,1.0255,1.1491,1.2501,1.2855,1.3315,1.4198,1.3485,1.2463,0.0,0.0,0.0,0.0,0.0,0.0,0.0,0.0,0.0,0.0,0.0,0.0,0.0,1.0721,1.0666,1.0531,1.0388,1.031,0.0,0.0,0.0,1.0483,1.051,1.0585,1.0717,0.0,1.0588,1.0326,1.0193,1.006,0.9794,1.006,1.0193,1.0193,1.0588,1.0721,1.0721,1.0721,1.0721,1.0721,1.0721,1.0721,1.0721,1.0721,1.0721,1.0588,0.0,0.0,0.0,0.0,0.0,-0.157,-0.0552,0.0476,0.111,0.1022,0.1262,0.1502,0.1739,0.1977,0.2217,0.2542,0.2542,0.0,0.0,0.0,0.0,0.2511,0.2956,0.3424,0.4001,0.4415,0.5065,0.0,0.0,0.0,0.0,0.0,0.0,0.0,0.0,0.0,0.8001,0.8028,0.0,0.8052,0.8177,0.8649,0.9312,0.9587,0.9728,0.9796,0.9937,0.9881,0.9665,0.9037,0.894,0.894,0.894,0.894,0.894,0.894,0.8957,0.8977,0.8977,0.8994,0.9045,0.9164,0.9439,0.9938,1.1187,1.1583,1.1867,1.2103,1.213,1.1812,1.0789,0.0,0.0,0.0,0.0,0.0,0.0,0.0,0.0,0.0,0.0,0.0,0.0,0.0,0.0,0.0,1.0541,1.0456,0.0,0.0,0.0,0.0,1.0616,0.0,0.0,0.0,1.0721,1.0588,1.0323,1.0193,1.006,1.0193,1.0193,1.0193,1.0588,1.0721,1.0721,1.0721,1.0721,1.0721,1.0721,1.0721,1.0721,1.0721,1.0721,1.0588,0.0,0.0,0.0,0.0,0.0,0.0,0.0,0.0726,0.0,0.1338,0.1335,0.1415,0.165,0.1887,0.2121,0.2353,0.2431,0.2523,0.2555,0.2557,0.2572,0.2604,0.3159,0.0,0.4078,0.4608,0.5182,0.5808,0.0,0.0,0.0,0.0,0.0,0.0,0.0,0.7776,0.0,0.0,0.0,0.8167,0.8241,0.8774,0.9347,0.9503,0.9619,0.9704,0.9786,0.9596,0.9268,0.9047,0.894,0.894,0.894,0.894,0.894,0.894,0.894,0.8954,0.9028,0.9049,0.9086,0.9232,0.933,0.9754,1.0988,1.0971,1.094,1.1622,1.1414,1.0962,1.0489,1.051,0.0,0.0,0.0,0.0,0.0,0.0,0.0,0.0,0.0,0.0,0.0,0.0,0.0,0.0,0.0,0.0,1.0605,0.0,1.0527,0.0,0.0,0.0,0.0,0.0,0.0,1.0721,1.0588,1.0455,1.0455,1.0455,1.0455,1.0455,1.0588,1.0721,1.0721,1.0721,1.0721,1.0721,1.0721,1.0721,1.0721,1.0721,1.0721,1.0721,0.0,-0.301,0.0,0.0,-0.1392,0.0,-0.0168,0.0581,0.122,0.1271,0.1261,0.1415,0.1572,0.1815,0.2057,0.2292,0.2541,0.2728,0.2781,0.2703,0.2724,0.2775,0.3449,0.3884,0.4144,0.48,0.5378,0.0,0.0,0.0,0.0,0.0,0.0,0.0,0.0,0.0,0.0,0.0,0.8177,0.8319,0.835,0.8818,0.9463,0.9392,0.9483,0.9596,0.9596,0.9268,0.894,0.894,0.894,0.894,0.894,0.894,0.894,0.894,0.896,0.9008,0.9123,0.9178,0.9239,0.9391,0.9544,0.9898,1.0994,1.0634,1.0353,1.1499,1.1017,1.0409,1.0521,1.0639,0.0,0.0,0.0,0.0,0.0,0.0,0.0,0.0,0.0,0.0,0.0,0.0,0.0,0.0,0.0,1.0595,1.0714,1.0605,1.0595,0.0,0.0,1.0721,1.0721,0.0,1.0721,1.0721,1.0721,1.0721,1.0721,1.0721,1.0721,1.0721,1.0721,1.0721,1.0721,1.0721,1.0721,1.0721,1.0721,1.0721,1.0721,1.0721,1.0721,1.0721,0.0,0.0,0.0,0.0,0.0,0.0,-0.0505,0.0168,0.0833,0.1221,0.1274,0.1415,0.1572,0.2001,0.235,0.2512,0.3054,0.3342,0.3348,0.3101,0.2938,0.2946,0.3849,0.442,0.4514,0.5641,0.6192,0.0,0.0,0.0,0.0,0.0,0.0,0.0,0.0,0.0,0.0,0.8248,0.8333,0.8476,0.8615,0.8686,0.8834,0.8975,0.8927,0.8937,0.8937,0.8937,0.894,0.894,0.894,0.894,0.894,0.894,0.894,0.894,0.9032,0.9133,0.915,0.9256,0.9398,0.9551,0.9696,0.9839,1.0098,1.0263,1.0297,1.0551,1.0702,1.0683,1.0697,1.0711,1.0721,0.0,0.0,0.0,0.0,0.0,0.0,0.0,0.0,0.0,0.0,0.0,0.0,0.0,1.0707,1.0704,1.0721,1.0707,1.0707,1.0721,1.0721,1.0721,1.0721,1.0721,1.0721,1.0721,1.0721,1.0721,1.0721,1.0721,1.0721,1.0721,1.0721,1.0721,1.0721,1.0721,1.0721,1.0721,1.0721,1.0721,1.0721,1.0721,1.0721,1.0721,0.0,0.0,0.0,0.0,0.0,0.0,0.0,0.0606,0.0857,0.1274,0.1331,0.1393,0.1719,0.198,0.224,0.249,0.2761,0.2959,0.3001,0.2918,0.2935,0.2976,0.4006,0.4574,0.4706,0.5764,0.6391,0.0,0.0,0.0,0.0,0.0,0.0,0.0,0.0,0.8106,0.8275,0.8364,0.8482,0.8625,0.8686,0.8764,0.8855,0.8916,0.894,0.894,0.894,0.894,0.894,0.894,0.894,0.894,0.894,0.894,0.894,0.894,0.9042,0.9171,0.9266,0.9401,0.9578,0.9815,0.9917,0.9998,1.0151,1.03,1.0422,1.048,1.0612,1.0721,1.0721,1.0721,1.0721,0.0,0.0,0.0,0.0,0.0,0.0,0.0,0.0,0.0,0.0,0.0,0.0,0.0,0.0,1.0721,1.0721,1.0721,1.0721,1.0721,0.0,1.0721,1.0721,1.0721,1.0721,1.0721,1.0721,1.0721,1.0721,1.0721,1.0721,1.0721,1.0721,1.0721,1.0721,1.0721,1.0721,1.0721,1.0721,1.0721,1.0721,1.0721,1.0721,1.0721,-0.1346,0.0,-0.0771,0.0,-0.0527,-0.0088,0.0984,0.1063,0.1054,0.1318,0.1387,0.1451,0.1768,0.203,0.2293,0.2464,0.282,0.3022,0.3068,0.3089,0.3209,0.3258,0.4328,0.0,0.4995,0.594,0.6437,0.6437,0.6437,0.0,0.0,0.0,0.0,0.0,0.7703,0.8004,0.8304,0.8506,0.8638,0.8777,0.8777,0.8842,0.894,0.894,0.894,0.894,0.894,0.894,0.894,0.894,0.894,0.894,0.894,0.894,0.8947,0.8988,0.9106,0.9252,0.9408,0.9591,0.9788,0.9995,1.0114,1.0209,1.0317,1.0456,1.0558,1.0558,1.0643,1.0721,1.0721,1.0721,1.0721,1.0721,0.0,0.0,0.0,0.0,0.0,0.0,0.0,1.0721,1.0721,0.0,0.0,0.0,0.0,0.0,1.0721,1.0721,1.0721,0.0,0.0,0.0,1.0721,1.0721,1.0721,1.0721,1.0721,1.0721,1.0721,1.0721,1.0721,1.0721,1.0721,1.0721,1.0721,1.0721,1.0721,1.0721,1.0721,1.0721,1.0721,1.0721,1.0721,1.0721,-0.0755,-0.0943,-0.0701,0.1072,0.1345,0.1256,0.0807,0.1076,0.1435,0.1435,0.1435,0.1499,0.1689,0.2316,0.2782,0.2782,0.3277,0.3585,0.3585,0.3926,0.4062,0.0,0.0,0.5586,0.5586,0.6082,0.6437,0.6437,0.0,0.0,0.6437,0.0,0.6911,0.7035,0.7645,0.8011,0.8278,0.8602,0.8798,0.8937,0.8937,0.8937,0.894,0.894,0.894,0.894,0.894,0.894,0.894,0.894,0.894,0.894,0.894,0.894,0.8967,0.911,0.9259,0.9412,0.9564,0.9822,1.0042,1.0046,1.027,1.0487,1.0487,1.0609,1.0717,1.0717,1.0717,1.0721,1.0721,1.0721,1.0721,1.0721,0.0,0.0,0.0,0.0,0.0,0.0,1.0721,1.0721,1.0721,0.0,0.0,0.0,0.0,0.0,0.0,0.0,0.0,1.0721,1.0721,0.0,1.0721,1.0721,1.0721,1.0721,1.0721,1.0721,1.0721,1.0721,1.0721,1.0721,1.0721,1.0721,1.0721,1.0721,1.0721,1.0721,1.0721,1.0721,1.0721,1.0721,1.0721,1.0588,-0.0263,-0.0354,-0.0267,0.0359,0.0988,0.1347,0.1166,0.1345,0.1436,0.1436,0.1436,0.1517,0.1761,0.2213,0.2488,0.0,0.3041,0.3142,0.0,0.352,0.3801,0.3801,0.4893,0.5475,0.5475,0.6041,0.6437,0.6437,0.0,0.0,0.0,0.6664,0.6833,0.7165,0.7464,0.7874,0.8288,0.8491,0.8669,0.894,0.894,0.894,0.894,0.894,0.894,0.894,0.894,0.894,0.894,0.894,0.894,0.8957,0.9055,0.9086,0.9093,0.914,0.9337,0.9568,0.9713,0.9897,1.0097,1.03,1.0422,1.049,1.049,1.0456,1.0422,1.0422,1.0422,1.0422,1.0422,1.0422,1.0422,1.0422,1.05,0.0,0.0,0.0,0.0,0.0,1.0721,1.0721,0.0,1.0721,0.0,0.0,0.0,0.0,0.0,0.0,0.0,0.0,1.0721,0.0,1.0721,1.0721,1.0721,1.0721,1.0721,1.0721,1.0721,1.0721,1.0721,1.0721,1.0721,1.0721,1.0721,1.0721,1.0721,1.0721,1.0721,1.0721,1.0721,1.0721,1.0721,1.0721,-0.0905,-0.0454,0.0,0.0,0.0451,0.0898,0.1077,0.1166,0.1345,0.1525,0.1615,0.1884,0.2242,0.2422,0.0,0.2873,0.2875,0.2875,0.2875,0.3369,0.3762,0.4038,0.4955,0.5543,0.5734,0.6163,0.0,0.6437,0.6483,0.6545,0.6622,0.6668,0.6857,0.7085,0.7268,0.766,0.8041,0.8232,0.8488,0.8712,0.8712,0.8826,0.894,0.894,0.894,0.894,0.894,0.894,0.8947,0.9001,0.9018,0.9045,0.9191,0.9276,0.9323,0.9323,0.9496,0.9707,0.9795,0.9975,1.0164,1.0293,1.0371,1.0412,1.0412,1.0344,1.028,1.028,1.028,1.028,1.028,1.028,1.028,1.028,1.0354,1.0412,1.0412,0.0,0.0,0.0,0.0,0.0,0.0,1.0721,1.0721,0.0,0.0,0.0,0.0,0.0,0.0,1.0721,1.0721,0.0,1.0721,1.0721,1.0721,1.0721,1.0721,1.0721,1.0721,1.0721,1.0721,1.0721,1.0721,1.0721,1.0721,1.0721,1.0721,1.0721,1.0721,1.0721,1.0721,1.0721,1.0721,1.0721,-0.2041,-0.0927,0.0093,0.0,0.0091,0.0,0.0719,0.0898,0.1166,0.1888,0.2066,0.2425,0.2879,0.2966,0.2967,0.2976,0.0,0.0,0.0,0.3545,0.4188,0.4668,0.5324,0.5924,0.6426,0.6431,0.6439,0.6448,0.6562,0.6627,0.6646,0.676,0.688,0.6997,0.732,0.7491,0.7607,0.7823,0.8156,0.8484,0.8484,0.8598,0.8826,0.8937,0.894,0.894,0.894,0.8947,0.8974,0.911,0.9161,0.9195,0.9351,0.9496,0.9608,0.9608,0.971,0.9822,0.9832,1.0046,1.0232,1.01,1.0164,1.0263,1.0263,1.0256,1.0249,1.0249,1.0249,1.0249,1.0249,1.0249,1.0249,1.0249,1.0256,1.0263,1.0263,0.0,0.0,0.0,0.0,0.0,0.0,1.0721,1.0721,0.0,0.0,0.0,0.0,0.0,1.0721,1.0721,1.0721,1.0721,1.0721,1.0721,1.0721,1.0721,1.0721,1.0721,1.0721,1.0721,1.0721,1.0721,1.0721,1.0721,1.0721,1.0721,1.0721,1.0721,1.0721,1.0721,1.0721,1.0721,1.0721,1.0588,0.0,0.0,0.0852,0.0095,0.0559,0.1102,0.1194,0.0997,0.1082,0.211,0.2267,0.2634,0.3373,0.3336,0.3327,0.338,0.3151,0.2958,0.3004,0.3885,0.4476,0.4573,0.555,0.6211,0.6309,0.6393,0.6483,0.6575,0.6605,0.6714,0.6899,0.6929,0.7005,0.7116,0.7224,0.7354,0.7607,0.7715,0.7826,0.8156,0.8374,0.8484,0.8598,0.8826,0.894,0.894,0.894,0.9008,0.911,0.9144,0.9228,0.9354,0.9507,0.9581,0.9608,0.9608,0.971,0.9846,0.9964,1.0049,1.0124,1.0205,1.0164,1.0103,1.0103,1.0012,0.993,0.993,0.993,0.993,0.993,0.993,0.993,0.993,1.0025,1.0103,1.0103,1.03,0.0,0.0,1.0595,1.068,1.0717,1.0721,1.0721,0.0,0.0,0.0,0.0,1.0721,1.0721,1.0721,1.0721,1.0721,1.0721,1.0721,1.0721,1.0721,1.0721,1.0721,1.0721,1.0721,1.0721,1.0721,1.0721,1.0721,1.0721,1.0721,1.0721,1.0721,1.0721,1.0721,1.0721,1.0721,1.0721,1.0588,0.0784,0.0778,0.058,0.0097,0.0755,0.1388,0.1388,0.1182,0.1446,0.2676,0.2749,0.2947,0.3798,0.3774,0.3779,0.3662,0.3414,0.3203,0.3141,0.3842,0.4342,0.463,0.5546,0.6229,0.6429,0.6543,0.6635,0.6703,0.6757,0.6855,0.6986,0.7037,0.7095,0.7154,0.7154,0.7268,0.7382,0.7382,0.7604,0.7826,0.8156,0.8374,0.8484,0.8826,0.8981,0.9035,0.9035,0.9133,0.9269,0.9337,0.9415,0.951,0.9659,0.9707,0.9707,0.9707,0.9808,0.9927,0.9941,0.9995,1.0053,1.0066,1.0008,0.9944,0.9944,0.988,0.9822,0.9822,0.9822,0.9822,0.9822,0.9822,0.9822,0.9822,0.9947,1.0049,1.0049,1.0249,0.0,1.0483,1.0565,1.0643,1.0714,1.0721,1.0721,1.0721,1.0721,0.0,1.0721,1.0721,1.0721,1.0721,1.0721,1.0721,1.0721,1.0721,1.0721,1.0721,1.0721,1.0721,1.0721,1.0721,1.0721,1.0721,1.0721,1.0721,1.0721,1.0721,1.0721,1.0721,1.0721,1.0721,1.0721,1.0721,1.0452,1.0183,0.0202,0.0,0.0,0.0,0.0766,0.1402,0.1688,0.1659,0.2018,0.338,0.3278,0.3388,0.4138,0.4223,0.4144,0.3931,0.3784,0.3462,0.3172,0.3816,0.4347,0.4738,0.5512,0.613,0.6646,0.6749,0.6812,0.6831,0.6934,0.6994,0.7013,0.7108,0.7154,0.7154,0.7154,0.7154,0.7154,0.7154,0.7379,0.7607,0.7826,0.8168,0.852,0.8745,0.9062,0.9188,0.9188,0.9286,0.9435,0.9564,0.9625,0.9663,0.9781,0.9822,0.9822,0.9822,0.9914,0.9985,0.9856,0.9917,0.9985,0.9852,0.9822,0.9822,0.9822,0.9822,0.9822,0.9822,0.9822,0.9822,0.9822,0.9839,0.9856,0.9856,0.9985,1.0086,1.0086,0.0,1.0354,1.0477,1.0514,1.0578,1.0707,1.0721,1.0721,1.0721,1.0721,1.0721,1.0721,1.0721,1.0721,1.0721,1.0721,1.0721,1.0721,1.0721,1.0721,1.0721,1.0721,1.0721,1.0721,1.0721,1.0721,1.0721,1.0721,1.0721,1.0721,1.0721,1.0721,1.0721,1.0585,1.0585,1.0585,1.0452,1.005,0.9513,0.0,0.0,0.0,0.0,0.0494,0.1369,0.2883,0.2646,0.2646,0.3755,0.3866,0.4037,0.4489,0.4579,0.4428,0.4009,0.4107,0.4002,0.3604,0.4579,0.5137,0.493,0.6073,0.6669,0.6774,0.6793,0.6853,0.6956,0.6975,0.7035,0.713,0.7146,0.7154,0.7154,0.7154,0.7154,0.7154,0.7154,0.7265,0.7268,0.7604,0.7894,0.8335,0.8671,0.8987,0.9347,0.9347,0.9445,0.9578,0.9602,0.969,0.9791,0.9815,0.9822,0.9822,0.9822,0.9839,0.9849,0.9829,0.9839,0.9849,0.9825,0.9822,0.9822,0.9822,0.9822,0.9822,0.9822,0.9822,0.9822,0.9822,0.9927,1.0015,1.0015,1.0144,1.0246,1.0246,0.0,1.0466,1.049,1.0605,1.0694,1.0717,1.0721,1.0721,1.0721,1.0721,1.0721,1.0721,1.0721,1.0721,1.0721,1.0721,1.0721,1.0721,1.0721,1.0721,1.0721,1.0721,1.0721,1.0721,1.0721,1.0721,1.0721,1.0721,1.0721,1.0721,1.0721,1.0721,1.0588,1.0047,0.9915,0.9782,0.912,0.8853,0.872,0.0,0.0,0.0,0.0,0.1003,0.2191,0.3183,0.306,0.3158,0.3814,0.3963,0.416,0.4683,0.4726,0.4692,0.4431,0.4535,0.4437,0.4036,0.4926,0.5388,0.518,0.6273,0.6929,0.6991,0.6991,0.7018,0.7076,0.7076,0.7103,0.7154,0.7154,0.7154,0.7154,0.7154,0.7154,0.716,0.7225,0.7252,0.7258,0.7667,0.7958,0.8241,0.859,0.902,0.9261,0.9386,0.9598,0.9724,0.9724,0.9768,0.9822,0.9822,0.9822,0.9822,0.9822,0.9822,0.9822,0.9822,0.9822,0.9822,0.9822,0.9822,0.9822,0.9822,0.9822,0.9822,0.9822,0.9822,0.9846,0.9927,1.0002,1.0076,1.0158,1.0297,0.0,0.0,1.0521,1.0616,1.0616,1.0677,1.0721,1.0721,1.0721,1.0721,1.0721,1.0721,1.0721,1.0721,1.0721,1.0721,1.0721,1.0721,1.0721,1.0721,1.0721,1.0721,1.0721,1.0721,1.0721,1.0721,1.0721,1.0452,1.0183,1.0183,1.0183,1.0183,1.0183,1.0183,1.0183,0.9782,0.9513,0.912,0.872,0.8318,0.7917,0.0813,0.061,0.0407,0.0409,0.1738,0.295,0.341,0.3503,0.3601,0.4198,0.4281,0.4394,0.4758,0.4847,0.4734,0.4736,0.4734,0.4736,0.4438,0.515,0.5525,0.5421,0.6468,0.7065,0.7154,0.7154,0.7154,0.7154,0.7154,0.7154,0.7154,0.7154,0.7154,0.7157,0.7184,0.7195,0.7203,0.7326,0.7377,0.7385,0.771,0.8,0.8146,0.8617,0.8934,0.9171,0.9417,0.961,0.9822,0.9822,0.9822,0.9822,0.9822,0.9822,0.9822,0.9822,0.9822,0.9822,0.9822,0.9822,0.9822,0.9822,0.9822,0.9822,0.9822,0.9822,0.9822,0.9822,0.9849,0.991,1.0029,1.0107,1.0192,1.031,0.0,0.0,0.0,1.0646,1.0721,1.0721,1.0721,1.0721,1.0721,1.0721,1.0721,1.0721,1.0721,1.0721,1.0721,1.0721,1.0721,1.0721,1.0721,1.0721,1.0721,1.0721,1.0721,1.0721,1.0721,1.0721,1.0721,1.0721,1.0319,0.9646,0.9646,0.9649,0.9383,0.9383,0.9383,0.9383,0.9247,0.8848,0.832,0.8187,0.7784,0.725,0.3311,0.2487,0.1665,0.1692,0.2335,0.3289,0.4344,0.413,0.4128,0.4867,0.5004,0.4955,0.4961,0.4885,0.4736,0.4438,0.4636,0.4736,0.4438,0.5417,0.5838,0.5622,0.6577,0.7146,0.7154,0.7154,0.7154,0.7154,0.7154,0.7154,0.7154,0.7154,0.7154,0.716,0.7271,0.7323,0.7331,0.7453,0.7505,0.7505,0.7516,0.7819,0.8161,0.828,0.872,0.9319,0.9319,0.9569,0.9822,0.9822,0.9822,0.9822,0.9822,0.9822,0.9822,0.9822,0.9822,0.9822,0.9822,0.9822,0.9822,0.9822,0.9822,0.9822,0.9822,0.9822,0.9822,0.9822,0.9934,1.0036,1.0046,1.0273,1.0463,1.0473,0.0,0.0,1.0704,1.0714,1.0721,1.0721,1.0721,1.0721,1.0721,1.0721,1.0721,1.0721,1.0721,1.0721,1.0721,1.0721,1.0721,1.0721,1.0721,1.0721,1.0721,1.0721,1.0721,1.0721,1.0721,1.0721,1.0721,1.0721,1.0319,0.9646,0.9646,0.925,0.872,0.872,0.872,0.8587,0.7915,0.7648,0.7514,0.6853,0.6587,0.6587,0.3168,0.3062,0.276,0.2779,0.3432,0.3967,0.4334,0.447,0.469,0.4842,0.4908,0.4885,0.4885,0.4855,0.4734,0.4636,0.4734,0.4734,0.4636,0.5525,0.6226,0.6575,0.6995,0.7154,0.7154,0.7154,0.7154,0.7154,0.7154,0.7192,0.7269,0.7269,0.7307,0.7383,0.7429,0.7451,0.7456,0.7581,0.7633,0.7638,0.7709,0.7884,0.8049,0.8294,0.8447,0.8732,0.9217,0.9335,0.9579,0.97,0.97,0.9457,0.9457,0.9457,0.9579,0.97,0.9822,0.9822,0.9822,0.9822,0.9822,0.9822,0.9822,0.9822,0.9822,0.9893,0.9964,0.9964,1.0086,1.0219,1.0307,1.0415,1.0524,1.0619,0.0,1.0721,1.0721,1.0721,1.0721,1.0721,1.0721,1.0721,1.0721,1.0721,1.0721,1.0721,1.0721,1.0721,1.0721,1.0721,1.0721,1.0721,1.0721,1.0721,1.0721,1.0721,1.0721,1.0721,1.0721,1.0721,1.0721,1.0721,1.005,0.8984,0.8984,0.8584,0.7917,0.7917,0.7917,0.7915,0.7648,0.725,0.6853,0.6587,0.6453,0.6453,0.3059,0.3259,0.3368,0.3387,0.384,0.4261,0.4286,0.4627,0.4838,0.4847,0.4834,0.4834,0.4834,0.476,0.4677,0.4677,0.4726,0.4755,0.4755,0.5665,0.6478,0.7149,0.7154,0.7154,0.7154,0.7192,0.7211,0.7211,0.7249,0.7312,0.7394,0.7394,0.7437,0.7521,0.7559,0.7576,0.7584,0.7703,0.7755,0.7763,0.7839,0.7872,0.7872,0.8119,0.8369,0.8491,0.8973,0.9217,0.9335,0.9579,0.9457,0.9335,0.9217,0.9217,0.9335,0.9579,0.97,0.9822,0.9822,0.9822,0.9822,0.9822,0.9822,0.9832,0.9883,0.9975,1.0063,1.011,1.0243,1.0378,1.0473,1.0531,1.0599,1.0704,1.0721,1.0721,1.0721,1.0721,1.0721,1.0721,1.0721,1.0721,1.0721,1.0721,1.0721,1.0721,1.0721,1.0721,1.0721,1.0721,1.0721,1.0721,1.0721,1.0721,1.0721,1.0721,1.0721,1.0721,1.0721,1.0721,1.0721,1.0721,0.9921,0.8587,0.8587,0.8051,0.725,0.725,0.725,0.725,0.725,0.6851,0.6453,0.6453,0.6453,0.6453,0.3311,0.3322,0.3341,0.3402,0.3621,0.3915,0.4055,0.4355,0.4534,0.4748,0.4836,0.4836,0.4836,0.4616,0.4462,0.4462,0.4714,0.4805,0.4807,0.5857,0.6601,0.7163,0.7157,0.7157,0.7157,0.7277,0.7336,0.7336,0.7459,0.7519,0.7521,0.7521,0.7521,0.7527,0.7649,0.7703,0.7709,0.7823,0.7872,0.7872,0.7872,0.7872,0.7872,0.7872,0.8119,0.8491,0.8732,0.9095,0.9335,0.9335,0.9335,0.9214,0.8976,0.9098,0.9335,0.9335,0.9579,0.9822,0.9822,0.9822,0.9822,0.9822,0.9822,0.9863,1.0015,1.0049,1.0097,1.0249,1.0395,1.0493,1.0493,1.0619,1.0721,1.0721,1.0721,1.0721,1.0721,1.0721,1.0721,1.0721,1.0721,1.0721,1.0721,1.0721,1.0721,1.0721,1.0721,1.0721,1.0721,1.0721,1.0721,1.0721,1.0721,1.0721,1.0721,1.0721,1.0721,1.0721,1.0721,1.0721,1.0721,1.0721,0.9921,0.8587,0.8587,0.7786,0.6453,0.6453,0.6453,0.6453,0.6453,0.6453,0.6453,0.6453,0.6453,0.6453,0.339,0.3386,0.3391,0.3409,0.3621,0.3826,0.391,0.412,0.4323,0.4404,0.44,0.44,0.44,0.4578,0.484,0.5058,0.5379,0.5808,0.6217,0.6618,0.6904,0.7407,0.741,0.741,0.741,0.7445,0.7464,0.7464,0.75,0.7562,0.7646,0.7646,0.769,0.7769,0.7804,0.782,0.7823,0.7856,0.7872,0.7872,0.7872,0.7872,0.7872,0.7872,0.7994,0.8119,0.8488,0.8613,0.8732,0.8976,0.8854,0.861,0.8613,0.8488,0.8482,0.9092,0.9217,0.9217,0.97,0.9822,0.9822,0.9822,0.99,0.9992,1.0039,1.0209,1.0375,1.0419,1.0548,1.0653,1.0653,1.0687,1.0721,1.0721,1.0721,1.0721,1.0721,1.0721,1.0721,1.0721,1.0721,1.0721,1.0721,1.0721,1.0721,1.0721,1.0721,1.0721,1.0721,1.0721,1.0721,1.0721,1.0721,1.0721,1.0721,1.0721,1.0721,1.0721,1.0721,1.0721,1.0721,1.0183,0.9516,0.8587,0.8051,0.7386,0.6453,0.6453,0.6453,0.6453,0.6453,0.6453,0.6453,0.6453,0.6453,0.6453,0.342,0.3413,0.3413,0.3413,0.3621,0.3833,0.3833,0.4047,0.4154,0.4154,0.4286,0.4411,0.4411,0.4726,0.5016,0.5349,0.5803,0.6383,0.7077,0.7082,0.723,0.7655,0.7657,0.7614,0.7521,0.7568,0.7589,0.7589,0.7635,0.7695,0.7769,0.7769,0.7804,0.7872,0.7872,0.7872,0.7872,0.7872,0.7872,0.7872,0.7872,0.7872,0.7872,0.7872,0.7872,0.7994,0.8244,0.8369,0.8491,0.8613,0.8488,0.8244,0.8244,0.8119,0.8116,0.8851,0.8973,0.8986,0.9652,0.991,0.9927,0.9988,1.0025,1.008,1.0198,1.0361,1.051,1.0568,1.0656,1.0721,1.0721,1.0721,1.0721,1.0721,1.0721,1.0721,1.0721,1.0721,1.0721,1.0721,1.0721,1.0721,1.0721,1.0721,1.0721,1.0721,1.0721,1.0721,1.0721,1.0721,1.0721,1.0721,1.0721,1.0721,1.0721,1.0721,1.0721,1.0721,1.0721,1.0721,1.0721,1.0047,0.925,0.8587,0.7781,0.7118,0.6453,0.6453,0.6453,0.6453,0.6453,0.6453,0.6453,0.6453,0.6453,0.6453,0.3428,0.3428,0.3428,0.3428,0.3639,0.3744,0.3744,0.4071,0.4184,0.4184,0.4571,0.4839,0.4839,0.4981,0.5307,0.5647,0.6162,0.667,0.7378,0.7385,0.7627,0.7869,0.7872,0.7771,0.7554,0.766,0.7717,0.7717,0.782,0.7872,0.7872,0.7872,0.7872,0.7872,0.7872,0.7872,0.7872,0.7872,0.7872,0.7872,0.7872,0.7872,0.7872,0.7872,0.7872,0.7994,0.8244,0.8369,0.8369,0.8369,0.8119,0.7872,0.7872,0.7872,0.7994,0.8607,0.8738,0.8897,0.9764,0.9935,1.0107,1.0259,1.0192,1.0158,1.0429,1.0504,1.0551,1.069,1.0721,1.0721,1.0721,1.0721,1.0721,1.0721,1.0721,1.0721,1.0721,1.0721,1.0721,1.0721,1.0721,1.0721,1.0721,1.0721,1.0721,1.0721,1.0721,1.0721,1.0721,1.0721,1.0721,1.0721,1.0721,1.0721,1.0721,1.0721,1.0721,1.0721,1.0721,1.0721,1.0585,0.9915,0.925,0.8454,0.7784,0.7118,0.6453,0.6453,0.6453,0.6453,0.6453,0.6453,0.6453,0.6453,0.6453,0.6453,0.3549,0.3549,0.3549,0.3549,0.366,0.366,0.366,0.3926,0.4186,0.4186,0.4589,0.4749,0.4749,0.5303,0.5841,0.6074,0.7025,0.7601,0.7747,0.775,0.7872,0.7872,0.7872,0.7847,0.7796,0.782,0.7834,0.7834,0.7858,0.7872,0.7872,0.7872,0.7872,0.7872,0.7872,0.7872,0.7872,0.7872,0.7872,0.7872,0.7872,0.7872,0.7872,0.7872,0.7872,0.7872,0.7994,0.7994,0.7994,0.7994,0.7994,0.7872,0.7872,0.7508,0.7266,0.7872,0.8186,0.8392,0.9162,0.9758,1.0263,1.0412,1.0422,1.0412,1.0477,1.0585,1.068,1.0714,1.0721,1.0721,1.0721,1.0721,1.0721,1.0721,1.0721,1.0721,1.0721,1.0721,1.0721,1.0721,1.0721,1.0721,1.0721,1.0721,1.0721,1.0721,1.0721,1.0721,1.0721,1.0721,1.0721,1.0721,1.0721,1.0721,1.0721,1.0721,1.0721,1.0721,1.0721,1.0452,0.9915,0.9117,0.8451,0.7648,0.6985,0.6585,0.6453,0.6453,0.6453,0.6453,0.6453,0.6453,0.6453,0.6453,0.6453,0.6453,0.3587,0.3587,0.3587,0.3587,0.3724,0.3859,0.3859,0.4257,0.4535,0.4535,0.4831,0.5115,0.5236,0.579,0.6328,0.6812,0.7472,0.7872,0.7872,0.7872,0.7872,0.7872,0.7872,0.7872,0.7872,0.7872,0.7872,0.7872,0.7872,0.7872,0.7872,0.7872,0.7872,0.7872,0.7872,0.7872,0.7872,0.7872,0.7872,0.7872,0.7872,0.7872,0.7872,0.7872,0.7872,0.7872,0.7872,0.7872,0.7872,0.7872,0.7872,0.7872,0.7872,0.7421,0.7093,0.7712,0.804,0.8273,0.9097,0.9806,1.0415,1.0565,1.0602,1.0602,1.0602,1.0663,1.0721,1.0721,1.0721,1.0721,1.0721,1.0721,1.0721,1.0721,1.0721,1.0721,1.0721,1.0721,1.0721,1.0721,1.0721,1.0721,1.0721,1.0721,1.0721,1.0721,1.0721,1.0721,1.0721,1.0721,1.0721,1.0721,1.0721,1.0721,1.0721,1.0721,1.0585,1.0183,1.0183,1.005,0.9649,0.8581,0.7917,0.7514,0.6853,0.6453,0.6453,0.6453,0.6453,0.6453,0.6453,0.6453,0.6453,0.6453,0.6453,0.6453,0.3713,0.3715,0.383,0.3841,0.4118,0.4273,0.4273,0.4563,0.4843,0.4725,0.5148,0.5559,0.5804,0.6235,0.6773,0.7385,0.775,0.7872,0.7872,0.7872,0.7872,0.7872,0.7872,0.7872,0.7872,0.7872,0.7872,0.7872,0.7872,0.7872,0.7872,0.7872,0.7872,0.7872,0.7872,0.7872,0.7872,0.7872,0.7872,0.7872,0.7872,0.7872,0.7872,0.7872,0.7872,0.7872,0.7872,0.7872,0.7872,0.7872,0.7872,0.7875,0.7896,0.7472,0.7176,0.77,0.7912,0.8277,0.903,0.9729,1.0427,1.0687,1.0721,1.0721,1.0721,1.0721,1.0721,1.0721,1.0721,1.0721,1.0721,1.0721,1.0721,1.0721,1.0721,1.0721,1.0721,1.0585,1.0585,1.0721,1.0721,1.0721,1.0721,1.0721,1.0721,1.0721,1.0721,1.0721,1.0721,1.0721,1.0721,1.0721,1.0721,1.0721,1.0721,1.0585,1.0316,0.9646,0.938,0.938,0.9247,0.8046,0.7381,0.725,0.6719,0.6453,0.6453,0.6453,0.6453,0.6453,0.6453,0.6453,0.6453,0.6453,0.6453,0.6453,0.4452,0.4465,0.4485,0.4666,0.4686,0.4576,0.4339,0.4871,0.5042,0.4443,0.5473,0.6141,0.5898,0.6766,0.7385,0.775,0.7872,0.7872,0.7872,0.7872,0.7872,0.7872,0.7872,0.7872,0.7872,0.7872,0.7872,0.7872,0.7872,0.7872,0.7872,0.7872,0.7872,0.7872,0.7872,0.7872,0.7872,0.7872,0.7872,0.7872,0.7872,0.7872,0.7872,0.7872,0.7872,0.7872,0.7872,0.7872,0.7872,0.7872,0.7872,0.7888,0.7997,0.7538,0.7067,0.7285,0.7391,0.7609,0.8402,0.9139,0.9893,1.0581,1.0721,1.0721,1.0721,1.0721,1.0721,1.0721,1.0721,1.0721,1.0721,1.0721,1.0721,1.0721,1.0721,1.0721,1.0721,1.0183,1.0047,1.0588,1.0721,1.0721,1.0721,1.0721,1.0721,1.0721,1.0721,1.0721,1.0721,1.0721,1.0721,1.0721,1.0721,1.0721,1.0721,1.0183,0.9782,0.9646,0.8448,0.7781,0.7781,0.7648,0.725,0.6585,0.6587,0.6453,0.6453,0.6453,0.6453,0.6453,0.6453,0.6453,0.6453,0.6453,0.6453,0.6453,0.4064,0.4193,0.4202,0.4234,0.4388,0.4411,0.4292,0.5074,0.549,0.5247,0.6012,0.6653,0.6775,0.7263,0.775,0.7869,0.7872,0.7872,0.7872,0.7872,0.7872,0.7872,0.7872,0.7872,0.7872,0.7872,0.7872,0.7872,0.7872,0.7872,0.7872,0.7872,0.7872,0.7872,0.7872,0.7872,0.7872,0.7872,0.7872,0.7872,0.7872,0.7872,0.7872,0.7872,0.7872,0.7872,0.7872,0.7872,0.788,0.7951,0.7973,0.7994,0.8117,0.7816,0.7491,0.7281,0.7503,0.785,0.7977,0.8806,0.9779,1.0047,1.0452,1.0721,1.0721,1.0721,1.0721,1.0721,1.0721,1.0721,1.0721,1.0721,1.0721,1.0721,1.0721,1.0585,1.0183,0.9915,0.9649,0.9519,0.9918,0.9918,0.9519,1.0187,1.0585,1.0183,1.0452,1.0721,1.0721,1.0721,1.0721,1.0721,1.0319,1.0183,1.0183,0.9383,0.8851,0.8448,0.7781,0.7514,0.7514,0.7118,0.6719,0.6453,0.6453,0.6453,0.6453,0.6453,0.6453,0.6453,0.6453,0.6453,0.6453,0.6453,0.6453,0.6453]}]]